<?xml version="1.0" encoding="UTF-8" standalone="no" ?>
<gpx xmlns="http://www.topografix.com/GPX/1/1" xmlns:xsi="http://www.w3.org/2001/XMLSchema-instance" xsi:schemaLocation="http://www.topografix.com/GPX/1/1 http://www.topografix.com/GPX/1/1/gpx.xsd" version="1.1" creator="VisuGPX - https://www.visugpx.com">
  <metadata>
    <name>Prepa MegaRando</name>
    <desc><![CDATA[Total: 4.9km]]></desc>
  </metadata>
  <trk>
    <name><![CDATA[randogps33-968]]></name>
    <extensions>
      <line xmlns="http://www.topografix.com/GPX/gpx_style/0/2">
        <color>880000</color>
        <width>4</width>
      </line>
    </extensions>
    <trkseg>
      <trkpt lat="44.87547" lon="-0.13347">
        <ele>40</ele>
        <time>2021-05-01T07:45:27.499Z</time>
      </trkpt>
      <trkpt lat="44.87551" lon="-0.13324">
        <ele>38</ele>
        <time>2021-05-01T07:45:29.500Z</time>
      </trkpt>
      <trkpt lat="44.87556" lon="-0.13313">
        <ele>37</ele>
        <time>2021-05-01T07:45:34.500Z</time>
      </trkpt>
      <trkpt lat="44.87552" lon="-0.13313">
        <ele>38</ele>
        <time>2021-05-01T07:45:36.500Z</time>
      </trkpt>
      <trkpt lat="44.87548" lon="-0.13311">
        <ele>38</ele>
        <time>2021-05-01T07:45:38.499Z</time>
      </trkpt>
      <trkpt lat="44.87544" lon="-0.133">
        <ele>36</ele>
        <time>2021-05-01T07:45:44.500Z</time>
      </trkpt>
      <trkpt lat="44.87542" lon="-0.1329">
        <ele>34</ele>
        <time>2021-05-01T07:45:49.500Z</time>
      </trkpt>
      <trkpt lat="44.87533" lon="-0.13254">
        <ele>31</ele>
        <time>2021-05-01T07:46:07.500Z</time>
      </trkpt>
      <trkpt lat="44.87533" lon="-0.1325">
        <ele>31</ele>
        <time>2021-05-01T07:46:09.500Z</time>
      </trkpt>
      <trkpt lat="44.87535" lon="-0.13239">
        <ele>32</ele>
        <time>2021-05-01T07:46:15.499Z</time>
      </trkpt>
      <trkpt lat="44.87545" lon="-0.13227">
        <ele>29</ele>
        <time>2021-05-01T07:46:26.499Z</time>
      </trkpt>
      <trkpt lat="44.87553" lon="-0.13224">
        <ele>28</ele>
        <time>2021-05-01T07:46:33.500Z</time>
      </trkpt>
      <trkpt lat="44.87558" lon="-0.1322">
        <ele>27</ele>
        <time>2021-05-01T07:46:38.499Z</time>
      </trkpt>
      <trkpt lat="44.87565" lon="-0.13221">
        <ele>26</ele>
        <time>2021-05-01T07:46:43.500Z</time>
      </trkpt>
      <trkpt lat="44.87568" lon="-0.13217">
        <ele>26</ele>
        <time>2021-05-01T07:46:46.500Z</time>
      </trkpt>
      <trkpt lat="44.87583" lon="-0.1321">
        <ele>24</ele>
        <time>2021-05-01T07:46:56.500Z</time>
      </trkpt>
      <trkpt lat="44.87587" lon="-0.13206">
        <ele>23</ele>
        <time>2021-05-01T07:46:59.500Z</time>
      </trkpt>
      <trkpt lat="44.87591" lon="-0.13201">
        <ele>23</ele>
        <time>2021-05-01T07:47:04.499Z</time>
      </trkpt>
      <trkpt lat="44.87595" lon="-0.13199">
        <ele>23</ele>
        <time>2021-05-01T07:47:08.500Z</time>
      </trkpt>
      <trkpt lat="44.87597" lon="-0.13196">
        <ele>22</ele>
        <time>2021-05-01T07:47:11.500Z</time>
      </trkpt>
      <trkpt lat="44.87602" lon="-0.13193">
        <ele>22</ele>
        <time>2021-05-01T07:47:15.500Z</time>
      </trkpt>
      <trkpt lat="44.87614" lon="-0.13182">
        <ele>22</ele>
        <time>2021-05-01T07:47:24.499Z</time>
      </trkpt>
      <trkpt lat="44.8763" lon="-0.13177">
        <ele>22</ele>
        <time>2021-05-01T07:47:32.499Z</time>
      </trkpt>
      <trkpt lat="44.87635" lon="-0.13171">
        <ele>20</ele>
        <time>2021-05-01T07:47:36.500Z</time>
      </trkpt>
      <trkpt lat="44.8764" lon="-0.13162">
        <ele>21</ele>
        <time>2021-05-01T07:47:42.500Z</time>
      </trkpt>
      <trkpt lat="44.87649" lon="-0.13154">
        <ele>24</ele>
        <time>2021-05-01T07:47:49.500Z</time>
      </trkpt>
      <trkpt lat="44.8766" lon="-0.13146">
        <ele>24</ele>
        <time>2021-05-01T07:47:57.500Z</time>
      </trkpt>
      <trkpt lat="44.87665" lon="-0.13145">
        <ele>24</ele>
        <time>2021-05-01T07:48:00.500Z</time>
      </trkpt>
      <trkpt lat="44.87677" lon="-0.13135">
        <ele>21</ele>
        <time>2021-05-01T07:48:09.499Z</time>
      </trkpt>
      <trkpt lat="44.8768" lon="-0.13134">
        <ele>21</ele>
        <time>2021-05-01T07:48:12.500Z</time>
      </trkpt>
      <trkpt lat="44.87682" lon="-0.13138">
        <ele>20</ele>
        <time>2021-05-01T07:48:15.500Z</time>
      </trkpt>
      <trkpt lat="44.87683" lon="-0.13148">
        <ele>21</ele>
        <time>2021-05-01T07:48:22.500Z</time>
      </trkpt>
      <trkpt lat="44.87686" lon="-0.13154">
        <ele>21</ele>
        <time>2021-05-01T07:48:25.500Z</time>
      </trkpt>
      <trkpt lat="44.87687" lon="-0.13161">
        <ele>22</ele>
        <time>2021-05-01T07:48:30.500Z</time>
      </trkpt>
      <trkpt lat="44.87689" lon="-0.13166">
        <ele>24</ele>
        <time>2021-05-01T07:48:34.500Z</time>
      </trkpt>
      <trkpt lat="44.87701" lon="-0.13218">
        <ele>26</ele>
        <time>2021-05-01T07:49:01.500Z</time>
      </trkpt>
      <trkpt lat="44.87708" lon="-0.13244">
        <ele>24</ele>
        <time>2021-05-01T07:49:17.500Z</time>
      </trkpt>
      <trkpt lat="44.87708" lon="-0.13246">
        <ele>24</ele>
        <time>2021-05-01T07:49:19.500Z</time>
      </trkpt>
      <trkpt lat="44.87715" lon="-0.13278">
        <ele>21</ele>
        <time>2021-05-01T07:49:35.500Z</time>
      </trkpt>
      <trkpt lat="44.87723" lon="-0.13297">
        <ele>17</ele>
        <time>2021-05-01T07:49:46.500Z</time>
      </trkpt>
      <trkpt lat="44.87726" lon="-0.13311">
        <ele>18</ele>
        <time>2021-05-01T07:49:52.500Z</time>
      </trkpt>
      <trkpt lat="44.87735" lon="-0.13338">
        <ele>18</ele>
        <time>2021-05-01T07:50:06.499Z</time>
      </trkpt>
      <trkpt lat="44.87743" lon="-0.13365">
        <ele>19</ele>
        <time>2021-05-01T07:50:20.500Z</time>
      </trkpt>
      <trkpt lat="44.87753" lon="-0.13419">
        <ele>20</ele>
        <time>2021-05-01T07:50:49.500Z</time>
      </trkpt>
      <trkpt lat="44.87756" lon="-0.13429">
        <ele>22</ele>
        <time>2021-05-01T07:50:56.500Z</time>
      </trkpt>
      <trkpt lat="44.8776" lon="-0.13447">
        <ele>21</ele>
        <time>2021-05-01T07:51:12.500Z</time>
      </trkpt>
      <trkpt lat="44.87792" lon="-0.13408">
        <ele>21</ele>
        <time>2021-05-01T07:51:13.501Z</time>
      </trkpt>
      <trkpt lat="44.87799" lon="-0.13406">
        <ele>20</ele>
        <time>2021-05-01T07:51:19.501Z</time>
      </trkpt>
      <trkpt lat="44.87806" lon="-0.13401">
        <ele>21</ele>
        <time>2021-05-01T07:51:25.501Z</time>
      </trkpt>
      <trkpt lat="44.87822" lon="-0.13394">
        <ele>19</ele>
        <time>2021-05-01T07:51:36.501Z</time>
      </trkpt>
      <trkpt lat="44.87829" lon="-0.1339">
        <ele>22</ele>
        <time>2021-05-01T07:51:42.501Z</time>
      </trkpt>
      <trkpt lat="44.87875" lon="-0.13372">
        <ele>26</ele>
        <time>2021-05-01T07:52:19.501Z</time>
      </trkpt>
      <trkpt lat="44.87879" lon="-0.13368">
        <ele>25</ele>
        <time>2021-05-01T07:52:23.501Z</time>
      </trkpt>
      <trkpt lat="44.87891" lon="-0.13365">
        <ele>28</ele>
        <time>2021-05-01T07:52:32.501Z</time>
      </trkpt>
      <trkpt lat="44.87898" lon="-0.13358">
        <ele>27</ele>
        <time>2021-05-01T07:52:38.500Z</time>
      </trkpt>
      <trkpt lat="44.87903" lon="-0.13354">
        <ele>28</ele>
        <time>2021-05-01T07:52:43.500Z</time>
      </trkpt>
      <trkpt lat="44.87924" lon="-0.13346">
        <ele>26</ele>
        <time>2021-05-01T07:52:58.501Z</time>
      </trkpt>
      <trkpt lat="44.87926" lon="-0.13344">
        <ele>27</ele>
        <time>2021-05-01T07:53:00.501Z</time>
      </trkpt>
      <trkpt lat="44.87929" lon="-0.13337">
        <ele>27</ele>
        <time>2021-05-01T07:53:04.501Z</time>
      </trkpt>
      <trkpt lat="44.87928" lon="-0.13312">
        <ele>27</ele>
        <time>2021-05-01T07:53:17.501Z</time>
      </trkpt>
      <trkpt lat="44.87931" lon="-0.13304">
        <ele>27</ele>
        <time>2021-05-01T07:53:22.501Z</time>
      </trkpt>
      <trkpt lat="44.87929" lon="-0.13291">
        <ele>28</ele>
        <time>2021-05-01T07:53:29.501Z</time>
      </trkpt>
      <trkpt lat="44.87928" lon="-0.13284">
        <ele>27</ele>
        <time>2021-05-01T07:53:33.501Z</time>
      </trkpt>
      <trkpt lat="44.87924" lon="-0.13267">
        <ele>28</ele>
        <time>2021-05-01T07:53:42.500Z</time>
      </trkpt>
      <trkpt lat="44.87924" lon="-0.13262">
        <ele>28</ele>
        <time>2021-05-01T07:53:45.501Z</time>
      </trkpt>
      <trkpt lat="44.87916" lon="-0.13235">
        <ele>28</ele>
        <time>2021-05-01T07:54:00.501Z</time>
      </trkpt>
      <trkpt lat="44.87912" lon="-0.13226">
        <ele>26</ele>
        <time>2021-05-01T07:54:07.500Z</time>
      </trkpt>
      <trkpt lat="44.87912" lon="-0.13224">
        <ele>26</ele>
        <time>2021-05-01T07:54:08.501Z</time>
      </trkpt>
      <trkpt lat="44.87911" lon="-0.13216">
        <ele>26</ele>
        <time>2021-05-01T07:54:12.501Z</time>
      </trkpt>
      <trkpt lat="44.87907" lon="-0.13208">
        <ele>28</ele>
        <time>2021-05-01T07:54:17.501Z</time>
      </trkpt>
      <trkpt lat="44.87905" lon="-0.132">
        <ele>28</ele>
        <time>2021-05-01T07:54:20.501Z</time>
      </trkpt>
      <trkpt lat="44.87905" lon="-0.13169">
        <ele>29</ele>
        <time>2021-05-01T07:54:30.501Z</time>
      </trkpt>
      <trkpt lat="44.87903" lon="-0.13159">
        <ele>29</ele>
        <time>2021-05-01T07:54:34.502Z</time>
      </trkpt>
      <trkpt lat="44.87902" lon="-0.13146">
        <ele>28</ele>
        <time>2021-05-01T07:54:42.501Z</time>
      </trkpt>
      <trkpt lat="44.87904" lon="-0.1314">
        <ele>29</ele>
        <time>2021-05-01T07:54:45.502Z</time>
      </trkpt>
      <trkpt lat="44.87904" lon="-0.13131">
        <ele>29</ele>
        <time>2021-05-01T07:54:49.502Z</time>
      </trkpt>
      <trkpt lat="44.87906" lon="-0.13113">
        <ele>34</ele>
        <time>2021-05-01T07:54:58.502Z</time>
      </trkpt>
      <trkpt lat="44.87907" lon="-0.13097">
        <ele>35</ele>
        <time>2021-05-01T07:55:06.502Z</time>
      </trkpt>
      <trkpt lat="44.87906" lon="-0.13088">
        <ele>35</ele>
        <time>2021-05-01T07:55:10.502Z</time>
      </trkpt>
      <trkpt lat="44.87907" lon="-0.13073">
        <ele>34</ele>
        <time>2021-05-01T07:55:17.501Z</time>
      </trkpt>
      <trkpt lat="44.87907" lon="-0.13063">
        <ele>35</ele>
        <time>2021-05-01T07:55:22.501Z</time>
      </trkpt>
      <trkpt lat="44.87908" lon="-0.1305">
        <ele>34</ele>
        <time>2021-05-01T07:55:28.502Z</time>
      </trkpt>
      <trkpt lat="44.87913" lon="-0.13037">
        <ele>34</ele>
        <time>2021-05-01T07:55:35.502Z</time>
      </trkpt>
      <trkpt lat="44.87918" lon="-0.13016">
        <ele>32</ele>
        <time>2021-05-01T07:55:46.502Z</time>
      </trkpt>
      <trkpt lat="44.87918" lon="-0.13009">
        <ele>31</ele>
        <time>2021-05-01T07:55:49.502Z</time>
      </trkpt>
      <trkpt lat="44.87923" lon="-0.12991">
        <ele>29</ele>
        <time>2021-05-01T07:55:58.502Z</time>
      </trkpt>
      <trkpt lat="44.87924" lon="-0.12983">
        <ele>29</ele>
        <time>2021-05-01T07:56:02.502Z</time>
      </trkpt>
      <trkpt lat="44.87925" lon="-0.12976">
        <ele>28</ele>
        <time>2021-05-01T07:56:06.502Z</time>
      </trkpt>
      <trkpt lat="44.87924" lon="-0.12949">
        <ele>25</ele>
        <time>2021-05-01T07:56:20.501Z</time>
      </trkpt>
      <trkpt lat="44.87933" lon="-0.12937">
        <ele>25</ele>
        <time>2021-05-01T07:56:29.502Z</time>
      </trkpt>
      <trkpt lat="44.87948" lon="-0.1293">
        <ele>28</ele>
        <time>2021-05-01T07:56:40.502Z</time>
      </trkpt>
      <trkpt lat="44.87983" lon="-0.12903">
        <ele>29</ele>
        <time>2021-05-01T07:57:05.501Z</time>
      </trkpt>
      <trkpt lat="44.87997" lon="-0.1289">
        <ele>26</ele>
        <time>2021-05-01T07:57:16.502Z</time>
      </trkpt>
      <trkpt lat="44.88026" lon="-0.1287">
        <ele>26</ele>
        <time>2021-05-01T07:57:36.502Z</time>
      </trkpt>
      <trkpt lat="44.88029" lon="-0.12867">
        <ele>26</ele>
        <time>2021-05-01T07:57:38.502Z</time>
      </trkpt>
      <trkpt lat="44.88034" lon="-0.12864">
        <ele>26</ele>
        <time>2021-05-01T07:57:42.501Z</time>
      </trkpt>
      <trkpt lat="44.88038" lon="-0.12863">
        <ele>26</ele>
        <time>2021-05-01T07:57:46.502Z</time>
      </trkpt>
      <trkpt lat="44.88054" lon="-0.12857">
        <ele>28</ele>
        <time>2021-05-01T07:57:57.502Z</time>
      </trkpt>
      <trkpt lat="44.88102" lon="-0.12847">
        <ele>26</ele>
        <time>2021-05-01T07:58:27.502Z</time>
      </trkpt>
      <trkpt lat="44.8812" lon="-0.12846">
        <ele>28</ele>
        <time>2021-05-01T07:58:39.502Z</time>
      </trkpt>
      <trkpt lat="44.88138" lon="-0.12842">
        <ele>29</ele>
        <time>2021-05-01T07:58:51.502Z</time>
      </trkpt>
      <trkpt lat="44.88143" lon="-0.12839">
        <ele>28</ele>
        <time>2021-05-01T07:58:55.501Z</time>
      </trkpt>
      <trkpt lat="44.88155" lon="-0.12825">
        <ele>28</ele>
        <time>2021-05-01T07:59:05.502Z</time>
      </trkpt>
      <trkpt lat="44.88157" lon="-0.12822">
        <ele>28</ele>
        <time>2021-05-01T07:59:07.502Z</time>
      </trkpt>
      <trkpt lat="44.88163" lon="-0.12816">
        <ele>30</ele>
        <time>2021-05-01T07:59:12.502Z</time>
      </trkpt>
      <trkpt lat="44.88166" lon="-0.1281">
        <ele>33</ele>
        <time>2021-05-01T07:59:16.502Z</time>
      </trkpt>
      <trkpt lat="44.88167" lon="-0.12802">
        <ele>33</ele>
        <time>2021-05-01T07:59:20.502Z</time>
      </trkpt>
      <trkpt lat="44.88167" lon="-0.12798">
        <ele>33</ele>
        <time>2021-05-01T07:59:22.502Z</time>
      </trkpt>
      <trkpt lat="44.88158" lon="-0.12771">
        <ele>32</ele>
        <time>2021-05-01T07:59:37.501Z</time>
      </trkpt>
      <trkpt lat="44.88156" lon="-0.12765">
        <ele>32</ele>
        <time>2021-05-01T07:59:40.502Z</time>
      </trkpt>
      <trkpt lat="44.88148" lon="-0.12737">
        <ele>35</ele>
        <time>2021-05-01T07:59:56.502Z</time>
      </trkpt>
      <trkpt lat="44.88141" lon="-0.12723">
        <ele>32</ele>
        <time>2021-05-01T08:00:06.502Z</time>
      </trkpt>
      <trkpt lat="44.88137" lon="-0.12712">
        <ele>34</ele>
        <time>2021-05-01T08:00:13.502Z</time>
      </trkpt>
      <trkpt lat="44.8813" lon="-0.12697">
        <ele>30</ele>
        <time>2021-05-01T08:00:23.501Z</time>
      </trkpt>
      <trkpt lat="44.88128" lon="-0.1269">
        <ele>31</ele>
        <time>2021-05-01T08:00:27.501Z</time>
      </trkpt>
      <trkpt lat="44.88123" lon="-0.12653">
        <ele>35</ele>
        <time>2021-05-01T08:00:49.502Z</time>
      </trkpt>
      <trkpt lat="44.88118" lon="-0.12631">
        <ele>33</ele>
        <time>2021-05-01T08:01:02.502Z</time>
      </trkpt>
      <trkpt lat="44.88118" lon="-0.12622">
        <ele>35</ele>
        <time>2021-05-01T08:01:08.502Z</time>
      </trkpt>
      <trkpt lat="44.88116" lon="-0.12602">
        <ele>36</ele>
        <time>2021-05-01T08:01:20.502Z</time>
      </trkpt>
      <trkpt lat="44.88117" lon="-0.12593">
        <ele>37</ele>
        <time>2021-05-01T08:01:26.502Z</time>
      </trkpt>
      <trkpt lat="44.8812" lon="-0.12577">
        <ele>40</ele>
        <time>2021-05-01T08:01:35.501Z</time>
      </trkpt>
      <trkpt lat="44.8812" lon="-0.12571">
        <ele>41</ele>
        <time>2021-05-01T08:01:39.502Z</time>
      </trkpt>
      <trkpt lat="44.88121" lon="-0.12566">
        <ele>41</ele>
        <time>2021-05-01T08:01:43.502Z</time>
      </trkpt>
      <trkpt lat="44.88118" lon="-0.12558">
        <ele>42</ele>
        <time>2021-05-01T08:01:50.501Z</time>
      </trkpt>
      <trkpt lat="44.88119" lon="-0.12552">
        <ele>43</ele>
        <time>2021-05-01T08:01:54.501Z</time>
      </trkpt>
      <trkpt lat="44.88117" lon="-0.1254">
        <ele>43</ele>
        <time>2021-05-01T08:02:02.501Z</time>
      </trkpt>
      <trkpt lat="44.88114" lon="-0.12534">
        <ele>42</ele>
        <time>2021-05-01T08:02:07.502Z</time>
      </trkpt>
      <trkpt lat="44.88113" lon="-0.12526">
        <ele>41</ele>
        <time>2021-05-01T08:02:13.502Z</time>
      </trkpt>
      <trkpt lat="44.88107" lon="-0.12516">
        <ele>42</ele>
        <time>2021-05-01T08:02:23.502Z</time>
      </trkpt>
      <trkpt lat="44.88102" lon="-0.12502">
        <ele>44</ele>
        <time>2021-05-01T08:02:33.502Z</time>
      </trkpt>
      <trkpt lat="44.88098" lon="-0.12497">
        <ele>46</ele>
        <time>2021-05-01T08:02:37.502Z</time>
      </trkpt>
      <trkpt lat="44.88096" lon="-0.12489">
        <ele>49</ele>
        <time>2021-05-01T08:02:43.501Z</time>
      </trkpt>
      <trkpt lat="44.8808" lon="-0.12461">
        <ele>50</ele>
        <time>2021-05-01T08:03:08.501Z</time>
      </trkpt>
      <trkpt lat="44.8807" lon="-0.12448">
        <ele>50</ele>
        <time>2021-05-01T08:03:24.501Z</time>
      </trkpt>
      <trkpt lat="44.8807" lon="-0.12443">
        <ele>51</ele>
        <time>2021-05-01T08:03:28.502Z</time>
      </trkpt>
      <trkpt lat="44.88064" lon="-0.12429">
        <ele>57</ele>
        <time>2021-05-01T08:03:37.502Z</time>
      </trkpt>
      <trkpt lat="44.88064" lon="-0.12423">
        <ele>58</ele>
        <time>2021-05-01T08:03:42.502Z</time>
      </trkpt>
      <trkpt lat="44.88065" lon="-0.12411">
        <ele>63</ele>
        <time>2021-05-01T08:03:52.502Z</time>
      </trkpt>
      <trkpt lat="44.8807" lon="-0.12408">
        <ele>61</ele>
        <time>2021-05-01T08:03:59.501Z</time>
      </trkpt>
      <trkpt lat="44.88073" lon="-0.12409">
        <ele>59</ele>
        <time>2021-05-01T08:04:02.502Z</time>
      </trkpt>
      <trkpt lat="44.88078" lon="-0.12406">
        <ele>59</ele>
        <time>2021-05-01T08:04:08.501Z</time>
      </trkpt>
      <trkpt lat="44.88082" lon="-0.12406">
        <ele>60</ele>
        <time>2021-05-01T08:04:12.502Z</time>
      </trkpt>
      <trkpt lat="44.88104" lon="-0.12394">
        <ele>56</ele>
        <time>2021-05-01T08:04:36.502Z</time>
      </trkpt>
      <trkpt lat="44.88105" lon="-0.12387">
        <ele>57</ele>
        <time>2021-05-01T08:04:41.502Z</time>
      </trkpt>
      <trkpt lat="44.88113" lon="-0.1238">
        <ele>58</ele>
        <time>2021-05-01T08:04:50.502Z</time>
      </trkpt>
      <trkpt lat="44.88121" lon="-0.12378">
        <ele>59</ele>
        <time>2021-05-01T08:05:01.502Z</time>
      </trkpt>
      <trkpt lat="44.88131" lon="-0.12369">
        <ele>63</ele>
        <time>2021-05-01T08:05:18.501Z</time>
      </trkpt>
      <trkpt lat="44.88132" lon="-0.12367">
        <ele>65</ele>
        <time>2021-05-01T08:05:22.501Z</time>
      </trkpt>
      <trkpt lat="44.88128" lon="-0.12356">
        <ele>67</ele>
        <time>2021-05-01T08:05:32.501Z</time>
      </trkpt>
      <trkpt lat="44.88124" lon="-0.1235">
        <ele>69</ele>
        <time>2021-05-01T08:05:36.502Z</time>
      </trkpt>
      <trkpt lat="44.88124" lon="-0.12343">
        <ele>70</ele>
        <time>2021-05-01T08:05:41.502Z</time>
      </trkpt>
      <trkpt lat="44.88118" lon="-0.12338">
        <ele>71</ele>
        <time>2021-05-01T08:05:45.501Z</time>
      </trkpt>
      <trkpt lat="44.8811" lon="-0.12326">
        <ele>71</ele>
        <time>2021-05-01T08:05:54.502Z</time>
      </trkpt>
      <trkpt lat="44.88108" lon="-0.12319">
        <ele>72</ele>
        <time>2021-05-01T08:05:58.502Z</time>
      </trkpt>
      <trkpt lat="44.88102" lon="-0.12306">
        <ele>74</ele>
        <time>2021-05-01T08:06:08.502Z</time>
      </trkpt>
      <trkpt lat="44.88097" lon="-0.1229">
        <ele>78</ele>
        <time>2021-05-01T08:06:18.502Z</time>
      </trkpt>
      <trkpt lat="44.88092" lon="-0.12283">
        <ele>78</ele>
        <time>2021-05-01T08:06:24.502Z</time>
      </trkpt>
      <trkpt lat="44.88091" lon="-0.12275">
        <ele>75</ele>
        <time>2021-05-01T08:06:29.502Z</time>
      </trkpt>
      <trkpt lat="44.88092" lon="-0.1226">
        <ele>77</ele>
        <time>2021-05-01T08:06:38.501Z</time>
      </trkpt>
      <trkpt lat="44.88091" lon="-0.12244">
        <ele>75</ele>
        <time>2021-05-01T08:06:47.502Z</time>
      </trkpt>
      <trkpt lat="44.8809" lon="-0.12213">
        <ele>75</ele>
        <time>2021-05-01T08:07:05.502Z</time>
      </trkpt>
      <trkpt lat="44.88089" lon="-0.12204">
        <ele>77</ele>
        <time>2021-05-01T08:07:10.502Z</time>
      </trkpt>
      <trkpt lat="44.88091" lon="-0.12185">
        <ele>79</ele>
        <time>2021-05-01T08:07:22.501Z</time>
      </trkpt>
      <trkpt lat="44.8809" lon="-0.12159">
        <ele>79</ele>
        <time>2021-05-01T08:07:37.502Z</time>
      </trkpt>
      <trkpt lat="44.88091" lon="-0.12137">
        <ele>81</ele>
        <time>2021-05-01T08:07:50.502Z</time>
      </trkpt>
      <trkpt lat="44.88093" lon="-0.12122">
        <ele>82</ele>
        <time>2021-05-01T08:07:59.502Z</time>
      </trkpt>
      <trkpt lat="44.88094" lon="-0.12097">
        <ele>81</ele>
        <time>2021-05-01T08:08:14.501Z</time>
      </trkpt>
      <trkpt lat="44.88096" lon="-0.12093">
        <ele>82</ele>
        <time>2021-05-01T08:08:18.502Z</time>
      </trkpt>
      <trkpt lat="44.881" lon="-0.12069">
        <ele>86</ele>
        <time>2021-05-01T08:08:32.502Z</time>
      </trkpt>
      <trkpt lat="44.88104" lon="-0.12052">
        <ele>85</ele>
        <time>2021-05-01T08:08:42.501Z</time>
      </trkpt>
      <trkpt lat="44.88106" lon="-0.12046">
        <ele>82</ele>
        <time>2021-05-01T08:08:46.502Z</time>
      </trkpt>
      <trkpt lat="44.88109" lon="-0.12043">
        <ele>83</ele>
        <time>2021-05-01T08:08:48.502Z</time>
      </trkpt>
      <trkpt lat="44.88115" lon="-0.12029">
        <ele>85</ele>
        <time>2021-05-01T08:08:58.502Z</time>
      </trkpt>
      <trkpt lat="44.88118" lon="-0.12008">
        <ele>84</ele>
        <time>2021-05-01T08:09:12.501Z</time>
      </trkpt>
      <trkpt lat="44.88117" lon="-0.12001">
        <ele>83</ele>
        <time>2021-05-01T08:09:17.502Z</time>
      </trkpt>
      <trkpt lat="44.88115" lon="-0.11994">
        <ele>83</ele>
        <time>2021-05-01T08:09:21.502Z</time>
      </trkpt>
      <trkpt lat="44.88111" lon="-0.11989">
        <ele>84</ele>
        <time>2021-05-01T08:09:25.502Z</time>
      </trkpt>
      <trkpt lat="44.881" lon="-0.1198">
        <ele>84</ele>
        <time>2021-05-01T08:09:33.501Z</time>
      </trkpt>
      <trkpt lat="44.88095" lon="-0.11974">
        <ele>87</ele>
        <time>2021-05-01T08:09:39.501Z</time>
      </trkpt>
      <trkpt lat="44.88083" lon="-0.1197">
        <ele>86</ele>
        <time>2021-05-01T08:09:48.502Z</time>
      </trkpt>
      <trkpt lat="44.88069" lon="-0.1197">
        <ele>85</ele>
        <time>2021-05-01T08:09:59.502Z</time>
      </trkpt>
      <trkpt lat="44.88051" lon="-0.11967">
        <ele>84</ele>
        <time>2021-05-01T08:10:11.502Z</time>
      </trkpt>
      <trkpt lat="44.88042" lon="-0.11968">
        <ele>84</ele>
        <time>2021-05-01T08:10:18.502Z</time>
      </trkpt>
      <trkpt lat="44.88037" lon="-0.11971">
        <ele>85</ele>
        <time>2021-05-01T08:10:22.501Z</time>
      </trkpt>
      <trkpt lat="44.88031" lon="-0.11973">
        <ele>86</ele>
        <time>2021-05-01T08:10:27.502Z</time>
      </trkpt>
      <trkpt lat="44.88028" lon="-0.11976">
        <ele>86</ele>
        <time>2021-05-01T08:10:29.502Z</time>
      </trkpt>
      <trkpt lat="44.88023" lon="-0.11979">
        <ele>86</ele>
        <time>2021-05-01T08:10:32.502Z</time>
      </trkpt>
      <trkpt lat="44.88018" lon="-0.11984">
        <ele>84</ele>
        <time>2021-05-01T08:10:36.502Z</time>
      </trkpt>
      <trkpt lat="44.88011" lon="-0.11998">
        <ele>82</ele>
        <time>2021-05-01T08:10:44.502Z</time>
      </trkpt>
      <trkpt lat="44.88009" lon="-0.12001">
        <ele>81</ele>
        <time>2021-05-01T08:10:46.502Z</time>
      </trkpt>
      <trkpt lat="44.88008" lon="-0.12007">
        <ele>81</ele>
        <time>2021-05-01T08:10:49.502Z</time>
      </trkpt>
      <trkpt lat="44.88007" lon="-0.12008">
        <ele>81</ele>
        <time>2021-05-01T08:10:50.502Z</time>
      </trkpt>
      <trkpt lat="44.88007" lon="-0.12014">
        <ele>82</ele>
        <time>2021-05-01T08:10:55.502Z</time>
      </trkpt>
      <trkpt lat="44.88002" lon="-0.12021">
        <ele>82</ele>
        <time>2021-05-01T08:11:00.501Z</time>
      </trkpt>
      <trkpt lat="44.87997" lon="-0.12036">
        <ele>80</ele>
        <time>2021-05-01T08:11:09.502Z</time>
      </trkpt>
      <trkpt lat="44.87992" lon="-0.12056">
        <ele>83</ele>
        <time>2021-05-01T08:11:19.502Z</time>
      </trkpt>
      <trkpt lat="44.87987" lon="-0.12066">
        <ele>83</ele>
        <time>2021-05-01T08:11:26.502Z</time>
      </trkpt>
      <trkpt lat="44.87984" lon="-0.12071">
        <ele>82</ele>
        <time>2021-05-01T08:11:29.501Z</time>
      </trkpt>
      <trkpt lat="44.87976" lon="-0.12087">
        <ele>79</ele>
        <time>2021-05-01T08:11:38.501Z</time>
      </trkpt>
      <trkpt lat="44.87968" lon="-0.12113">
        <ele>80</ele>
        <time>2021-05-01T08:11:52.502Z</time>
      </trkpt>
      <trkpt lat="44.8796" lon="-0.12134">
        <ele>82</ele>
        <time>2021-05-01T08:12:03.502Z</time>
      </trkpt>
      <trkpt lat="44.87955" lon="-0.12158">
        <ele>83</ele>
        <time>2021-05-01T08:12:15.502Z</time>
      </trkpt>
      <trkpt lat="44.8795" lon="-0.12176">
        <ele>81</ele>
        <time>2021-05-01T08:12:24.502Z</time>
      </trkpt>
      <trkpt lat="44.87949" lon="-0.12183">
        <ele>81</ele>
        <time>2021-05-01T08:12:28.501Z</time>
      </trkpt>
      <trkpt lat="44.87947" lon="-0.12188">
        <ele>80</ele>
        <time>2021-05-01T08:12:31.502Z</time>
      </trkpt>
      <trkpt lat="44.87936" lon="-0.12207">
        <ele>79</ele>
        <time>2021-05-01T08:12:44.502Z</time>
      </trkpt>
      <trkpt lat="44.87917" lon="-0.12224">
        <ele>76</ele>
        <time>2021-05-01T08:13:01.502Z</time>
      </trkpt>
      <trkpt lat="44.87908" lon="-0.12237">
        <ele>74</ele>
        <time>2021-05-01T08:13:09.501Z</time>
      </trkpt>
      <trkpt lat="44.87899" lon="-0.12246">
        <ele>72</ele>
        <time>2021-05-01T08:13:15.502Z</time>
      </trkpt>
      <trkpt lat="44.87894" lon="-0.12253">
        <ele>71</ele>
        <time>2021-05-01T08:13:19.502Z</time>
      </trkpt>
      <trkpt lat="44.87894" lon="-0.12257">
        <ele>70</ele>
        <time>2021-05-01T08:13:21.502Z</time>
      </trkpt>
      <trkpt lat="44.87889" lon="-0.12268">
        <ele>69</ele>
        <time>2021-05-01T08:13:27.502Z</time>
      </trkpt>
      <trkpt lat="44.87883" lon="-0.12276">
        <ele>69</ele>
        <time>2021-05-01T08:13:32.502Z</time>
      </trkpt>
      <trkpt lat="44.87883" lon="-0.12277">
        <ele>69</ele>
        <time>2021-05-01T08:13:33.501Z</time>
      </trkpt>
      <trkpt lat="44.8788" lon="-0.12282">
        <ele>68</ele>
        <time>2021-05-01T08:13:37.502Z</time>
      </trkpt>
      <trkpt lat="44.87879" lon="-0.1229">
        <ele>67</ele>
        <time>2021-05-01T08:13:42.502Z</time>
      </trkpt>
      <trkpt lat="44.87876" lon="-0.12292">
        <ele>67</ele>
        <time>2021-05-01T08:13:45.501Z</time>
      </trkpt>
      <trkpt lat="44.87875" lon="-0.12294">
        <ele>67</ele>
        <time>2021-05-01T08:13:46.502Z</time>
      </trkpt>
      <trkpt lat="44.87866" lon="-0.12307">
        <ele>65</ele>
        <time>2021-05-01T08:13:58.502Z</time>
      </trkpt>
      <trkpt lat="44.87865" lon="-0.12311">
        <ele>65</ele>
        <time>2021-05-01T08:14:02.501Z</time>
      </trkpt>
      <trkpt lat="44.8786" lon="-0.12318">
        <ele>66</ele>
        <time>2021-05-01T08:14:06.502Z</time>
      </trkpt>
      <trkpt lat="44.8785" lon="-0.12328">
        <ele>67</ele>
        <time>2021-05-01T08:14:16.501Z</time>
      </trkpt>
      <trkpt lat="44.87848" lon="-0.12328">
        <ele>68</ele>
        <time>2021-05-01T08:14:18.501Z</time>
      </trkpt>
      <trkpt lat="44.87833" lon="-0.12336">
        <ele>66</ele>
        <time>2021-05-01T08:14:28.502Z</time>
      </trkpt>
      <trkpt lat="44.87828" lon="-0.12336">
        <ele>68</ele>
        <time>2021-05-01T08:14:33.502Z</time>
      </trkpt>
      <trkpt lat="44.87817" lon="-0.12339">
        <ele>68</ele>
        <time>2021-05-01T08:14:42.502Z</time>
      </trkpt>
      <trkpt lat="44.87813" lon="-0.12335">
        <ele>68</ele>
        <time>2021-05-01T08:14:48.502Z</time>
      </trkpt>
      <trkpt lat="44.87808" lon="-0.12334">
        <ele>68</ele>
        <time>2021-05-01T08:14:54.502Z</time>
      </trkpt>
      <trkpt lat="44.87806" lon="-0.12332">
        <ele>67</ele>
        <time>2021-05-01T08:14:57.502Z</time>
      </trkpt>
      <trkpt lat="44.87797" lon="-0.12333">
        <ele>64</ele>
        <time>2021-05-01T08:15:04.502Z</time>
      </trkpt>
      <trkpt lat="44.87781" lon="-0.1233">
        <ele>63</ele>
        <time>2021-05-01T08:15:17.502Z</time>
      </trkpt>
      <trkpt lat="44.87779" lon="-0.12328">
        <ele>61</ele>
        <time>2021-05-01T08:15:19.501Z</time>
      </trkpt>
      <trkpt lat="44.87769" lon="-0.12327">
        <ele>60</ele>
        <time>2021-05-01T08:15:26.502Z</time>
      </trkpt>
      <trkpt lat="44.87759" lon="-0.12329">
        <ele>59</ele>
        <time>2021-05-01T08:15:32.502Z</time>
      </trkpt>
      <trkpt lat="44.87756" lon="-0.12334">
        <ele>60</ele>
        <time>2021-05-01T08:15:35.502Z</time>
      </trkpt>
      <trkpt lat="44.87758" lon="-0.12347">
        <ele>61</ele>
        <time>2021-05-01T08:15:41.502Z</time>
      </trkpt>
      <trkpt lat="44.87767" lon="-0.12364">
        <ele>59</ele>
        <time>2021-05-01T08:15:51.501Z</time>
      </trkpt>
      <trkpt lat="44.87772" lon="-0.12367">
        <ele>58</ele>
        <time>2021-05-01T08:15:54.502Z</time>
      </trkpt>
      <trkpt lat="44.87778" lon="-0.12377">
        <ele>57</ele>
        <time>2021-05-01T08:16:00.502Z</time>
      </trkpt>
      <trkpt lat="44.8778" lon="-0.12382">
        <ele>56</ele>
        <time>2021-05-01T08:16:04.502Z</time>
      </trkpt>
      <trkpt lat="44.87784" lon="-0.12386">
        <ele>56</ele>
        <time>2021-05-01T08:16:08.501Z</time>
      </trkpt>
      <trkpt lat="44.87786" lon="-0.12391">
        <ele>56</ele>
        <time>2021-05-01T08:16:11.501Z</time>
      </trkpt>
      <trkpt lat="44.87784" lon="-0.12398">
        <ele>54</ele>
        <time>2021-05-01T08:16:16.502Z</time>
      </trkpt>
      <trkpt lat="44.87785" lon="-0.12403">
        <ele>54</ele>
        <time>2021-05-01T08:16:18.502Z</time>
      </trkpt>
      <trkpt lat="44.87784" lon="-0.12412">
        <ele>53</ele>
        <time>2021-05-01T08:16:22.502Z</time>
      </trkpt>
      <trkpt lat="44.87782" lon="-0.12415">
        <ele>52</ele>
        <time>2021-05-01T08:16:24.502Z</time>
      </trkpt>
      <trkpt lat="44.87781" lon="-0.12415">
        <ele>52</ele>
        <time>2021-05-01T08:16:26.501Z</time>
      </trkpt>
      <trkpt lat="44.87779" lon="-0.12412">
        <ele>51</ele>
        <time>2021-05-01T08:16:29.502Z</time>
      </trkpt>
      <trkpt lat="44.87773" lon="-0.12409">
        <ele>51</ele>
        <time>2021-05-01T08:16:35.502Z</time>
      </trkpt>
      <trkpt lat="44.87765" lon="-0.12409">
        <ele>49</ele>
        <time>2021-05-01T08:16:41.502Z</time>
      </trkpt>
      <trkpt lat="44.87761" lon="-0.12406">
        <ele>47</ele>
        <time>2021-05-01T08:16:45.502Z</time>
      </trkpt>
      <trkpt lat="44.87753" lon="-0.12403">
        <ele>46</ele>
        <time>2021-05-01T08:16:51.501Z</time>
      </trkpt>
      <trkpt lat="44.87749" lon="-0.124">
        <ele>44</ele>
        <time>2021-05-01T08:16:55.502Z</time>
      </trkpt>
      <trkpt lat="44.87726" lon="-0.12394">
        <ele>37</ele>
        <time>2021-05-01T08:17:11.501Z</time>
      </trkpt>
      <trkpt lat="44.87723" lon="-0.12389">
        <ele>36</ele>
        <time>2021-05-01T08:17:15.502Z</time>
      </trkpt>
      <trkpt lat="44.87715" lon="-0.12382">
        <ele>35</ele>
        <time>2021-05-01T08:17:24.502Z</time>
      </trkpt>
      <trkpt lat="44.87711" lon="-0.12381">
        <ele>36</ele>
        <time>2021-05-01T08:17:29.502Z</time>
      </trkpt>
      <trkpt lat="44.8771" lon="-0.12379">
        <ele>36</ele>
        <time>2021-05-01T08:17:32.502Z</time>
      </trkpt>
      <trkpt lat="44.87711" lon="-0.12377">
        <ele>36</ele>
        <time>2021-05-01T08:17:34.502Z</time>
      </trkpt>
      <trkpt lat="44.87708" lon="-0.12373">
        <ele>36</ele>
        <time>2021-05-01T08:17:38.502Z</time>
      </trkpt>
      <trkpt lat="44.87695" lon="-0.1237">
        <ele>36</ele>
        <time>2021-05-01T08:17:48.501Z</time>
      </trkpt>
      <trkpt lat="44.87691" lon="-0.12366">
        <ele>36</ele>
        <time>2021-05-01T08:17:53.502Z</time>
      </trkpt>
      <trkpt lat="44.87688" lon="-0.12368">
        <ele>33</ele>
        <time>2021-05-01T08:17:54.503Z</time>
      </trkpt>
      <trkpt lat="44.87684" lon="-0.12368">
        <ele>33</ele>
        <time>2021-05-01T08:17:57.502Z</time>
      </trkpt>
      <trkpt lat="44.87675" lon="-0.12358">
        <ele>32</ele>
        <time>2021-05-01T08:18:04.503Z</time>
      </trkpt>
      <trkpt lat="44.87664" lon="-0.12342">
        <ele>32</ele>
        <time>2021-05-01T08:18:13.503Z</time>
      </trkpt>
      <trkpt lat="44.87661" lon="-0.12333">
        <ele>32</ele>
        <time>2021-05-01T08:18:18.503Z</time>
      </trkpt>
      <trkpt lat="44.87655" lon="-0.12326">
        <ele>32</ele>
        <time>2021-05-01T08:18:23.502Z</time>
      </trkpt>
      <trkpt lat="44.87651" lon="-0.12323">
        <ele>31</ele>
        <time>2021-05-01T08:18:26.502Z</time>
      </trkpt>
      <trkpt lat="44.87649" lon="-0.12317">
        <ele>30</ele>
        <time>2021-05-01T08:18:30.503Z</time>
      </trkpt>
      <trkpt lat="44.87648" lon="-0.12317">
        <ele>30</ele>
        <time>2021-05-01T08:18:33.503Z</time>
      </trkpt>
      <trkpt lat="44.87645" lon="-0.12314">
        <ele>30</ele>
        <time>2021-05-01T08:18:36.503Z</time>
      </trkpt>
      <trkpt lat="44.8764" lon="-0.12297">
        <ele>28</ele>
        <time>2021-05-01T08:18:46.503Z</time>
      </trkpt>
      <trkpt lat="44.87639" lon="-0.12295">
        <ele>28</ele>
        <time>2021-05-01T08:18:47.503Z</time>
      </trkpt>
      <trkpt lat="44.87634" lon="-0.12275">
        <ele>31</ele>
        <time>2021-05-01T08:18:58.503Z</time>
      </trkpt>
      <trkpt lat="44.87634" lon="-0.12268">
        <ele>32</ele>
        <time>2021-05-01T08:19:02.503Z</time>
      </trkpt>
      <trkpt lat="44.87631" lon="-0.12258">
        <ele>32</ele>
        <time>2021-05-01T08:19:07.503Z</time>
      </trkpt>
      <trkpt lat="44.8763" lon="-0.1225">
        <ele>32</ele>
        <time>2021-05-01T08:19:11.503Z</time>
      </trkpt>
      <trkpt lat="44.87626" lon="-0.12244">
        <ele>31</ele>
        <time>2021-05-01T08:19:15.502Z</time>
      </trkpt>
      <trkpt lat="44.87625" lon="-0.12236">
        <ele>29</ele>
        <time>2021-05-01T08:19:19.503Z</time>
      </trkpt>
      <trkpt lat="44.87621" lon="-0.12225">
        <ele>31</ele>
        <time>2021-05-01T08:19:25.502Z</time>
      </trkpt>
      <trkpt lat="44.87612" lon="-0.12205">
        <ele>34</ele>
        <time>2021-05-01T08:19:37.503Z</time>
      </trkpt>
      <trkpt lat="44.8761" lon="-0.12191">
        <ele>34</ele>
        <time>2021-05-01T08:19:46.503Z</time>
      </trkpt>
      <trkpt lat="44.87614" lon="-0.1219">
        <ele>38</ele>
        <time>2021-05-01T08:19:56.503Z</time>
      </trkpt>
      <trkpt lat="44.87612" lon="-0.12189">
        <ele>38</ele>
        <time>2021-05-01T08:19:59.503Z</time>
      </trkpt>
      <trkpt lat="44.87617" lon="-0.12192">
        <ele>37</ele>
        <time>2021-05-01T08:20:06.504Z</time>
      </trkpt>
      <trkpt lat="44.87626" lon="-0.12186">
        <ele>36</ele>
        <time>2021-05-01T08:20:15.504Z</time>
      </trkpt>
      <trkpt lat="44.87636" lon="-0.12181">
        <ele>36</ele>
        <time>2021-05-01T08:20:25.504Z</time>
      </trkpt>
      <trkpt lat="44.87645" lon="-0.1218">
        <ele>37</ele>
        <time>2021-05-01T08:20:35.503Z</time>
      </trkpt>
      <trkpt lat="44.87649" lon="-0.12178">
        <ele>36</ele>
        <time>2021-05-01T08:20:39.503Z</time>
      </trkpt>
      <trkpt lat="44.87655" lon="-0.12177">
        <ele>36</ele>
        <time>2021-05-01T08:20:46.503Z</time>
      </trkpt>
      <trkpt lat="44.87666" lon="-0.12173">
        <ele>40</ele>
        <time>2021-05-01T08:20:58.504Z</time>
      </trkpt>
      <trkpt lat="44.87672" lon="-0.12172">
        <ele>42</ele>
        <time>2021-05-01T08:21:05.503Z</time>
      </trkpt>
      <trkpt lat="44.87676" lon="-0.1217">
        <ele>43</ele>
        <time>2021-05-01T08:21:09.503Z</time>
      </trkpt>
      <trkpt lat="44.87685" lon="-0.12169">
        <ele>48</ele>
        <time>2021-05-01T08:21:24.504Z</time>
      </trkpt>
      <trkpt lat="44.87693" lon="-0.12163">
        <ele>49</ele>
        <time>2021-05-01T08:21:35.504Z</time>
      </trkpt>
      <trkpt lat="44.87699" lon="-0.12161">
        <ele>50</ele>
        <time>2021-05-01T08:21:41.503Z</time>
      </trkpt>
      <trkpt lat="44.87699" lon="-0.12159">
        <ele>51</ele>
        <time>2021-05-01T08:21:44.504Z</time>
      </trkpt>
      <trkpt lat="44.87705" lon="-0.12157">
        <ele>55</ele>
        <time>2021-05-01T08:21:52.504Z</time>
      </trkpt>
      <trkpt lat="44.87706" lon="-0.12154">
        <ele>56</ele>
        <time>2021-05-01T08:21:56.503Z</time>
      </trkpt>
      <trkpt lat="44.87705" lon="-0.12155">
        <ele>55</ele>
        <time>2021-05-01T08:21:59.504Z</time>
      </trkpt>
      <trkpt lat="44.87709" lon="-0.12151">
        <ele>56</ele>
        <time>2021-05-01T08:22:09.503Z</time>
      </trkpt>
      <trkpt lat="44.87709" lon="-0.12143">
        <ele>57</ele>
        <time>2021-05-01T08:22:17.503Z</time>
      </trkpt>
      <trkpt lat="44.87708" lon="-0.1214">
        <ele>57</ele>
        <time>2021-05-01T08:22:19.504Z</time>
      </trkpt>
      <trkpt lat="44.87707" lon="-0.12132">
        <ele>57</ele>
        <time>2021-05-01T08:22:24.503Z</time>
      </trkpt>
      <trkpt lat="44.87706" lon="-0.12116">
        <ele>57</ele>
        <time>2021-05-01T08:22:32.503Z</time>
      </trkpt>
      <trkpt lat="44.87708" lon="-0.12094">
        <ele>57</ele>
        <time>2021-05-01T08:22:44.504Z</time>
      </trkpt>
      <trkpt lat="44.87705" lon="-0.12085">
        <ele>57</ele>
        <time>2021-05-01T08:22:50.503Z</time>
      </trkpt>
      <trkpt lat="44.87706" lon="-0.1208">
        <ele>57</ele>
        <time>2021-05-01T08:22:53.504Z</time>
      </trkpt>
      <trkpt lat="44.87701" lon="-0.12063">
        <ele>55</ele>
        <time>2021-05-01T08:23:03.503Z</time>
      </trkpt>
      <trkpt lat="44.87699" lon="-0.12056">
        <ele>56</ele>
        <time>2021-05-01T08:23:07.504Z</time>
      </trkpt>
      <trkpt lat="44.87699" lon="-0.12052">
        <ele>56</ele>
        <time>2021-05-01T08:23:09.503Z</time>
      </trkpt>
      <trkpt lat="44.87696" lon="-0.12044">
        <ele>54</ele>
        <time>2021-05-01T08:23:14.504Z</time>
      </trkpt>
      <trkpt lat="44.87694" lon="-0.12042">
        <ele>54</ele>
        <time>2021-05-01T08:23:16.503Z</time>
      </trkpt>
      <trkpt lat="44.87691" lon="-0.12034">
        <ele>53</ele>
        <time>2021-05-01T08:23:21.504Z</time>
      </trkpt>
      <trkpt lat="44.87683" lon="-0.1202">
        <ele>55</ele>
        <time>2021-05-01T08:23:32.504Z</time>
      </trkpt>
      <trkpt lat="44.87672" lon="-0.12012">
        <ele>57</ele>
        <time>2021-05-01T08:23:45.504Z</time>
      </trkpt>
      <trkpt lat="44.87662" lon="-0.12013">
        <ele>57</ele>
        <time>2021-05-01T08:23:53.503Z</time>
      </trkpt>
      <trkpt lat="44.87649" lon="-0.12005">
        <ele>56</ele>
        <time>2021-05-01T08:24:04.503Z</time>
      </trkpt>
      <trkpt lat="44.87646" lon="-0.11999">
        <ele>55</ele>
        <time>2021-05-01T08:24:07.503Z</time>
      </trkpt>
      <trkpt lat="44.87639" lon="-0.11992">
        <ele>54</ele>
        <time>2021-05-01T08:24:13.503Z</time>
      </trkpt>
      <trkpt lat="44.87637" lon="-0.11987">
        <ele>53</ele>
        <time>2021-05-01T08:24:16.503Z</time>
      </trkpt>
      <trkpt lat="44.87635" lon="-0.11973">
        <ele>54</ele>
        <time>2021-05-01T08:24:25.503Z</time>
      </trkpt>
      <trkpt lat="44.8763" lon="-0.11963">
        <ele>55</ele>
        <time>2021-05-01T08:24:32.504Z</time>
      </trkpt>
      <trkpt lat="44.87628" lon="-0.11962">
        <ele>54</ele>
        <time>2021-05-01T08:24:33.504Z</time>
      </trkpt>
      <trkpt lat="44.87625" lon="-0.11957">
        <ele>52</ele>
        <time>2021-05-01T08:24:37.504Z</time>
      </trkpt>
      <trkpt lat="44.87625" lon="-0.11951">
        <ele>51</ele>
        <time>2021-05-01T08:24:40.504Z</time>
      </trkpt>
      <trkpt lat="44.87624" lon="-0.1195">
        <ele>52</ele>
        <time>2021-05-01T08:24:42.503Z</time>
      </trkpt>
      <trkpt lat="44.87622" lon="-0.11944">
        <ele>51</ele>
        <time>2021-05-01T08:24:47.504Z</time>
      </trkpt>
      <trkpt lat="44.87617" lon="-0.1194">
        <ele>51</ele>
        <time>2021-05-01T08:24:52.503Z</time>
      </trkpt>
      <trkpt lat="44.87614" lon="-0.11936">
        <ele>50</ele>
        <time>2021-05-01T08:24:55.503Z</time>
      </trkpt>
      <trkpt lat="44.87613" lon="-0.11927">
        <ele>48</ele>
        <time>2021-05-01T08:25:02.504Z</time>
      </trkpt>
      <trkpt lat="44.87612" lon="-0.11925">
        <ele>47</ele>
        <time>2021-05-01T08:25:04.504Z</time>
      </trkpt>
      <trkpt lat="44.87609" lon="-0.11924">
        <ele>48</ele>
        <time>2021-05-01T08:25:07.504Z</time>
      </trkpt>
      <trkpt lat="44.87609" lon="-0.11919">
        <ele>48</ele>
        <time>2021-05-01T08:25:10.504Z</time>
      </trkpt>
      <trkpt lat="44.87607" lon="-0.11909">
        <ele>47</ele>
        <time>2021-05-01T08:25:17.503Z</time>
      </trkpt>
      <trkpt lat="44.87606" lon="-0.119">
        <ele>45</ele>
        <time>2021-05-01T08:25:23.504Z</time>
      </trkpt>
      <trkpt lat="44.87606" lon="-0.11882">
        <ele>45</ele>
        <time>2021-05-01T08:25:34.504Z</time>
      </trkpt>
      <trkpt lat="44.87607" lon="-0.11878">
        <ele>45</ele>
        <time>2021-05-01T08:25:36.504Z</time>
      </trkpt>
      <trkpt lat="44.87606" lon="-0.11872">
        <ele>45</ele>
        <time>2021-05-01T08:25:40.503Z</time>
      </trkpt>
      <trkpt lat="44.87606" lon="-0.11857">
        <ele>43</ele>
        <time>2021-05-01T08:25:49.503Z</time>
      </trkpt>
      <trkpt lat="44.87609" lon="-0.11845">
        <ele>41</ele>
        <time>2021-05-01T08:25:57.504Z</time>
      </trkpt>
      <trkpt lat="44.87611" lon="-0.11838">
        <ele>40</ele>
        <time>2021-05-01T08:26:00.503Z</time>
      </trkpt>
      <trkpt lat="44.87614" lon="-0.11835">
        <ele>39</ele>
        <time>2021-05-01T08:26:02.503Z</time>
      </trkpt>
      <trkpt lat="44.87614" lon="-0.1183">
        <ele>38</ele>
        <time>2021-05-01T08:26:05.503Z</time>
      </trkpt>
      <trkpt lat="44.87612" lon="-0.11824">
        <ele>37</ele>
        <time>2021-05-01T08:26:11.504Z</time>
      </trkpt>
      <trkpt lat="44.87609" lon="-0.11824">
        <ele>38</ele>
        <time>2021-05-01T08:26:15.504Z</time>
      </trkpt>
      <trkpt lat="44.87605" lon="-0.11828">
        <ele>39</ele>
        <time>2021-05-01T08:26:19.504Z</time>
      </trkpt>
      <trkpt lat="44.87603" lon="-0.11833">
        <ele>39</ele>
        <time>2021-05-01T08:26:22.503Z</time>
      </trkpt>
      <trkpt lat="44.87599" lon="-0.11835">
        <ele>40</ele>
        <time>2021-05-01T08:26:25.503Z</time>
      </trkpt>
      <trkpt lat="44.87593" lon="-0.11846">
        <ele>40</ele>
        <time>2021-05-01T08:26:32.504Z</time>
      </trkpt>
      <trkpt lat="44.87586" lon="-0.11856">
        <ele>38</ele>
        <time>2021-05-01T08:26:38.503Z</time>
      </trkpt>
      <trkpt lat="44.87582" lon="-0.11859">
        <ele>37</ele>
        <time>2021-05-01T08:26:42.504Z</time>
      </trkpt>
      <trkpt lat="44.87578" lon="-0.11868">
        <ele>35</ele>
        <time>2021-05-01T08:26:50.504Z</time>
      </trkpt>
      <trkpt lat="44.87573" lon="-0.11871">
        <ele>34</ele>
        <time>2021-05-01T08:26:53.504Z</time>
      </trkpt>
      <trkpt lat="44.8756" lon="-0.11889">
        <ele>31</ele>
        <time>2021-05-01T08:27:08.503Z</time>
      </trkpt>
      <trkpt lat="44.87553" lon="-0.11897">
        <ele>30</ele>
        <time>2021-05-01T08:27:14.503Z</time>
      </trkpt>
      <trkpt lat="44.87548" lon="-0.11906">
        <ele>27</ele>
        <time>2021-05-01T08:27:21.504Z</time>
      </trkpt>
      <trkpt lat="44.87549" lon="-0.11907">
        <ele>26</ele>
        <time>2021-05-01T08:27:24.504Z</time>
      </trkpt>
      <trkpt lat="44.87544" lon="-0.11935">
        <ele>19</ele>
        <time>2021-05-01T08:27:41.504Z</time>
      </trkpt>
      <trkpt lat="44.87539" lon="-0.11942">
        <ele>18</ele>
        <time>2021-05-01T08:27:48.504Z</time>
      </trkpt>
      <trkpt lat="44.87537" lon="-0.11957">
        <ele>20</ele>
        <time>2021-05-01T08:28:01.503Z</time>
      </trkpt>
      <trkpt lat="44.87536" lon="-0.11956">
        <ele>20</ele>
        <time>2021-05-01T08:28:04.504Z</time>
      </trkpt>
      <trkpt lat="44.87536" lon="-0.11947">
        <ele>17</ele>
        <time>2021-05-01T08:28:09.504Z</time>
      </trkpt>
      <trkpt lat="44.87538" lon="-0.11938">
        <ele>15</ele>
        <time>2021-05-01T08:28:14.503Z</time>
      </trkpt>
      <trkpt lat="44.8754" lon="-0.11921">
        <ele>12</ele>
        <time>2021-05-01T08:28:24.504Z</time>
      </trkpt>
      <trkpt lat="44.87546" lon="-0.11908">
        <ele>12</ele>
        <time>2021-05-01T08:28:32.504Z</time>
      </trkpt>
      <trkpt lat="44.87546" lon="-0.119">
        <ele>12</ele>
        <time>2021-05-01T08:28:37.504Z</time>
      </trkpt>
      <trkpt lat="44.8755" lon="-0.11887">
        <ele>12</ele>
        <time>2021-05-01T08:28:44.504Z</time>
      </trkpt>
      <trkpt lat="44.87552" lon="-0.11876">
        <ele>12</ele>
        <time>2021-05-01T08:28:50.503Z</time>
      </trkpt>
      <trkpt lat="44.87554" lon="-0.1187">
        <ele>12</ele>
        <time>2021-05-01T08:28:53.504Z</time>
      </trkpt>
      <trkpt lat="44.87557" lon="-0.1185">
        <ele>9</ele>
        <time>2021-05-01T08:29:02.504Z</time>
      </trkpt>
      <trkpt lat="44.87561" lon="-0.11838">
        <ele>9</ele>
        <time>2021-05-01T08:29:08.503Z</time>
      </trkpt>
      <trkpt lat="44.8756" lon="-0.11834">
        <ele>9</ele>
        <time>2021-05-01T08:29:11.504Z</time>
      </trkpt>
      <trkpt lat="44.87567" lon="-0.11792">
        <ele>12</ele>
        <time>2021-05-01T08:29:31.504Z</time>
      </trkpt>
      <trkpt lat="44.8757" lon="-0.11785">
        <ele>11</ele>
        <time>2021-05-01T08:29:34.504Z</time>
      </trkpt>
      <trkpt lat="44.8757" lon="-0.11782">
        <ele>11</ele>
        <time>2021-05-01T08:29:36.504Z</time>
      </trkpt>
      <trkpt lat="44.87568" lon="-0.11775">
        <ele>10</ele>
        <time>2021-05-01T08:29:40.503Z</time>
      </trkpt>
      <trkpt lat="44.87566" lon="-0.1177">
        <ele>10</ele>
        <time>2021-05-01T08:29:44.504Z</time>
      </trkpt>
      <trkpt lat="44.87555" lon="-0.11766">
        <ele>11</ele>
        <time>2021-05-01T08:29:54.503Z</time>
      </trkpt>
      <trkpt lat="44.87547" lon="-0.11767">
        <ele>11</ele>
        <time>2021-05-01T08:30:00.504Z</time>
      </trkpt>
      <trkpt lat="44.87528" lon="-0.1176">
        <ele>10</ele>
        <time>2021-05-01T08:30:14.503Z</time>
      </trkpt>
      <trkpt lat="44.87516" lon="-0.11761">
        <ele>8</ele>
        <time>2021-05-01T08:30:23.504Z</time>
      </trkpt>
      <trkpt lat="44.87502" lon="-0.11755">
        <ele>7</ele>
        <time>2021-05-01T08:30:34.503Z</time>
      </trkpt>
      <trkpt lat="44.87501" lon="-0.11754">
        <ele>7</ele>
        <time>2021-05-01T08:30:35.504Z</time>
      </trkpt>
      <trkpt lat="44.87501" lon="-0.11745">
        <ele>6</ele>
        <time>2021-05-01T08:30:40.503Z</time>
      </trkpt>
      <trkpt lat="44.87505" lon="-0.11733">
        <ele>7</ele>
        <time>2021-05-01T08:30:47.504Z</time>
      </trkpt>
      <trkpt lat="44.87505" lon="-0.11726">
        <ele>7</ele>
        <time>2021-05-01T08:30:50.504Z</time>
      </trkpt>
      <trkpt lat="44.87507" lon="-0.1172">
        <ele>6</ele>
        <time>2021-05-01T08:30:53.504Z</time>
      </trkpt>
      <trkpt lat="44.87509" lon="-0.11705">
        <ele>5</ele>
        <time>2021-05-01T08:30:59.504Z</time>
      </trkpt>
      <trkpt lat="44.87509" lon="-0.11699">
        <ele>4</ele>
        <time>2021-05-01T08:31:02.504Z</time>
      </trkpt>
      <trkpt lat="44.87512" lon="-0.11688">
        <ele>5</ele>
        <time>2021-05-01T08:31:08.504Z</time>
      </trkpt>
      <trkpt lat="44.8751" lon="-0.11678">
        <ele>7</ele>
        <time>2021-05-01T08:31:13.504Z</time>
      </trkpt>
      <trkpt lat="44.87513" lon="-0.11672">
        <ele>8</ele>
        <time>2021-05-01T08:31:16.504Z</time>
      </trkpt>
      <trkpt lat="44.87517" lon="-0.11651">
        <ele>9</ele>
        <time>2021-05-01T08:31:27.504Z</time>
      </trkpt>
      <trkpt lat="44.87517" lon="-0.11641">
        <ele>9</ele>
        <time>2021-05-01T08:31:32.504Z</time>
      </trkpt>
      <trkpt lat="44.87521" lon="-0.1163">
        <ele>7</ele>
        <time>2021-05-01T08:31:37.504Z</time>
      </trkpt>
      <trkpt lat="44.87522" lon="-0.11623">
        <ele>6</ele>
        <time>2021-05-01T08:31:40.504Z</time>
      </trkpt>
      <trkpt lat="44.87525" lon="-0.11611">
        <ele>5</ele>
        <time>2021-05-01T08:31:45.504Z</time>
      </trkpt>
      <trkpt lat="44.87526" lon="-0.11603">
        <ele>4</ele>
        <time>2021-05-01T08:31:49.504Z</time>
      </trkpt>
      <trkpt lat="44.87528" lon="-0.11598">
        <ele>4</ele>
        <time>2021-05-01T08:31:51.504Z</time>
      </trkpt>
      <trkpt lat="44.87529" lon="-0.11596">
        <ele>3</ele>
        <time>2021-05-01T08:31:53.504Z</time>
      </trkpt>
      <trkpt lat="44.87527" lon="-0.11595">
        <ele>4</ele>
        <time>2021-05-01T08:31:54.505Z</time>
      </trkpt>
      <trkpt lat="44.87532" lon="-0.11572">
        <ele>4</ele>
        <time>2021-05-01T08:32:07.505Z</time>
      </trkpt>
      <trkpt lat="44.87536" lon="-0.11557">
        <ele>6</ele>
        <time>2021-05-01T08:32:14.505Z</time>
      </trkpt>
      <trkpt lat="44.87535" lon="-0.11552">
        <ele>7</ele>
        <time>2021-05-01T08:32:17.505Z</time>
      </trkpt>
      <trkpt lat="44.87537" lon="-0.11544">
        <ele>7</ele>
        <time>2021-05-01T08:32:21.505Z</time>
      </trkpt>
      <trkpt lat="44.87536" lon="-0.11542">
        <ele>8</ele>
        <time>2021-05-01T08:32:22.505Z</time>
      </trkpt>
      <trkpt lat="44.87538" lon="-0.11531">
        <ele>8</ele>
        <time>2021-05-01T08:32:28.505Z</time>
      </trkpt>
      <trkpt lat="44.8754" lon="-0.11527">
        <ele>8</ele>
        <time>2021-05-01T08:32:30.505Z</time>
      </trkpt>
      <trkpt lat="44.87544" lon="-0.11508">
        <ele>12</ele>
        <time>2021-05-01T08:32:41.505Z</time>
      </trkpt>
      <trkpt lat="44.87547" lon="-0.11503">
        <ele>12</ele>
        <time>2021-05-01T08:32:43.504Z</time>
      </trkpt>
      <trkpt lat="44.8755" lon="-0.11488">
        <ele>11</ele>
        <time>2021-05-01T08:32:51.505Z</time>
      </trkpt>
      <trkpt lat="44.87554" lon="-0.11485">
        <ele>9</ele>
        <time>2021-05-01T08:32:56.504Z</time>
      </trkpt>
      <trkpt lat="44.87554" lon="-0.1148">
        <ele>10</ele>
        <time>2021-05-01T08:32:59.505Z</time>
      </trkpt>
      <trkpt lat="44.87555" lon="-0.11477">
        <ele>10</ele>
        <time>2021-05-01T08:33:01.505Z</time>
      </trkpt>
      <trkpt lat="44.87557" lon="-0.11465">
        <ele>12</ele>
        <time>2021-05-01T08:33:08.505Z</time>
      </trkpt>
      <trkpt lat="44.87559" lon="-0.11459">
        <ele>12</ele>
        <time>2021-05-01T08:33:11.505Z</time>
      </trkpt>
      <trkpt lat="44.8756" lon="-0.11446">
        <ele>11</ele>
        <time>2021-05-01T08:33:18.505Z</time>
      </trkpt>
      <trkpt lat="44.87563" lon="-0.11432">
        <ele>9</ele>
        <time>2021-05-01T08:33:26.504Z</time>
      </trkpt>
      <trkpt lat="44.87564" lon="-0.11423">
        <ele>9</ele>
        <time>2021-05-01T08:33:30.504Z</time>
      </trkpt>
      <trkpt lat="44.87568" lon="-0.11406">
        <ele>8</ele>
        <time>2021-05-01T08:33:38.505Z</time>
      </trkpt>
      <trkpt lat="44.87572" lon="-0.11396">
        <ele>7</ele>
        <time>2021-05-01T08:33:43.504Z</time>
      </trkpt>
      <trkpt lat="44.87572" lon="-0.11392">
        <ele>7</ele>
        <time>2021-05-01T08:33:45.505Z</time>
      </trkpt>
      <trkpt lat="44.87581" lon="-0.1138">
        <ele>7</ele>
        <time>2021-05-01T08:33:53.505Z</time>
      </trkpt>
      <trkpt lat="44.87586" lon="-0.11375">
        <ele>6</ele>
        <time>2021-05-01T08:33:57.504Z</time>
      </trkpt>
      <trkpt lat="44.87588" lon="-0.11369">
        <ele>7</ele>
        <time>2021-05-01T08:34:01.505Z</time>
      </trkpt>
      <trkpt lat="44.87587" lon="-0.11362">
        <ele>7</ele>
        <time>2021-05-01T08:34:05.504Z</time>
      </trkpt>
      <trkpt lat="44.87588" lon="-0.11357">
        <ele>6</ele>
        <time>2021-05-01T08:34:07.505Z</time>
      </trkpt>
      <trkpt lat="44.8759" lon="-0.1135">
        <ele>5</ele>
        <time>2021-05-01T08:34:10.505Z</time>
      </trkpt>
      <trkpt lat="44.87598" lon="-0.11324">
        <ele>6</ele>
        <time>2021-05-01T08:34:24.505Z</time>
      </trkpt>
      <trkpt lat="44.87604" lon="-0.11309">
        <ele>7</ele>
        <time>2021-05-01T08:34:31.505Z</time>
      </trkpt>
      <trkpt lat="44.87606" lon="-0.113">
        <ele>8</ele>
        <time>2021-05-01T08:34:35.505Z</time>
      </trkpt>
      <trkpt lat="44.87619" lon="-0.11258">
        <ele>8</ele>
        <time>2021-05-01T08:34:58.504Z</time>
      </trkpt>
      <trkpt lat="44.87626" lon="-0.11247">
        <ele>10</ele>
        <time>2021-05-01T08:35:06.505Z</time>
      </trkpt>
      <trkpt lat="44.87631" lon="-0.11243">
        <ele>9</ele>
        <time>2021-05-01T08:35:11.505Z</time>
      </trkpt>
      <trkpt lat="44.87641" lon="-0.11238">
        <ele>11</ele>
        <time>2021-05-01T08:35:20.504Z</time>
      </trkpt>
      <trkpt lat="44.87641" lon="-0.11237">
        <ele>13</ele>
        <time>2021-05-01T08:35:24.504Z</time>
      </trkpt>
      <trkpt lat="44.87643" lon="-0.11238">
        <ele>13</ele>
        <time>2021-05-01T08:35:27.504Z</time>
      </trkpt>
      <trkpt lat="44.87665" lon="-0.1123">
        <ele>13</ele>
        <time>2021-05-01T08:35:43.505Z</time>
      </trkpt>
      <trkpt lat="44.87673" lon="-0.11226">
        <ele>14</ele>
        <time>2021-05-01T08:35:50.504Z</time>
      </trkpt>
      <trkpt lat="44.87678" lon="-0.11225">
        <ele>15</ele>
        <time>2021-05-01T08:35:54.505Z</time>
      </trkpt>
      <trkpt lat="44.8772" lon="-0.11205">
        <ele>14</ele>
        <time>2021-05-01T08:36:24.505Z</time>
      </trkpt>
      <trkpt lat="44.87735" lon="-0.112">
        <ele>15</ele>
        <time>2021-05-01T08:36:35.505Z</time>
      </trkpt>
      <trkpt lat="44.87743" lon="-0.11189">
        <ele>14</ele>
        <time>2021-05-01T08:36:44.505Z</time>
      </trkpt>
      <trkpt lat="44.87757" lon="-0.11187">
        <ele>14</ele>
        <time>2021-05-01T08:36:54.505Z</time>
      </trkpt>
      <trkpt lat="44.87766" lon="-0.11185">
        <ele>14</ele>
        <time>2021-05-01T08:37:00.504Z</time>
      </trkpt>
      <trkpt lat="44.87767" lon="-0.11183">
        <ele>14</ele>
        <time>2021-05-01T08:37:02.505Z</time>
      </trkpt>
      <trkpt lat="44.87784" lon="-0.11181">
        <ele>17</ele>
        <time>2021-05-01T08:37:14.504Z</time>
      </trkpt>
      <trkpt lat="44.87789" lon="-0.11179">
        <ele>17</ele>
        <time>2021-05-01T08:37:18.505Z</time>
      </trkpt>
      <trkpt lat="44.87799" lon="-0.11178">
        <ele>17</ele>
        <time>2021-05-01T08:37:25.505Z</time>
      </trkpt>
      <trkpt lat="44.87813" lon="-0.11175">
        <ele>21</ele>
        <time>2021-05-01T08:37:35.504Z</time>
      </trkpt>
      <trkpt lat="44.87821" lon="-0.11175">
        <ele>23</ele>
        <time>2021-05-01T08:37:40.505Z</time>
      </trkpt>
      <trkpt lat="44.87832" lon="-0.11171">
        <ele>22</ele>
        <time>2021-05-01T08:37:49.504Z</time>
      </trkpt>
      <trkpt lat="44.87856" lon="-0.11167">
        <ele>23</ele>
        <time>2021-05-01T08:38:09.505Z</time>
      </trkpt>
      <trkpt lat="44.87867" lon="-0.11161">
        <ele>23</ele>
        <time>2021-05-01T08:38:17.505Z</time>
      </trkpt>
      <trkpt lat="44.8787" lon="-0.11161">
        <ele>24</ele>
        <time>2021-05-01T08:38:19.505Z</time>
      </trkpt>
      <trkpt lat="44.87873" lon="-0.11157">
        <ele>25</ele>
        <time>2021-05-01T08:38:23.505Z</time>
      </trkpt>
      <trkpt lat="44.87886" lon="-0.11152">
        <ele>26</ele>
        <time>2021-05-01T08:38:36.505Z</time>
      </trkpt>
      <trkpt lat="44.87888" lon="-0.11148">
        <ele>25</ele>
        <time>2021-05-01T08:38:41.505Z</time>
      </trkpt>
      <trkpt lat="44.87891" lon="-0.11147">
        <ele>25</ele>
        <time>2021-05-01T08:38:44.504Z</time>
      </trkpt>
      <trkpt lat="44.87894" lon="-0.11144">
        <ele>25</ele>
        <time>2021-05-01T08:38:48.505Z</time>
      </trkpt>
      <trkpt lat="44.87908" lon="-0.1114">
        <ele>24</ele>
        <time>2021-05-01T08:38:57.504Z</time>
      </trkpt>
      <trkpt lat="44.87915" lon="-0.11141">
        <ele>25</ele>
        <time>2021-05-01T08:39:03.504Z</time>
      </trkpt>
      <trkpt lat="44.87927" lon="-0.11138">
        <ele>23</ele>
        <time>2021-05-01T08:39:10.504Z</time>
      </trkpt>
      <trkpt lat="44.87937" lon="-0.11138">
        <ele>25</ele>
        <time>2021-05-01T08:39:17.504Z</time>
      </trkpt>
      <trkpt lat="44.87963" lon="-0.1113">
        <ele>30</ele>
        <time>2021-05-01T08:39:38.505Z</time>
      </trkpt>
      <trkpt lat="44.87966" lon="-0.11131">
        <ele>30</ele>
        <time>2021-05-01T08:39:39.505Z</time>
      </trkpt>
      <trkpt lat="44.87971" lon="-0.1113">
        <ele>29</ele>
        <time>2021-05-01T08:39:42.505Z</time>
      </trkpt>
      <trkpt lat="44.87976" lon="-0.11131">
        <ele>28</ele>
        <time>2021-05-01T08:39:45.505Z</time>
      </trkpt>
      <trkpt lat="44.87977" lon="-0.11133">
        <ele>28</ele>
        <time>2021-05-01T08:39:47.505Z</time>
      </trkpt>
      <trkpt lat="44.87991" lon="-0.11128">
        <ele>32</ele>
        <time>2021-05-01T08:39:56.505Z</time>
      </trkpt>
      <trkpt lat="44.87994" lon="-0.11126">
        <ele>32</ele>
        <time>2021-05-01T08:39:59.505Z</time>
      </trkpt>
      <trkpt lat="44.8801" lon="-0.11122">
        <ele>38</ele>
        <time>2021-05-01T08:40:12.505Z</time>
      </trkpt>
      <trkpt lat="44.88021" lon="-0.11115">
        <ele>40</ele>
        <time>2021-05-01T08:40:21.505Z</time>
      </trkpt>
      <trkpt lat="44.88027" lon="-0.11113">
        <ele>41</ele>
        <time>2021-05-01T08:40:26.505Z</time>
      </trkpt>
      <trkpt lat="44.88033" lon="-0.11115">
        <ele>40</ele>
        <time>2021-05-01T08:40:31.504Z</time>
      </trkpt>
      <trkpt lat="44.88043" lon="-0.11113">
        <ele>38</ele>
        <time>2021-05-01T08:40:38.504Z</time>
      </trkpt>
      <trkpt lat="44.88048" lon="-0.11109">
        <ele>39</ele>
        <time>2021-05-01T08:40:42.505Z</time>
      </trkpt>
      <trkpt lat="44.88052" lon="-0.11105">
        <ele>37</ele>
        <time>2021-05-01T08:40:46.505Z</time>
      </trkpt>
      <trkpt lat="44.88066" lon="-0.11095">
        <ele>40</ele>
        <time>2021-05-01T08:40:58.504Z</time>
      </trkpt>
      <trkpt lat="44.88069" lon="-0.11091">
        <ele>40</ele>
        <time>2021-05-01T08:41:01.505Z</time>
      </trkpt>
      <trkpt lat="44.88076" lon="-0.11087">
        <ele>39</ele>
        <time>2021-05-01T08:41:06.505Z</time>
      </trkpt>
      <trkpt lat="44.88078" lon="-0.11084">
        <ele>40</ele>
        <time>2021-05-01T08:41:09.505Z</time>
      </trkpt>
      <trkpt lat="44.88086" lon="-0.11077">
        <ele>43</ele>
        <time>2021-05-01T08:41:14.505Z</time>
      </trkpt>
      <trkpt lat="44.88092" lon="-0.11075">
        <ele>45</ele>
        <time>2021-05-01T08:41:18.504Z</time>
      </trkpt>
      <trkpt lat="44.88101" lon="-0.11066">
        <ele>49</ele>
        <time>2021-05-01T08:41:25.505Z</time>
      </trkpt>
      <trkpt lat="44.88108" lon="-0.11056">
        <ele>50</ele>
        <time>2021-05-01T08:41:33.505Z</time>
      </trkpt>
      <trkpt lat="44.88113" lon="-0.11052">
        <ele>52</ele>
        <time>2021-05-01T08:41:37.505Z</time>
      </trkpt>
      <trkpt lat="44.8812" lon="-0.11044">
        <ele>52</ele>
        <time>2021-05-01T08:41:45.504Z</time>
      </trkpt>
      <trkpt lat="44.88123" lon="-0.11043">
        <ele>52</ele>
        <time>2021-05-01T08:41:49.504Z</time>
      </trkpt>
      <trkpt lat="44.88129" lon="-0.11038">
        <ele>54</ele>
        <time>2021-05-01T08:41:55.505Z</time>
      </trkpt>
      <trkpt lat="44.88156" lon="-0.11025">
        <ele>54</ele>
        <time>2021-05-01T08:42:21.505Z</time>
      </trkpt>
      <trkpt lat="44.88158" lon="-0.11026">
        <ele>55</ele>
        <time>2021-05-01T08:42:23.505Z</time>
      </trkpt>
      <trkpt lat="44.88166" lon="-0.11022">
        <ele>58</ele>
        <time>2021-05-01T08:42:31.505Z</time>
      </trkpt>
      <trkpt lat="44.8818" lon="-0.11021">
        <ele>62</ele>
        <time>2021-05-01T08:42:47.504Z</time>
      </trkpt>
      <trkpt lat="44.88188" lon="-0.11022">
        <ele>64</ele>
        <time>2021-05-01T08:42:58.504Z</time>
      </trkpt>
      <trkpt lat="44.88191" lon="-0.11021">
        <ele>65</ele>
        <time>2021-05-01T08:43:00.505Z</time>
      </trkpt>
      <trkpt lat="44.88195" lon="-0.11021">
        <ele>67</ele>
        <time>2021-05-01T08:43:05.504Z</time>
      </trkpt>
      <trkpt lat="44.88207" lon="-0.11017">
        <ele>68</ele>
        <time>2021-05-01T08:43:18.504Z</time>
      </trkpt>
      <trkpt lat="44.88217" lon="-0.11017">
        <ele>71</ele>
        <time>2021-05-01T08:43:27.504Z</time>
      </trkpt>
      <trkpt lat="44.88234" lon="-0.11008">
        <ele>74</ele>
        <time>2021-05-01T08:43:41.505Z</time>
      </trkpt>
      <trkpt lat="44.88241" lon="-0.11002">
        <ele>74</ele>
        <time>2021-05-01T08:43:50.504Z</time>
      </trkpt>
      <trkpt lat="44.88245" lon="-0.11002">
        <ele>74</ele>
        <time>2021-05-01T08:43:55.504Z</time>
      </trkpt>
      <trkpt lat="44.8825" lon="-0.10999">
        <ele>72</ele>
        <time>2021-05-01T08:44:00.505Z</time>
      </trkpt>
      <trkpt lat="44.88256" lon="-0.10999">
        <ele>71</ele>
        <time>2021-05-01T08:44:06.505Z</time>
      </trkpt>
      <trkpt lat="44.88263" lon="-0.10998">
        <ele>72</ele>
        <time>2021-05-01T08:44:12.505Z</time>
      </trkpt>
      <trkpt lat="44.88277" lon="-0.10991">
        <ele>75</ele>
        <time>2021-05-01T08:44:24.504Z</time>
      </trkpt>
      <trkpt lat="44.8828" lon="-0.10988">
        <ele>74</ele>
        <time>2021-05-01T08:44:27.505Z</time>
      </trkpt>
      <trkpt lat="44.88293" lon="-0.10984">
        <ele>75</ele>
        <time>2021-05-01T08:44:40.505Z</time>
      </trkpt>
      <trkpt lat="44.88299" lon="-0.10987">
        <ele>75</ele>
        <time>2021-05-01T08:44:48.505Z</time>
      </trkpt>
      <trkpt lat="44.88298" lon="-0.10989">
        <ele>81</ele>
        <time>2021-05-01T08:44:49.506Z</time>
      </trkpt>
      <trkpt lat="44.88305" lon="-0.10974">
        <ele>80</ele>
        <time>2021-05-01T08:44:57.505Z</time>
      </trkpt>
      <trkpt lat="44.88311" lon="-0.10955">
        <ele>77</ele>
        <time>2021-05-01T08:45:06.506Z</time>
      </trkpt>
      <trkpt lat="44.8831" lon="-0.10948">
        <ele>75</ele>
        <time>2021-05-01T08:45:10.505Z</time>
      </trkpt>
      <trkpt lat="44.88313" lon="-0.10942">
        <ele>74</ele>
        <time>2021-05-01T08:45:13.505Z</time>
      </trkpt>
      <trkpt lat="44.88313" lon="-0.10928">
        <ele>74</ele>
        <time>2021-05-01T08:45:21.506Z</time>
      </trkpt>
      <trkpt lat="44.88315" lon="-0.10919">
        <ele>74</ele>
        <time>2021-05-01T08:45:26.506Z</time>
      </trkpt>
      <trkpt lat="44.88315" lon="-0.10917">
        <ele>75</ele>
        <time>2021-05-01T08:45:27.506Z</time>
      </trkpt>
      <trkpt lat="44.88317" lon="-0.10911">
        <ele>75</ele>
        <time>2021-05-01T08:45:31.506Z</time>
      </trkpt>
      <trkpt lat="44.88317" lon="-0.10902">
        <ele>74</ele>
        <time>2021-05-01T08:45:36.506Z</time>
      </trkpt>
      <trkpt lat="44.88321" lon="-0.10888">
        <ele>77</ele>
        <time>2021-05-01T08:45:47.506Z</time>
      </trkpt>
      <trkpt lat="44.88342" lon="-0.10867">
        <ele>79</ele>
        <time>2021-05-01T08:45:50.506Z</time>
      </trkpt>
      <trkpt lat="44.88357" lon="-0.1087">
        <ele>78</ele>
        <time>2021-05-01T08:46:01.506Z</time>
      </trkpt>
      <trkpt lat="44.88363" lon="-0.10872">
        <ele>80</ele>
        <time>2021-05-01T08:46:05.505Z</time>
      </trkpt>
      <trkpt lat="44.88377" lon="-0.10874">
        <ele>79</ele>
        <time>2021-05-01T08:46:14.505Z</time>
      </trkpt>
      <trkpt lat="44.88389" lon="-0.10874">
        <ele>77</ele>
        <time>2021-05-01T08:46:22.506Z</time>
      </trkpt>
      <trkpt lat="44.88401" lon="-0.10878">
        <ele>77</ele>
        <time>2021-05-01T08:46:30.505Z</time>
      </trkpt>
      <trkpt lat="44.88414" lon="-0.10876">
        <ele>77</ele>
        <time>2021-05-01T08:46:37.505Z</time>
      </trkpt>
      <trkpt lat="44.88421" lon="-0.10878">
        <ele>76</ele>
        <time>2021-05-01T08:46:41.506Z</time>
      </trkpt>
      <trkpt lat="44.88425" lon="-0.10878">
        <ele>75</ele>
        <time>2021-05-01T08:46:44.505Z</time>
      </trkpt>
      <trkpt lat="44.88448" lon="-0.10883">
        <ele>77</ele>
        <time>2021-05-01T08:47:00.506Z</time>
      </trkpt>
      <trkpt lat="44.88459" lon="-0.10884">
        <ele>78</ele>
        <time>2021-05-01T08:47:08.506Z</time>
      </trkpt>
      <trkpt lat="44.88465" lon="-0.10883">
        <ele>80</ele>
        <time>2021-05-01T08:47:12.506Z</time>
      </trkpt>
      <trkpt lat="44.88473" lon="-0.1088">
        <ele>82</ele>
        <time>2021-05-01T08:47:18.505Z</time>
      </trkpt>
      <trkpt lat="44.88489" lon="-0.1087">
        <ele>81</ele>
        <time>2021-05-01T08:47:29.506Z</time>
      </trkpt>
      <trkpt lat="44.88494" lon="-0.10866">
        <ele>79</ele>
        <time>2021-05-01T08:47:32.505Z</time>
      </trkpt>
      <trkpt lat="44.88494" lon="-0.10864">
        <ele>79</ele>
        <time>2021-05-01T08:47:33.506Z</time>
      </trkpt>
      <trkpt lat="44.88499" lon="-0.10858">
        <ele>80</ele>
        <time>2021-05-01T08:47:39.505Z</time>
      </trkpt>
      <trkpt lat="44.88509" lon="-0.10852">
        <ele>78</ele>
        <time>2021-05-01T08:47:44.506Z</time>
      </trkpt>
      <trkpt lat="44.88515" lon="-0.10845">
        <ele>76</ele>
        <time>2021-05-01T08:47:49.506Z</time>
      </trkpt>
      <trkpt lat="44.88525" lon="-0.10833">
        <ele>80</ele>
        <time>2021-05-01T08:47:58.506Z</time>
      </trkpt>
      <trkpt lat="44.88531" lon="-0.1082">
        <ele>83</ele>
        <time>2021-05-01T08:48:05.506Z</time>
      </trkpt>
      <trkpt lat="44.88538" lon="-0.10813">
        <ele>83</ele>
        <time>2021-05-01T08:48:10.505Z</time>
      </trkpt>
      <trkpt lat="44.88548" lon="-0.10798">
        <ele>85</ele>
        <time>2021-05-01T08:48:19.506Z</time>
      </trkpt>
      <trkpt lat="44.88556" lon="-0.1079">
        <ele>84</ele>
        <time>2021-05-01T08:48:26.506Z</time>
      </trkpt>
      <trkpt lat="44.88567" lon="-0.10774">
        <ele>83</ele>
        <time>2021-05-01T08:48:37.506Z</time>
      </trkpt>
      <trkpt lat="44.88571" lon="-0.10764">
        <ele>82</ele>
        <time>2021-05-01T08:48:43.506Z</time>
      </trkpt>
      <trkpt lat="44.88586" lon="-0.10744">
        <ele>83</ele>
        <time>2021-05-01T08:48:56.506Z</time>
      </trkpt>
      <trkpt lat="44.88586" lon="-0.10742">
        <ele>83</ele>
        <time>2021-05-01T08:48:57.506Z</time>
      </trkpt>
      <trkpt lat="44.88588" lon="-0.10739">
        <ele>83</ele>
        <time>2021-05-01T08:48:59.506Z</time>
      </trkpt>
      <trkpt lat="44.88597" lon="-0.10729">
        <ele>80</ele>
        <time>2021-05-01T08:49:06.506Z</time>
      </trkpt>
      <trkpt lat="44.88605" lon="-0.10718">
        <ele>77</ele>
        <time>2021-05-01T08:49:14.505Z</time>
      </trkpt>
      <trkpt lat="44.88608" lon="-0.10712">
        <ele>78</ele>
        <time>2021-05-01T08:49:18.505Z</time>
      </trkpt>
      <trkpt lat="44.88614" lon="-0.10708">
        <ele>78</ele>
        <time>2021-05-01T08:49:22.506Z</time>
      </trkpt>
      <trkpt lat="44.88622" lon="-0.10698">
        <ele>78</ele>
        <time>2021-05-01T08:49:29.506Z</time>
      </trkpt>
      <trkpt lat="44.8866" lon="-0.10667">
        <ele>78</ele>
        <time>2021-05-01T08:49:58.506Z</time>
      </trkpt>
      <trkpt lat="44.88661" lon="-0.10662">
        <ele>78</ele>
        <time>2021-05-01T08:50:02.506Z</time>
      </trkpt>
      <trkpt lat="44.88649" lon="-0.10631">
        <ele>78</ele>
        <time>2021-05-01T08:50:21.506Z</time>
      </trkpt>
      <trkpt lat="44.88632" lon="-0.10596">
        <ele>79</ele>
        <time>2021-05-01T08:50:41.506Z</time>
      </trkpt>
      <trkpt lat="44.88624" lon="-0.10574">
        <ele>80</ele>
        <time>2021-05-01T08:50:53.505Z</time>
      </trkpt>
      <trkpt lat="44.88622" lon="-0.10565">
        <ele>81</ele>
        <time>2021-05-01T08:50:58.506Z</time>
      </trkpt>
      <trkpt lat="44.88618" lon="-0.10558">
        <ele>82</ele>
        <time>2021-05-01T08:51:01.506Z</time>
      </trkpt>
      <trkpt lat="44.88621" lon="-0.10539">
        <ele>83</ele>
        <time>2021-05-01T08:51:13.506Z</time>
      </trkpt>
      <trkpt lat="44.8862" lon="-0.10528">
        <ele>85</ele>
        <time>2021-05-01T08:51:18.506Z</time>
      </trkpt>
      <trkpt lat="44.88617" lon="-0.10523">
        <ele>86</ele>
        <time>2021-05-01T08:51:21.506Z</time>
      </trkpt>
      <trkpt lat="44.88617" lon="-0.10518">
        <ele>86</ele>
        <time>2021-05-01T08:51:23.506Z</time>
      </trkpt>
      <trkpt lat="44.88612" lon="-0.10506">
        <ele>87</ele>
        <time>2021-05-01T08:51:30.506Z</time>
      </trkpt>
      <trkpt lat="44.8861" lon="-0.10498">
        <ele>86</ele>
        <time>2021-05-01T08:51:34.506Z</time>
      </trkpt>
      <trkpt lat="44.88599" lon="-0.10473">
        <ele>81</ele>
        <time>2021-05-01T08:51:48.506Z</time>
      </trkpt>
      <trkpt lat="44.88596" lon="-0.10464">
        <ele>79</ele>
        <time>2021-05-01T08:51:53.506Z</time>
      </trkpt>
      <trkpt lat="44.88588" lon="-0.10446">
        <ele>77</ele>
        <time>2021-05-01T08:52:02.506Z</time>
      </trkpt>
      <trkpt lat="44.88581" lon="-0.10425">
        <ele>76</ele>
        <time>2021-05-01T08:52:13.506Z</time>
      </trkpt>
      <trkpt lat="44.88574" lon="-0.10393">
        <ele>80</ele>
        <time>2021-05-01T08:52:28.506Z</time>
      </trkpt>
      <trkpt lat="44.88569" lon="-0.10381">
        <ele>82</ele>
        <time>2021-05-01T08:52:34.506Z</time>
      </trkpt>
      <trkpt lat="44.88566" lon="-0.10369">
        <ele>82</ele>
        <time>2021-05-01T08:52:40.506Z</time>
      </trkpt>
      <trkpt lat="44.88559" lon="-0.10346">
        <ele>83</ele>
        <time>2021-05-01T08:52:51.505Z</time>
      </trkpt>
      <trkpt lat="44.88557" lon="-0.10331">
        <ele>82</ele>
        <time>2021-05-01T08:52:58.506Z</time>
      </trkpt>
      <trkpt lat="44.88551" lon="-0.10315">
        <ele>84</ele>
        <time>2021-05-01T08:53:06.505Z</time>
      </trkpt>
      <trkpt lat="44.88547" lon="-0.10309">
        <ele>84</ele>
        <time>2021-05-01T08:53:10.506Z</time>
      </trkpt>
      <trkpt lat="44.88536" lon="-0.10296">
        <ele>84</ele>
        <time>2021-05-01T08:53:19.505Z</time>
      </trkpt>
      <trkpt lat="44.88534" lon="-0.10294">
        <ele>84</ele>
        <time>2021-05-01T08:53:21.505Z</time>
      </trkpt>
      <trkpt lat="44.88532" lon="-0.10289">
        <ele>83</ele>
        <time>2021-05-01T08:53:24.505Z</time>
      </trkpt>
      <trkpt lat="44.88519" lon="-0.10261">
        <ele>87</ele>
        <time>2021-05-01T08:53:40.506Z</time>
      </trkpt>
      <trkpt lat="44.88515" lon="-0.10255">
        <ele>87</ele>
        <time>2021-05-01T08:53:44.506Z</time>
      </trkpt>
      <trkpt lat="44.88512" lon="-0.10253">
        <ele>87</ele>
        <time>2021-05-01T08:53:46.506Z</time>
      </trkpt>
      <trkpt lat="44.88506" lon="-0.10253">
        <ele>87</ele>
        <time>2021-05-01T08:53:50.506Z</time>
      </trkpt>
      <trkpt lat="44.88492" lon="-0.10256">
        <ele>85</ele>
        <time>2021-05-01T08:54:04.505Z</time>
      </trkpt>
      <trkpt lat="44.88489" lon="-0.10253">
        <ele>86</ele>
        <time>2021-05-01T08:54:10.505Z</time>
      </trkpt>
      <trkpt lat="44.88488" lon="-0.10243">
        <ele>85</ele>
        <time>2021-05-01T08:54:16.505Z</time>
      </trkpt>
      <trkpt lat="44.88485" lon="-0.10231">
        <ele>81</ele>
        <time>2021-05-01T08:54:22.505Z</time>
      </trkpt>
      <trkpt lat="44.88468" lon="-0.10202">
        <ele>81</ele>
        <time>2021-05-01T08:54:39.505Z</time>
      </trkpt>
      <trkpt lat="44.88457" lon="-0.10182">
        <ele>84</ele>
        <time>2021-05-01T08:54:51.506Z</time>
      </trkpt>
      <trkpt lat="44.88449" lon="-0.10163">
        <ele>83</ele>
        <time>2021-05-01T08:55:01.505Z</time>
      </trkpt>
      <trkpt lat="44.88445" lon="-0.10157">
        <ele>84</ele>
        <time>2021-05-01T08:55:05.506Z</time>
      </trkpt>
      <trkpt lat="44.8844" lon="-0.10141">
        <ele>85</ele>
        <time>2021-05-01T08:55:13.506Z</time>
      </trkpt>
      <trkpt lat="44.88434" lon="-0.1013">
        <ele>84</ele>
        <time>2021-05-01T08:55:20.506Z</time>
      </trkpt>
      <trkpt lat="44.8843" lon="-0.10116">
        <ele>82</ele>
        <time>2021-05-01T08:55:27.506Z</time>
      </trkpt>
      <trkpt lat="44.88425" lon="-0.10108">
        <ele>81</ele>
        <time>2021-05-01T08:55:32.505Z</time>
      </trkpt>
      <trkpt lat="44.88424" lon="-0.10103">
        <ele>80</ele>
        <time>2021-05-01T08:55:34.506Z</time>
      </trkpt>
      <trkpt lat="44.88411" lon="-0.10074">
        <ele>82</ele>
        <time>2021-05-01T08:55:51.505Z</time>
      </trkpt>
      <trkpt lat="44.88409" lon="-0.10067">
        <ele>82</ele>
        <time>2021-05-01T08:55:55.505Z</time>
      </trkpt>
      <trkpt lat="44.88391" lon="-0.10029">
        <ele>83</ele>
        <time>2021-05-01T08:56:16.506Z</time>
      </trkpt>
      <trkpt lat="44.88381" lon="-0.10002">
        <ele>83</ele>
        <time>2021-05-01T08:56:31.505Z</time>
      </trkpt>
      <trkpt lat="44.88378" lon="-0.09997">
        <ele>83</ele>
        <time>2021-05-01T08:56:36.506Z</time>
      </trkpt>
      <trkpt lat="44.88377" lon="-0.09999">
        <ele>82</ele>
        <time>2021-05-01T08:56:40.506Z</time>
      </trkpt>
      <trkpt lat="44.88378" lon="-0.10001">
        <ele>82</ele>
        <time>2021-05-01T08:56:45.506Z</time>
      </trkpt>
      <trkpt lat="44.88377" lon="-0.09993">
        <ele>83</ele>
        <time>2021-05-01T08:56:50.506Z</time>
      </trkpt>
      <trkpt lat="44.88369" lon="-0.09976">
        <ele>84</ele>
        <time>2021-05-01T08:56:58.505Z</time>
      </trkpt>
      <trkpt lat="44.88352" lon="-0.09937">
        <ele>86</ele>
        <time>2021-05-01T08:57:19.506Z</time>
      </trkpt>
      <trkpt lat="44.88346" lon="-0.09924">
        <ele>88</ele>
        <time>2021-05-01T08:57:26.506Z</time>
      </trkpt>
      <trkpt lat="44.88339" lon="-0.09905">
        <ele>90</ele>
        <time>2021-05-01T08:57:36.506Z</time>
      </trkpt>
      <trkpt lat="44.88326" lon="-0.09882">
        <ele>83</ele>
        <time>2021-05-01T08:57:50.505Z</time>
      </trkpt>
      <trkpt lat="44.88322" lon="-0.09869">
        <ele>78</ele>
        <time>2021-05-01T08:58:04.506Z</time>
      </trkpt>
      <trkpt lat="44.88321" lon="-0.09869">
        <ele>78</ele>
        <time>2021-05-01T08:58:06.506Z</time>
      </trkpt>
      <trkpt lat="44.8832" lon="-0.09865">
        <ele>78</ele>
        <time>2021-05-01T08:58:09.506Z</time>
      </trkpt>
      <trkpt lat="44.88318" lon="-0.09863">
        <ele>79</ele>
        <time>2021-05-01T08:58:13.506Z</time>
      </trkpt>
      <trkpt lat="44.88318" lon="-0.0986">
        <ele>79</ele>
        <time>2021-05-01T08:58:17.507Z</time>
      </trkpt>
      <trkpt lat="44.88316" lon="-0.09858">
        <ele>80</ele>
        <time>2021-05-01T08:58:22.506Z</time>
      </trkpt>
      <trkpt lat="44.88317" lon="-0.09857">
        <ele>81</ele>
        <time>2021-05-01T08:58:24.506Z</time>
      </trkpt>
      <trkpt lat="44.88315" lon="-0.09858">
        <ele>82</ele>
        <time>2021-05-01T08:58:26.509Z</time>
      </trkpt>
      <trkpt lat="44.8831" lon="-0.09855">
        <ele>84</ele>
        <time>2021-05-01T08:58:35.509Z</time>
      </trkpt>
      <trkpt lat="44.88311" lon="-0.09854">
        <ele>84</ele>
        <time>2021-05-01T08:58:39.509Z</time>
      </trkpt>
      <trkpt lat="44.8831" lon="-0.09854">
        <ele>83</ele>
        <time>2021-05-01T08:58:41.509Z</time>
      </trkpt>
      <trkpt lat="44.88299" lon="-0.0984">
        <ele>83</ele>
        <time>2021-05-01T08:58:52.509Z</time>
      </trkpt>
      <trkpt lat="44.88294" lon="-0.0983">
        <ele>84</ele>
        <time>2021-05-01T08:58:58.509Z</time>
      </trkpt>
      <trkpt lat="44.88293" lon="-0.09818">
        <ele>78</ele>
        <time>2021-05-01T08:59:05.509Z</time>
      </trkpt>
      <trkpt lat="44.88296" lon="-0.09812">
        <ele>77</ele>
        <time>2021-05-01T08:59:09.509Z</time>
      </trkpt>
      <trkpt lat="44.88296" lon="-0.09802">
        <ele>77</ele>
        <time>2021-05-01T08:59:14.509Z</time>
      </trkpt>
      <trkpt lat="44.88297" lon="-0.098">
        <ele>76</ele>
        <time>2021-05-01T08:59:16.509Z</time>
      </trkpt>
      <trkpt lat="44.88298" lon="-0.09795">
        <ele>74</ele>
        <time>2021-05-01T08:59:19.509Z</time>
      </trkpt>
      <trkpt lat="44.883" lon="-0.09786">
        <ele>71</ele>
        <time>2021-05-01T08:59:23.509Z</time>
      </trkpt>
      <trkpt lat="44.88299" lon="-0.09769">
        <ele>69</ele>
        <time>2021-05-01T08:59:30.509Z</time>
      </trkpt>
      <trkpt lat="44.88294" lon="-0.09755">
        <ele>68</ele>
        <time>2021-05-01T08:59:37.509Z</time>
      </trkpt>
      <trkpt lat="44.88287" lon="-0.09745">
        <ele>68</ele>
        <time>2021-05-01T08:59:43.509Z</time>
      </trkpt>
      <trkpt lat="44.88277" lon="-0.09737">
        <ele>63</ele>
        <time>2021-05-01T08:59:52.509Z</time>
      </trkpt>
      <trkpt lat="44.88255" lon="-0.09708">
        <ele>62</ele>
        <time>2021-05-01T09:00:13.508Z</time>
      </trkpt>
      <trkpt lat="44.8824" lon="-0.097">
        <ele>60</ele>
        <time>2021-05-01T09:00:23.509Z</time>
      </trkpt>
      <trkpt lat="44.88226" lon="-0.09687">
        <ele>58</ele>
        <time>2021-05-01T09:00:33.509Z</time>
      </trkpt>
      <trkpt lat="44.88221" lon="-0.09681">
        <ele>56</ele>
        <time>2021-05-01T09:00:37.509Z</time>
      </trkpt>
      <trkpt lat="44.88214" lon="-0.09675">
        <ele>53</ele>
        <time>2021-05-01T09:00:42.509Z</time>
      </trkpt>
      <trkpt lat="44.8821" lon="-0.09669">
        <ele>53</ele>
        <time>2021-05-01T09:00:45.509Z</time>
      </trkpt>
      <trkpt lat="44.88199" lon="-0.09658">
        <ele>46</ele>
        <time>2021-05-01T09:00:55.509Z</time>
      </trkpt>
      <trkpt lat="44.88195" lon="-0.09652">
        <ele>46</ele>
        <time>2021-05-01T09:01:00.509Z</time>
      </trkpt>
      <trkpt lat="44.88192" lon="-0.0965">
        <ele>44</ele>
        <time>2021-05-01T09:01:05.509Z</time>
      </trkpt>
      <trkpt lat="44.88194" lon="-0.09649">
        <ele>42</ele>
        <time>2021-05-01T09:01:08.509Z</time>
      </trkpt>
      <trkpt lat="44.88188" lon="-0.09645">
        <ele>43</ele>
        <time>2021-05-01T09:01:15.509Z</time>
      </trkpt>
      <trkpt lat="44.88187" lon="-0.09643">
        <ele>43</ele>
        <time>2021-05-01T09:01:18.508Z</time>
      </trkpt>
      <trkpt lat="44.88185" lon="-0.09641">
        <ele>39</ele>
        <time>2021-05-01T09:01:24.508Z</time>
      </trkpt>
      <trkpt lat="44.88181" lon="-0.09645">
        <ele>38</ele>
        <time>2021-05-01T09:01:30.509Z</time>
      </trkpt>
      <trkpt lat="44.88173" lon="-0.09641">
        <ele>39</ele>
        <time>2021-05-01T09:01:37.510Z</time>
      </trkpt>
      <trkpt lat="44.88164" lon="-0.09632">
        <ele>40</ele>
        <time>2021-05-01T09:01:43.509Z</time>
      </trkpt>
      <trkpt lat="44.8815" lon="-0.09614">
        <ele>41</ele>
        <time>2021-05-01T09:01:53.509Z</time>
      </trkpt>
      <trkpt lat="44.88133" lon="-0.09595">
        <ele>39</ele>
        <time>2021-05-01T09:02:08.510Z</time>
      </trkpt>
      <trkpt lat="44.88128" lon="-0.09587">
        <ele>40</ele>
        <time>2021-05-01T09:02:13.509Z</time>
      </trkpt>
      <trkpt lat="44.88116" lon="-0.09573">
        <ele>34</ele>
        <time>2021-05-01T09:02:25.510Z</time>
      </trkpt>
      <trkpt lat="44.88111" lon="-0.09569">
        <ele>31</ele>
        <time>2021-05-01T09:02:29.510Z</time>
      </trkpt>
      <trkpt lat="44.88098" lon="-0.0955">
        <ele>27</ele>
        <time>2021-05-01T09:02:42.510Z</time>
      </trkpt>
      <trkpt lat="44.88084" lon="-0.09521">
        <ele>29</ele>
        <time>2021-05-01T09:02:58.509Z</time>
      </trkpt>
      <trkpt lat="44.88066" lon="-0.09493">
        <ele>29</ele>
        <time>2021-05-01T09:03:16.510Z</time>
      </trkpt>
      <trkpt lat="44.88051" lon="-0.09473">
        <ele>29</ele>
        <time>2021-05-01T09:03:30.509Z</time>
      </trkpt>
      <trkpt lat="44.88036" lon="-0.09449">
        <ele>27</ele>
        <time>2021-05-01T09:03:44.509Z</time>
      </trkpt>
      <trkpt lat="44.88023" lon="-0.09422">
        <ele>22</ele>
        <time>2021-05-01T09:04:00.510Z</time>
      </trkpt>
      <trkpt lat="44.88016" lon="-0.09412">
        <ele>23</ele>
        <time>2021-05-01T09:04:07.509Z</time>
      </trkpt>
      <trkpt lat="44.88011" lon="-0.09407">
        <ele>23</ele>
        <time>2021-05-01T09:04:12.509Z</time>
      </trkpt>
      <trkpt lat="44.88007" lon="-0.09409">
        <ele>24</ele>
        <time>2021-05-01T09:04:17.509Z</time>
      </trkpt>
      <trkpt lat="44.87999" lon="-0.09421">
        <ele>28</ele>
        <time>2021-05-01T09:04:27.509Z</time>
      </trkpt>
      <trkpt lat="44.87988" lon="-0.09446">
        <ele>18</ele>
        <time>2021-05-01T09:04:44.510Z</time>
      </trkpt>
      <trkpt lat="44.87988" lon="-0.09449">
        <ele>17</ele>
        <time>2021-05-01T09:04:46.510Z</time>
      </trkpt>
      <trkpt lat="44.87984" lon="-0.09458">
        <ele>16</ele>
        <time>2021-05-01T09:04:52.510Z</time>
      </trkpt>
      <trkpt lat="44.87976" lon="-0.09469">
        <ele>19</ele>
        <time>2021-05-01T09:05:00.510Z</time>
      </trkpt>
      <trkpt lat="44.87954" lon="-0.09521">
        <ele>14</ele>
        <time>2021-05-01T09:05:35.509Z</time>
      </trkpt>
      <trkpt lat="44.87953" lon="-0.09529">
        <ele>15</ele>
        <time>2021-05-01T09:05:40.509Z</time>
      </trkpt>
      <trkpt lat="44.8795" lon="-0.09536">
        <ele>18</ele>
        <time>2021-05-01T09:05:44.509Z</time>
      </trkpt>
      <trkpt lat="44.87949" lon="-0.09545">
        <ele>21</ele>
        <time>2021-05-01T09:05:50.509Z</time>
      </trkpt>
      <trkpt lat="44.87953" lon="-0.0956">
        <ele>19</ele>
        <time>2021-05-01T09:05:59.509Z</time>
      </trkpt>
      <trkpt lat="44.87957" lon="-0.09578">
        <ele>16</ele>
        <time>2021-05-01T09:06:15.509Z</time>
      </trkpt>
      <trkpt lat="44.87956" lon="-0.09592">
        <ele>17</ele>
        <time>2021-05-01T09:06:23.509Z</time>
      </trkpt>
      <trkpt lat="44.87954" lon="-0.09601">
        <ele>18</ele>
        <time>2021-05-01T09:06:27.510Z</time>
      </trkpt>
      <trkpt lat="44.87953" lon="-0.09614">
        <ele>16</ele>
        <time>2021-05-01T09:06:34.509Z</time>
      </trkpt>
      <trkpt lat="44.87955" lon="-0.09629">
        <ele>16</ele>
        <time>2021-05-01T09:06:42.509Z</time>
      </trkpt>
      <trkpt lat="44.87953" lon="-0.09637">
        <ele>15</ele>
        <time>2021-05-01T09:06:45.510Z</time>
      </trkpt>
      <trkpt lat="44.87952" lon="-0.09655">
        <ele>14</ele>
        <time>2021-05-01T09:06:53.510Z</time>
      </trkpt>
      <trkpt lat="44.87953" lon="-0.09665">
        <ele>15</ele>
        <time>2021-05-01T09:06:57.509Z</time>
      </trkpt>
      <trkpt lat="44.87955" lon="-0.09668">
        <ele>15</ele>
        <time>2021-05-01T09:06:58.509Z</time>
      </trkpt>
      <trkpt lat="44.87955" lon="-0.09674">
        <ele>15</ele>
        <time>2021-05-01T09:07:01.509Z</time>
      </trkpt>
      <trkpt lat="44.87954" lon="-0.09679">
        <ele>14</ele>
        <time>2021-05-01T09:07:05.510Z</time>
      </trkpt>
      <trkpt lat="44.87955" lon="-0.0969">
        <ele>13</ele>
        <time>2021-05-01T09:07:11.509Z</time>
      </trkpt>
      <trkpt lat="44.87954" lon="-0.097">
        <ele>14</ele>
        <time>2021-05-01T09:07:16.509Z</time>
      </trkpt>
      <trkpt lat="44.87954" lon="-0.09705">
        <ele>14</ele>
        <time>2021-05-01T09:07:19.510Z</time>
      </trkpt>
      <trkpt lat="44.87952" lon="-0.09711">
        <ele>14</ele>
        <time>2021-05-01T09:07:22.509Z</time>
      </trkpt>
      <trkpt lat="44.87953" lon="-0.09718">
        <ele>14</ele>
        <time>2021-05-01T09:07:25.509Z</time>
      </trkpt>
      <trkpt lat="44.87952" lon="-0.09722">
        <ele>13</ele>
        <time>2021-05-01T09:07:27.510Z</time>
      </trkpt>
      <trkpt lat="44.87951" lon="-0.09734">
        <ele>14</ele>
        <time>2021-05-01T09:07:33.510Z</time>
      </trkpt>
      <trkpt lat="44.87949" lon="-0.09738">
        <ele>15</ele>
        <time>2021-05-01T09:07:36.509Z</time>
      </trkpt>
      <trkpt lat="44.87949" lon="-0.09746">
        <ele>14</ele>
        <time>2021-05-01T09:07:41.509Z</time>
      </trkpt>
      <trkpt lat="44.87951" lon="-0.09755">
        <ele>14</ele>
        <time>2021-05-01T09:07:46.510Z</time>
      </trkpt>
      <trkpt lat="44.87954" lon="-0.09764">
        <ele>15</ele>
        <time>2021-05-01T09:07:51.509Z</time>
      </trkpt>
      <trkpt lat="44.8796" lon="-0.09786">
        <ele>16</ele>
        <time>2021-05-01T09:08:03.509Z</time>
      </trkpt>
      <trkpt lat="44.8796" lon="-0.09791">
        <ele>16</ele>
        <time>2021-05-01T09:08:05.510Z</time>
      </trkpt>
      <trkpt lat="44.87966" lon="-0.09803">
        <ele>17</ele>
        <time>2021-05-01T09:08:12.509Z</time>
      </trkpt>
      <trkpt lat="44.87968" lon="-0.09812">
        <ele>17</ele>
        <time>2021-05-01T09:08:17.509Z</time>
      </trkpt>
      <trkpt lat="44.87971" lon="-0.0982">
        <ele>19</ele>
        <time>2021-05-01T09:08:21.509Z</time>
      </trkpt>
      <trkpt lat="44.87975" lon="-0.09854">
        <ele>20</ele>
        <time>2021-05-01T09:08:38.509Z</time>
      </trkpt>
      <trkpt lat="44.87979" lon="-0.09884">
        <ele>17</ele>
        <time>2021-05-01T09:08:52.510Z</time>
      </trkpt>
      <trkpt lat="44.87979" lon="-0.09887">
        <ele>17</ele>
        <time>2021-05-01T09:08:53.509Z</time>
      </trkpt>
      <trkpt lat="44.87983" lon="-0.09899">
        <ele>17</ele>
        <time>2021-05-01T09:08:59.509Z</time>
      </trkpt>
      <trkpt lat="44.87984" lon="-0.09908">
        <ele>16</ele>
        <time>2021-05-01T09:09:04.509Z</time>
      </trkpt>
      <trkpt lat="44.87983" lon="-0.09914">
        <ele>16</ele>
        <time>2021-05-01T09:09:07.510Z</time>
      </trkpt>
      <trkpt lat="44.87985" lon="-0.09935">
        <ele>16</ele>
        <time>2021-05-01T09:09:17.509Z</time>
      </trkpt>
      <trkpt lat="44.87987" lon="-0.09951">
        <ele>16</ele>
        <time>2021-05-01T09:09:25.509Z</time>
      </trkpt>
      <trkpt lat="44.87986" lon="-0.09957">
        <ele>15</ele>
        <time>2021-05-01T09:09:29.509Z</time>
      </trkpt>
      <trkpt lat="44.87986" lon="-0.09965">
        <ele>15</ele>
        <time>2021-05-01T09:09:33.509Z</time>
      </trkpt>
      <trkpt lat="44.8798" lon="-0.10005">
        <ele>15</ele>
        <time>2021-05-01T09:09:52.509Z</time>
      </trkpt>
      <trkpt lat="44.87971" lon="-0.10036">
        <ele>13</ele>
        <time>2021-05-01T09:10:07.510Z</time>
      </trkpt>
      <trkpt lat="44.87965" lon="-0.1005">
        <ele>14</ele>
        <time>2021-05-01T09:10:14.510Z</time>
      </trkpt>
      <trkpt lat="44.87956" lon="-0.10062">
        <ele>13</ele>
        <time>2021-05-01T09:10:22.510Z</time>
      </trkpt>
      <trkpt lat="44.87947" lon="-0.1007">
        <ele>17</ele>
        <time>2021-05-01T09:10:29.510Z</time>
      </trkpt>
      <trkpt lat="44.87919" lon="-0.10081">
        <ele>21</ele>
        <time>2021-05-01T09:10:48.510Z</time>
      </trkpt>
      <trkpt lat="44.87903" lon="-0.10091">
        <ele>15</ele>
        <time>2021-05-01T09:11:01.509Z</time>
      </trkpt>
      <trkpt lat="44.87896" lon="-0.10094">
        <ele>15</ele>
        <time>2021-05-01T09:11:07.509Z</time>
      </trkpt>
      <trkpt lat="44.87893" lon="-0.10099">
        <ele>16</ele>
        <time>2021-05-01T09:11:10.509Z</time>
      </trkpt>
      <trkpt lat="44.8789" lon="-0.10102">
        <ele>16</ele>
        <time>2021-05-01T09:11:12.510Z</time>
      </trkpt>
      <trkpt lat="44.87885" lon="-0.10109">
        <ele>15</ele>
        <time>2021-05-01T09:11:17.509Z</time>
      </trkpt>
      <trkpt lat="44.87882" lon="-0.1012">
        <ele>14</ele>
        <time>2021-05-01T09:11:23.510Z</time>
      </trkpt>
      <trkpt lat="44.87879" lon="-0.10126">
        <ele>14</ele>
        <time>2021-05-01T09:11:26.509Z</time>
      </trkpt>
      <trkpt lat="44.87866" lon="-0.10168">
        <ele>13</ele>
        <time>2021-05-01T09:11:48.510Z</time>
      </trkpt>
      <trkpt lat="44.87853" lon="-0.10227">
        <ele>9</ele>
        <time>2021-05-01T09:12:18.510Z</time>
      </trkpt>
      <trkpt lat="44.87844" lon="-0.10251">
        <ele>11</ele>
        <time>2021-05-01T09:12:32.510Z</time>
      </trkpt>
      <trkpt lat="44.8784" lon="-0.10256">
        <ele>11</ele>
        <time>2021-05-01T09:12:35.509Z</time>
      </trkpt>
      <trkpt lat="44.87835" lon="-0.1026">
        <ele>12</ele>
        <time>2021-05-01T09:12:39.509Z</time>
      </trkpt>
      <trkpt lat="44.87823" lon="-0.10265">
        <ele>13</ele>
        <time>2021-05-01T09:12:47.509Z</time>
      </trkpt>
      <trkpt lat="44.87816" lon="-0.10265">
        <ele>13</ele>
        <time>2021-05-01T09:12:52.509Z</time>
      </trkpt>
      <trkpt lat="44.87811" lon="-0.10267">
        <ele>13</ele>
        <time>2021-05-01T09:12:56.509Z</time>
      </trkpt>
      <trkpt lat="44.87794" lon="-0.10264">
        <ele>16</ele>
        <time>2021-05-01T09:13:08.509Z</time>
      </trkpt>
      <trkpt lat="44.87768" lon="-0.10264">
        <ele>19</ele>
        <time>2021-05-01T09:13:24.509Z</time>
      </trkpt>
      <trkpt lat="44.8773" lon="-0.10267">
        <ele>11</ele>
        <time>2021-05-01T09:13:49.509Z</time>
      </trkpt>
      <trkpt lat="44.87723" lon="-0.10266">
        <ele>12</ele>
        <time>2021-05-01T09:13:53.509Z</time>
      </trkpt>
      <trkpt lat="44.87718" lon="-0.10267">
        <ele>12</ele>
        <time>2021-05-01T09:13:57.509Z</time>
      </trkpt>
      <trkpt lat="44.87706" lon="-0.10267">
        <ele>14</ele>
        <time>2021-05-01T09:14:06.509Z</time>
      </trkpt>
      <trkpt lat="44.87703" lon="-0.10269">
        <ele>12</ele>
        <time>2021-05-01T09:14:12.510Z</time>
      </trkpt>
      <trkpt lat="44.877" lon="-0.10269">
        <ele>11</ele>
        <time>2021-05-01T09:14:16.509Z</time>
      </trkpt>
      <trkpt lat="44.87694" lon="-0.10266">
        <ele>11</ele>
        <time>2021-05-01T09:14:22.509Z</time>
      </trkpt>
      <trkpt lat="44.87695" lon="-0.10264">
        <ele>11</ele>
        <time>2021-05-01T09:14:25.509Z</time>
      </trkpt>
      <trkpt lat="44.87694" lon="-0.10253">
        <ele>11</ele>
        <time>2021-05-01T09:14:32.509Z</time>
      </trkpt>
      <trkpt lat="44.87694" lon="-0.10247">
        <ele>11</ele>
        <time>2021-05-01T09:14:35.509Z</time>
      </trkpt>
      <trkpt lat="44.87691" lon="-0.1024">
        <ele>12</ele>
        <time>2021-05-01T09:14:38.509Z</time>
      </trkpt>
      <trkpt lat="44.87683" lon="-0.1021">
        <ele>15</ele>
        <time>2021-05-01T09:14:52.510Z</time>
      </trkpt>
      <trkpt lat="44.87674" lon="-0.10163">
        <ele>12</ele>
        <time>2021-05-01T09:15:16.509Z</time>
      </trkpt>
      <trkpt lat="44.87674" lon="-0.10148">
        <ele>12</ele>
        <time>2021-05-01T09:15:23.509Z</time>
      </trkpt>
      <trkpt lat="44.8767" lon="-0.10125">
        <ele>13</ele>
        <time>2021-05-01T09:15:34.510Z</time>
      </trkpt>
      <trkpt lat="44.87667" lon="-0.10119">
        <ele>12</ele>
        <time>2021-05-01T09:15:37.510Z</time>
      </trkpt>
      <trkpt lat="44.87659" lon="-0.10081">
        <ele>7</ele>
        <time>2021-05-01T09:15:56.510Z</time>
      </trkpt>
      <trkpt lat="44.87653" lon="-0.10046">
        <ele>6</ele>
        <time>2021-05-01T09:16:13.510Z</time>
      </trkpt>
      <trkpt lat="44.87648" lon="-0.1003">
        <ele>4</ele>
        <time>2021-05-01T09:16:21.509Z</time>
      </trkpt>
      <trkpt lat="44.8764" lon="-0.10001">
        <ele>8</ele>
        <time>2021-05-01T09:16:36.510Z</time>
      </trkpt>
      <trkpt lat="44.87636" lon="-0.09987">
        <ele>8</ele>
        <time>2021-05-01T09:16:46.509Z</time>
      </trkpt>
      <trkpt lat="44.87637" lon="-0.09987">
        <ele>8</ele>
        <time>2021-05-01T09:16:48.509Z</time>
      </trkpt>
      <trkpt lat="44.87639" lon="-0.09981">
        <ele>9</ele>
        <time>2021-05-01T09:16:54.509Z</time>
      </trkpt>
      <trkpt lat="44.87637" lon="-0.09979">
        <ele>9</ele>
        <time>2021-05-01T09:16:57.509Z</time>
      </trkpt>
      <trkpt lat="44.8763" lon="-0.09595">
        <ele>11</ele>
        <time>2021-05-01T09:17:04.511Z</time>
      </trkpt>
      <trkpt lat="44.87631" lon="-0.09581">
        <ele>11</ele>
        <time>2021-05-01T09:17:17.511Z</time>
      </trkpt>
      <trkpt lat="44.8763" lon="-0.09543">
        <ele>14</ele>
        <time>2021-05-01T09:17:36.510Z</time>
      </trkpt>
      <trkpt lat="44.87631" lon="-0.09538">
        <ele>14</ele>
        <time>2021-05-01T09:17:38.511Z</time>
      </trkpt>
      <trkpt lat="44.87629" lon="-0.09517">
        <ele>13</ele>
        <time>2021-05-01T09:17:48.511Z</time>
      </trkpt>
      <trkpt lat="44.8763" lon="-0.09508">
        <ele>12</ele>
        <time>2021-05-01T09:17:52.510Z</time>
      </trkpt>
      <trkpt lat="44.87631" lon="-0.09485">
        <ele>12</ele>
        <time>2021-05-01T09:18:03.511Z</time>
      </trkpt>
      <trkpt lat="44.8763" lon="-0.09481">
        <ele>12</ele>
        <time>2021-05-01T09:18:05.510Z</time>
      </trkpt>
      <trkpt lat="44.8763" lon="-0.09469">
        <ele>13</ele>
        <time>2021-05-01T09:18:11.511Z</time>
      </trkpt>
      <trkpt lat="44.87629" lon="-0.09445">
        <ele>11</ele>
        <time>2021-05-01T09:18:22.511Z</time>
      </trkpt>
      <trkpt lat="44.87626" lon="-0.09435">
        <ele>13</ele>
        <time>2021-05-01T09:18:27.511Z</time>
      </trkpt>
      <trkpt lat="44.87627" lon="-0.09422">
        <ele>13</ele>
        <time>2021-05-01T09:18:33.511Z</time>
      </trkpt>
      <trkpt lat="44.87628" lon="-0.09412">
        <ele>14</ele>
        <time>2021-05-01T09:18:38.511Z</time>
      </trkpt>
      <trkpt lat="44.87628" lon="-0.09387">
        <ele>14</ele>
        <time>2021-05-01T09:18:52.511Z</time>
      </trkpt>
      <trkpt lat="44.87625" lon="-0.09361">
        <ele>12</ele>
        <time>2021-05-01T09:19:06.511Z</time>
      </trkpt>
      <trkpt lat="44.87625" lon="-0.0935">
        <ele>12</ele>
        <time>2021-05-01T09:19:11.510Z</time>
      </trkpt>
      <trkpt lat="44.87621" lon="-0.09331">
        <ele>10</ele>
        <time>2021-05-01T09:19:20.511Z</time>
      </trkpt>
      <trkpt lat="44.87621" lon="-0.09322">
        <ele>9</ele>
        <time>2021-05-01T09:19:24.510Z</time>
      </trkpt>
      <trkpt lat="44.87616" lon="-0.09303">
        <ele>12</ele>
        <time>2021-05-01T09:19:33.511Z</time>
      </trkpt>
      <trkpt lat="44.87616" lon="-0.09299">
        <ele>11</ele>
        <time>2021-05-01T09:19:36.511Z</time>
      </trkpt>
      <trkpt lat="44.87613" lon="-0.09288">
        <ele>10</ele>
        <time>2021-05-01T09:19:41.511Z</time>
      </trkpt>
      <trkpt lat="44.87613" lon="-0.09271">
        <ele>12</ele>
        <time>2021-05-01T09:19:49.511Z</time>
      </trkpt>
      <trkpt lat="44.87613" lon="-0.09267">
        <ele>12</ele>
        <time>2021-05-01T09:19:52.510Z</time>
      </trkpt>
      <trkpt lat="44.87611" lon="-0.09267">
        <ele>12</ele>
        <time>2021-05-01T09:19:54.511Z</time>
      </trkpt>
      <trkpt lat="44.8761" lon="-0.09259">
        <ele>13</ele>
        <time>2021-05-01T09:20:01.511Z</time>
      </trkpt>
      <trkpt lat="44.87607" lon="-0.09252">
        <ele>15</ele>
        <time>2021-05-01T09:20:06.511Z</time>
      </trkpt>
      <trkpt lat="44.87606" lon="-0.0925">
        <ele>15</ele>
        <time>2021-05-01T09:20:08.511Z</time>
      </trkpt>
      <trkpt lat="44.87598" lon="-0.09219">
        <ele>15</ele>
        <time>2021-05-01T09:20:25.511Z</time>
      </trkpt>
      <trkpt lat="44.87596" lon="-0.09203">
        <ele>16</ele>
        <time>2021-05-01T09:20:32.511Z</time>
      </trkpt>
      <trkpt lat="44.87597" lon="-0.09199">
        <ele>16</ele>
        <time>2021-05-01T09:20:34.510Z</time>
      </trkpt>
      <trkpt lat="44.87594" lon="-0.09166">
        <ele>15</ele>
        <time>2021-05-01T09:20:53.511Z</time>
      </trkpt>
      <trkpt lat="44.87592" lon="-0.09152">
        <ele>14</ele>
        <time>2021-05-01T09:21:01.510Z</time>
      </trkpt>
      <trkpt lat="44.87591" lon="-0.09134">
        <ele>13</ele>
        <time>2021-05-01T09:21:10.511Z</time>
      </trkpt>
      <trkpt lat="44.87589" lon="-0.09119">
        <ele>13</ele>
        <time>2021-05-01T09:21:18.511Z</time>
      </trkpt>
      <trkpt lat="44.8759" lon="-0.09105">
        <ele>14</ele>
        <time>2021-05-01T09:21:24.511Z</time>
      </trkpt>
      <trkpt lat="44.87588" lon="-0.09088">
        <ele>15</ele>
        <time>2021-05-01T09:21:33.511Z</time>
      </trkpt>
      <trkpt lat="44.87589" lon="-0.09077">
        <ele>14</ele>
        <time>2021-05-01T09:21:39.511Z</time>
      </trkpt>
      <trkpt lat="44.87589" lon="-0.09054">
        <ele>15</ele>
        <time>2021-05-01T09:21:50.511Z</time>
      </trkpt>
      <trkpt lat="44.87589" lon="-0.09045">
        <ele>14</ele>
        <time>2021-05-01T09:21:55.510Z</time>
      </trkpt>
      <trkpt lat="44.87594" lon="-0.0904">
        <ele>15</ele>
        <time>2021-05-01T09:21:59.511Z</time>
      </trkpt>
      <trkpt lat="44.87597" lon="-0.09037">
        <ele>16</ele>
        <time>2021-05-01T09:22:03.511Z</time>
      </trkpt>
      <trkpt lat="44.87603" lon="-0.09036">
        <ele>16</ele>
        <time>2021-05-01T09:22:07.511Z</time>
      </trkpt>
      <trkpt lat="44.87627" lon="-0.09025">
        <ele>15</ele>
        <time>2021-05-01T09:22:24.511Z</time>
      </trkpt>
      <trkpt lat="44.8764" lon="-0.09021">
        <ele>16</ele>
        <time>2021-05-01T09:22:33.511Z</time>
      </trkpt>
      <trkpt lat="44.87649" lon="-0.09015">
        <ele>14</ele>
        <time>2021-05-01T09:22:40.511Z</time>
      </trkpt>
      <trkpt lat="44.87656" lon="-0.09012">
        <ele>15</ele>
        <time>2021-05-01T09:22:45.510Z</time>
      </trkpt>
      <trkpt lat="44.87662" lon="-0.09012">
        <ele>17</ele>
        <time>2021-05-01T09:22:50.510Z</time>
      </trkpt>
      <trkpt lat="44.87676" lon="-0.09007">
        <ele>20</ele>
        <time>2021-05-01T09:23:00.511Z</time>
      </trkpt>
      <trkpt lat="44.87679" lon="-0.09004">
        <ele>20</ele>
        <time>2021-05-01T09:23:04.511Z</time>
      </trkpt>
      <trkpt lat="44.87683" lon="-0.09003">
        <ele>20</ele>
        <time>2021-05-01T09:23:06.511Z</time>
      </trkpt>
      <trkpt lat="44.87689" lon="-0.08998">
        <ele>20</ele>
        <time>2021-05-01T09:23:12.511Z</time>
      </trkpt>
      <trkpt lat="44.87691" lon="-0.08998">
        <ele>20</ele>
        <time>2021-05-01T09:23:16.510Z</time>
      </trkpt>
      <trkpt lat="44.8771" lon="-0.09021">
        <ele>25</ele>
        <time>2021-05-01T09:23:34.511Z</time>
      </trkpt>
      <trkpt lat="44.87718" lon="-0.0904">
        <ele>24</ele>
        <time>2021-05-01T09:23:44.510Z</time>
      </trkpt>
      <trkpt lat="44.87722" lon="-0.09044">
        <ele>22</ele>
        <time>2021-05-01T09:23:48.511Z</time>
      </trkpt>
      <trkpt lat="44.87725" lon="-0.09042">
        <ele>21</ele>
        <time>2021-05-01T09:23:51.511Z</time>
      </trkpt>
      <trkpt lat="44.8773" lon="-0.09038">
        <ele>20</ele>
        <time>2021-05-01T09:23:55.511Z</time>
      </trkpt>
      <trkpt lat="44.87734" lon="-0.09036">
        <ele>20</ele>
        <time>2021-05-01T09:23:58.511Z</time>
      </trkpt>
      <trkpt lat="44.87741" lon="-0.09028">
        <ele>24</ele>
        <time>2021-05-01T09:24:05.510Z</time>
      </trkpt>
      <trkpt lat="44.87744" lon="-0.09024">
        <ele>24</ele>
        <time>2021-05-01T09:24:08.510Z</time>
      </trkpt>
      <trkpt lat="44.8776" lon="-0.09003">
        <ele>22</ele>
        <time>2021-05-01T09:24:24.511Z</time>
      </trkpt>
      <trkpt lat="44.87767" lon="-0.08996">
        <ele>23</ele>
        <time>2021-05-01T09:24:30.511Z</time>
      </trkpt>
      <trkpt lat="44.87774" lon="-0.08986">
        <ele>24</ele>
        <time>2021-05-01T09:24:37.510Z</time>
      </trkpt>
      <trkpt lat="44.87784" lon="-0.08975">
        <ele>24</ele>
        <time>2021-05-01T09:24:45.510Z</time>
      </trkpt>
      <trkpt lat="44.87785" lon="-0.0897">
        <ele>24</ele>
        <time>2021-05-01T09:24:48.510Z</time>
      </trkpt>
      <trkpt lat="44.87797" lon="-0.0896">
        <ele>21</ele>
        <time>2021-05-01T09:24:57.511Z</time>
      </trkpt>
      <trkpt lat="44.87805" lon="-0.0895">
        <ele>22</ele>
        <time>2021-05-01T09:25:06.510Z</time>
      </trkpt>
      <trkpt lat="44.87806" lon="-0.08946">
        <ele>21</ele>
        <time>2021-05-01T09:25:08.511Z</time>
      </trkpt>
      <trkpt lat="44.87817" lon="-0.08936">
        <ele>20</ele>
        <time>2021-05-01T09:25:18.511Z</time>
      </trkpt>
      <trkpt lat="44.87825" lon="-0.08927">
        <ele>26</ele>
        <time>2021-05-01T09:25:26.511Z</time>
      </trkpt>
      <trkpt lat="44.87827" lon="-0.08922">
        <ele>28</ele>
        <time>2021-05-01T09:25:29.511Z</time>
      </trkpt>
      <trkpt lat="44.87826" lon="-0.08913">
        <ele>29</ele>
        <time>2021-05-01T09:25:34.511Z</time>
      </trkpt>
      <trkpt lat="44.87831" lon="-0.08907">
        <ele>28</ele>
        <time>2021-05-01T09:25:38.511Z</time>
      </trkpt>
      <trkpt lat="44.87834" lon="-0.089">
        <ele>27</ele>
        <time>2021-05-01T09:25:42.511Z</time>
      </trkpt>
      <trkpt lat="44.87838" lon="-0.08895">
        <ele>29</ele>
        <time>2021-05-01T09:25:46.511Z</time>
      </trkpt>
      <trkpt lat="44.8784" lon="-0.08888">
        <ele>29</ele>
        <time>2021-05-01T09:25:50.510Z</time>
      </trkpt>
      <trkpt lat="44.87843" lon="-0.08882">
        <ele>31</ele>
        <time>2021-05-01T09:25:55.511Z</time>
      </trkpt>
      <trkpt lat="44.87843" lon="-0.08879">
        <ele>31</ele>
        <time>2021-05-01T09:25:57.511Z</time>
      </trkpt>
      <trkpt lat="44.87844" lon="-0.08874">
        <ele>32</ele>
        <time>2021-05-01T09:26:02.511Z</time>
      </trkpt>
      <trkpt lat="44.87846" lon="-0.08872">
        <ele>34</ele>
        <time>2021-05-01T09:26:05.510Z</time>
      </trkpt>
      <trkpt lat="44.87848" lon="-0.08867">
        <ele>34</ele>
        <time>2021-05-01T09:26:08.511Z</time>
      </trkpt>
      <trkpt lat="44.87854" lon="-0.08859">
        <ele>35</ele>
        <time>2021-05-01T09:26:18.511Z</time>
      </trkpt>
      <trkpt lat="44.87865" lon="-0.08837">
        <ele>33</ele>
        <time>2021-05-01T09:26:35.510Z</time>
      </trkpt>
      <trkpt lat="44.87868" lon="-0.08834">
        <ele>34</ele>
        <time>2021-05-01T09:26:38.510Z</time>
      </trkpt>
      <trkpt lat="44.87871" lon="-0.08826">
        <ele>33</ele>
        <time>2021-05-01T09:26:43.511Z</time>
      </trkpt>
      <trkpt lat="44.87882" lon="-0.0881">
        <ele>35</ele>
        <time>2021-05-01T09:26:55.511Z</time>
      </trkpt>
      <trkpt lat="44.879" lon="-0.0878">
        <ele>40</ele>
        <time>2021-05-01T09:27:18.511Z</time>
      </trkpt>
      <trkpt lat="44.879" lon="-0.08778">
        <ele>40</ele>
        <time>2021-05-01T09:27:19.511Z</time>
      </trkpt>
      <trkpt lat="44.87909" lon="-0.08759">
        <ele>36</ele>
        <time>2021-05-01T09:27:32.511Z</time>
      </trkpt>
      <trkpt lat="44.87913" lon="-0.08753">
        <ele>38</ele>
        <time>2021-05-01T09:27:38.511Z</time>
      </trkpt>
      <trkpt lat="44.8792" lon="-0.0874">
        <ele>40</ele>
        <time>2021-05-01T09:27:49.511Z</time>
      </trkpt>
      <trkpt lat="44.87926" lon="-0.08735">
        <ele>42</ele>
        <time>2021-05-01T09:27:57.511Z</time>
      </trkpt>
      <trkpt lat="44.87938" lon="-0.0873">
        <ele>45</ele>
        <time>2021-05-01T09:28:12.510Z</time>
      </trkpt>
      <trkpt lat="44.87944" lon="-0.08729">
        <ele>45</ele>
        <time>2021-05-01T09:28:21.511Z</time>
      </trkpt>
      <trkpt lat="44.87955" lon="-0.08721">
        <ele>43</ele>
        <time>2021-05-01T09:28:31.511Z</time>
      </trkpt>
      <trkpt lat="44.87962" lon="-0.08718">
        <ele>45</ele>
        <time>2021-05-01T09:28:36.511Z</time>
      </trkpt>
      <trkpt lat="44.8797" lon="-0.08713">
        <ele>47</ele>
        <time>2021-05-01T09:28:44.510Z</time>
      </trkpt>
      <trkpt lat="44.87981" lon="-0.08709">
        <ele>47</ele>
        <time>2021-05-01T09:28:53.511Z</time>
      </trkpt>
      <trkpt lat="44.87984" lon="-0.08706">
        <ele>48</ele>
        <time>2021-05-01T09:29:02.510Z</time>
      </trkpt>
      <trkpt lat="44.87987" lon="-0.08705">
        <ele>49</ele>
        <time>2021-05-01T09:29:07.511Z</time>
      </trkpt>
      <trkpt lat="44.87986" lon="-0.08702">
        <ele>48</ele>
        <time>2021-05-01T09:29:11.511Z</time>
      </trkpt>
      <trkpt lat="44.87992" lon="-0.08704">
        <ele>49</ele>
        <time>2021-05-01T09:29:16.510Z</time>
      </trkpt>
      <trkpt lat="44.87996" lon="-0.08701">
        <ele>44</ele>
        <time>2021-05-01T09:29:24.511Z</time>
      </trkpt>
      <trkpt lat="44.88001" lon="-0.08701">
        <ele>43</ele>
        <time>2021-05-01T09:29:32.511Z</time>
      </trkpt>
      <trkpt lat="44.88016" lon="-0.08705">
        <ele>47</ele>
        <time>2021-05-01T09:29:45.511Z</time>
      </trkpt>
      <trkpt lat="44.88018" lon="-0.08707">
        <ele>47</ele>
        <time>2021-05-01T09:29:47.511Z</time>
      </trkpt>
      <trkpt lat="44.88051" lon="-0.0872">
        <ele>55</ele>
        <time>2021-05-01T09:30:16.511Z</time>
      </trkpt>
      <trkpt lat="44.88065" lon="-0.08718">
        <ele>53</ele>
        <time>2021-05-01T09:30:28.511Z</time>
      </trkpt>
      <trkpt lat="44.88067" lon="-0.08716">
        <ele>52</ele>
        <time>2021-05-01T09:30:31.511Z</time>
      </trkpt>
      <trkpt lat="44.8807" lon="-0.08715">
        <ele>54</ele>
        <time>2021-05-01T09:30:34.511Z</time>
      </trkpt>
      <trkpt lat="44.88073" lon="-0.0871">
        <ele>56</ele>
        <time>2021-05-01T09:30:40.511Z</time>
      </trkpt>
      <trkpt lat="44.88083" lon="-0.08704">
        <ele>55</ele>
        <time>2021-05-01T09:30:51.511Z</time>
      </trkpt>
      <trkpt lat="44.88083" lon="-0.08703">
        <ele>55</ele>
        <time>2021-05-01T09:30:55.511Z</time>
      </trkpt>
      <trkpt lat="44.88085" lon="-0.08704">
        <ele>55</ele>
        <time>2021-05-01T09:30:59.510Z</time>
      </trkpt>
      <trkpt lat="44.88091" lon="-0.08701">
        <ele>54</ele>
        <time>2021-05-01T09:31:06.511Z</time>
      </trkpt>
      <trkpt lat="44.88097" lon="-0.08703">
        <ele>56</ele>
        <time>2021-05-01T09:31:11.510Z</time>
      </trkpt>
      <trkpt lat="44.88106" lon="-0.08699">
        <ele>51</ele>
        <time>2021-05-01T09:31:19.511Z</time>
      </trkpt>
      <trkpt lat="44.88115" lon="-0.08694">
        <ele>52</ele>
        <time>2021-05-01T09:31:28.511Z</time>
      </trkpt>
      <trkpt lat="44.88119" lon="-0.08696">
        <ele>52</ele>
        <time>2021-05-01T09:31:35.511Z</time>
      </trkpt>
      <trkpt lat="44.88126" lon="-0.08694">
        <ele>51</ele>
        <time>2021-05-01T09:31:44.511Z</time>
      </trkpt>
      <trkpt lat="44.8813" lon="-0.08691">
        <ele>52</ele>
        <time>2021-05-01T09:31:48.511Z</time>
      </trkpt>
      <trkpt lat="44.88132" lon="-0.08683">
        <ele>56</ele>
        <time>2021-05-01T09:31:55.511Z</time>
      </trkpt>
      <trkpt lat="44.8813" lon="-0.08682">
        <ele>57</ele>
        <time>2021-05-01T09:31:58.511Z</time>
      </trkpt>
      <trkpt lat="44.88129" lon="-0.08665">
        <ele>56</ele>
        <time>2021-05-01T09:32:09.510Z</time>
      </trkpt>
      <trkpt lat="44.88121" lon="-0.08637">
        <ele>52</ele>
        <time>2021-05-01T09:32:33.511Z</time>
      </trkpt>
      <trkpt lat="44.88116" lon="-0.08613">
        <ele>50</ele>
        <time>2021-05-01T09:32:45.511Z</time>
      </trkpt>
      <trkpt lat="44.88115" lon="-0.08597">
        <ele>47</ele>
        <time>2021-05-01T09:32:54.511Z</time>
      </trkpt>
      <trkpt lat="44.88106" lon="-0.08553">
        <ele>44</ele>
        <time>2021-05-01T09:33:20.511Z</time>
      </trkpt>
      <trkpt lat="44.88103" lon="-0.0855">
        <ele>44</ele>
        <time>2021-05-01T09:33:22.510Z</time>
      </trkpt>
      <trkpt lat="44.88096" lon="-0.08525">
        <ele>40</ele>
        <time>2021-05-01T09:33:36.511Z</time>
      </trkpt>
      <trkpt lat="44.88089" lon="-0.08497">
        <ele>39</ele>
        <time>2021-05-01T09:33:51.511Z</time>
      </trkpt>
      <trkpt lat="44.88085" lon="-0.08476">
        <ele>39</ele>
        <time>2021-05-01T09:34:03.510Z</time>
      </trkpt>
      <trkpt lat="44.88081" lon="-0.08463">
        <ele>37</ele>
        <time>2021-05-01T09:34:11.511Z</time>
      </trkpt>
      <trkpt lat="44.88083" lon="-0.08459">
        <ele>37</ele>
        <time>2021-05-01T09:34:14.511Z</time>
      </trkpt>
      <trkpt lat="44.88093" lon="-0.08448">
        <ele>37</ele>
        <time>2021-05-01T09:34:22.510Z</time>
      </trkpt>
      <trkpt lat="44.88103" lon="-0.08433">
        <ele>39</ele>
        <time>2021-05-01T09:34:33.511Z</time>
      </trkpt>
      <trkpt lat="44.88111" lon="-0.08409">
        <ele>38</ele>
        <time>2021-05-01T09:34:49.511Z</time>
      </trkpt>
      <trkpt lat="44.88112" lon="-0.084">
        <ele>38</ele>
        <time>2021-05-01T09:34:54.510Z</time>
      </trkpt>
      <trkpt lat="44.88117" lon="-0.08379">
        <ele>39</ele>
        <time>2021-05-01T09:35:05.510Z</time>
      </trkpt>
      <trkpt lat="44.8812" lon="-0.08362">
        <ele>38</ele>
        <time>2021-05-01T09:35:15.511Z</time>
      </trkpt>
      <trkpt lat="44.88123" lon="-0.08352">
        <ele>38</ele>
        <time>2021-05-01T09:35:21.511Z</time>
      </trkpt>
      <trkpt lat="44.88126" lon="-0.08333">
        <ele>42</ele>
        <time>2021-05-01T09:35:34.511Z</time>
      </trkpt>
      <trkpt lat="44.88129" lon="-0.08322">
        <ele>41</ele>
        <time>2021-05-01T09:35:41.510Z</time>
      </trkpt>
      <trkpt lat="44.88129" lon="-0.08319">
        <ele>41</ele>
        <time>2021-05-01T09:35:43.510Z</time>
      </trkpt>
      <trkpt lat="44.88132" lon="-0.08313">
        <ele>41</ele>
        <time>2021-05-01T09:35:47.511Z</time>
      </trkpt>
      <trkpt lat="44.8814" lon="-0.08302">
        <ele>43</ele>
        <time>2021-05-01T09:35:56.511Z</time>
      </trkpt>
      <trkpt lat="44.88142" lon="-0.08297">
        <ele>42</ele>
        <time>2021-05-01T09:36:00.511Z</time>
      </trkpt>
      <trkpt lat="44.88152" lon="-0.08285">
        <ele>45</ele>
        <time>2021-05-01T09:36:09.511Z</time>
      </trkpt>
      <trkpt lat="44.88155" lon="-0.08284">
        <ele>46</ele>
        <time>2021-05-01T09:36:11.511Z</time>
      </trkpt>
      <trkpt lat="44.88162" lon="-0.08274">
        <ele>48</ele>
        <time>2021-05-01T09:36:21.510Z</time>
      </trkpt>
      <trkpt lat="44.8817" lon="-0.08268">
        <ele>49</ele>
        <time>2021-05-01T09:36:27.510Z</time>
      </trkpt>
      <trkpt lat="44.88176" lon="-0.0826">
        <ele>49</ele>
        <time>2021-05-01T09:36:33.511Z</time>
      </trkpt>
      <trkpt lat="44.88181" lon="-0.08249">
        <ele>48</ele>
        <time>2021-05-01T09:36:41.511Z</time>
      </trkpt>
      <trkpt lat="44.88183" lon="-0.08247">
        <ele>48</ele>
        <time>2021-05-01T09:36:43.511Z</time>
      </trkpt>
      <trkpt lat="44.88196" lon="-0.08222">
        <ele>53</ele>
        <time>2021-05-01T09:36:58.511Z</time>
      </trkpt>
      <trkpt lat="44.88198" lon="-0.08215">
        <ele>52</ele>
        <time>2021-05-01T09:37:03.511Z</time>
      </trkpt>
      <trkpt lat="44.88209" lon="-0.08192">
        <ele>51</ele>
        <time>2021-05-01T09:37:19.511Z</time>
      </trkpt>
      <trkpt lat="44.88214" lon="-0.08177">
        <ele>47</ele>
        <time>2021-05-01T09:37:29.511Z</time>
      </trkpt>
      <trkpt lat="44.88217" lon="-0.08172">
        <ele>47</ele>
        <time>2021-05-01T09:37:32.510Z</time>
      </trkpt>
      <trkpt lat="44.88225" lon="-0.08151">
        <ele>49</ele>
        <time>2021-05-01T09:37:44.511Z</time>
      </trkpt>
      <trkpt lat="44.88229" lon="-0.08135">
        <ele>51</ele>
        <time>2021-05-01T09:37:53.511Z</time>
      </trkpt>
      <trkpt lat="44.88236" lon="-0.08119">
        <ele>45</ele>
        <time>2021-05-01T09:38:04.511Z</time>
      </trkpt>
      <trkpt lat="44.88238" lon="-0.08107">
        <ele>47</ele>
        <time>2021-05-01T09:38:12.511Z</time>
      </trkpt>
      <trkpt lat="44.88237" lon="-0.08107">
        <ele>49</ele>
        <time>2021-05-01T09:38:15.511Z</time>
      </trkpt>
      <trkpt lat="44.88239" lon="-0.08103">
        <ele>47</ele>
        <time>2021-05-01T09:38:19.512Z</time>
      </trkpt>
      <trkpt lat="44.88226" lon="-0.08091">
        <ele>47</ele>
        <time>2021-05-01T09:38:33.512Z</time>
      </trkpt>
      <trkpt lat="44.88224" lon="-0.08087">
        <ele>47</ele>
        <time>2021-05-01T09:38:35.511Z</time>
      </trkpt>
      <trkpt lat="44.88219" lon="-0.08083">
        <ele>46</ele>
        <time>2021-05-01T09:38:39.512Z</time>
      </trkpt>
      <trkpt lat="44.88204" lon="-0.08075">
        <ele>46</ele>
        <time>2021-05-01T09:38:50.512Z</time>
      </trkpt>
      <trkpt lat="44.882" lon="-0.08074">
        <ele>46</ele>
        <time>2021-05-01T09:38:53.512Z</time>
      </trkpt>
      <trkpt lat="44.88191" lon="-0.08074">
        <ele>46</ele>
        <time>2021-05-01T09:39:01.511Z</time>
      </trkpt>
      <trkpt lat="44.88179" lon="-0.08069">
        <ele>46</ele>
        <time>2021-05-01T09:39:09.512Z</time>
      </trkpt>
      <trkpt lat="44.88167" lon="-0.08061">
        <ele>47</ele>
        <time>2021-05-01T09:39:17.512Z</time>
      </trkpt>
      <trkpt lat="44.88154" lon="-0.08057">
        <ele>47</ele>
        <time>2021-05-01T09:39:25.512Z</time>
      </trkpt>
      <trkpt lat="44.88141" lon="-0.08055">
        <ele>44</ele>
        <time>2021-05-01T09:39:34.512Z</time>
      </trkpt>
      <trkpt lat="44.88136" lon="-0.08057">
        <ele>42</ele>
        <time>2021-05-01T09:39:38.512Z</time>
      </trkpt>
      <trkpt lat="44.88119" lon="-0.08058">
        <ele>42</ele>
        <time>2021-05-01T09:39:50.512Z</time>
      </trkpt>
      <trkpt lat="44.881" lon="-0.08057">
        <ele>41</ele>
        <time>2021-05-01T09:40:02.512Z</time>
      </trkpt>
      <trkpt lat="44.88092" lon="-0.08058">
        <ele>38</ele>
        <time>2021-05-01T09:40:08.512Z</time>
      </trkpt>
      <trkpt lat="44.88077" lon="-0.08053">
        <ele>37</ele>
        <time>2021-05-01T09:40:17.512Z</time>
      </trkpt>
      <trkpt lat="44.8807" lon="-0.08053">
        <ele>37</ele>
        <time>2021-05-01T09:40:22.512Z</time>
      </trkpt>
      <trkpt lat="44.88056" lon="-0.08049">
        <ele>37</ele>
        <time>2021-05-01T09:40:31.512Z</time>
      </trkpt>
      <trkpt lat="44.88028" lon="-0.08036">
        <ele>39</ele>
        <time>2021-05-01T09:40:50.512Z</time>
      </trkpt>
      <trkpt lat="44.88025" lon="-0.08033">
        <ele>38</ele>
        <time>2021-05-01T09:40:54.511Z</time>
      </trkpt>
      <trkpt lat="44.88024" lon="-0.08028">
        <ele>39</ele>
        <time>2021-05-01T09:40:57.512Z</time>
      </trkpt>
      <trkpt lat="44.88025" lon="-0.08024">
        <ele>38</ele>
        <time>2021-05-01T09:40:59.512Z</time>
      </trkpt>
      <trkpt lat="44.88024" lon="-0.0802">
        <ele>38</ele>
        <time>2021-05-01T09:41:01.512Z</time>
      </trkpt>
      <trkpt lat="44.88025" lon="-0.08016">
        <ele>38</ele>
        <time>2021-05-01T09:41:03.512Z</time>
      </trkpt>
      <trkpt lat="44.88028" lon="-0.08009">
        <ele>40</ele>
        <time>2021-05-01T09:41:08.511Z</time>
      </trkpt>
      <trkpt lat="44.88028" lon="-0.08007">
        <ele>40</ele>
        <time>2021-05-01T09:41:11.512Z</time>
      </trkpt>
      <trkpt lat="44.8803" lon="-0.08002">
        <ele>40</ele>
        <time>2021-05-01T09:41:14.511Z</time>
      </trkpt>
      <trkpt lat="44.8803" lon="-0.07997">
        <ele>39</ele>
        <time>2021-05-01T09:41:21.512Z</time>
      </trkpt>
      <trkpt lat="44.88037" lon="-0.07976">
        <ele>34</ele>
        <time>2021-05-01T09:41:32.512Z</time>
      </trkpt>
      <trkpt lat="44.88039" lon="-0.07966">
        <ele>33</ele>
        <time>2021-05-01T09:41:38.512Z</time>
      </trkpt>
      <trkpt lat="44.88046" lon="-0.07948">
        <ele>34</ele>
        <time>2021-05-01T09:41:47.512Z</time>
      </trkpt>
      <trkpt lat="44.88049" lon="-0.07938">
        <ele>36</ele>
        <time>2021-05-01T09:41:52.512Z</time>
      </trkpt>
      <trkpt lat="44.88051" lon="-0.07921">
        <ele>35</ele>
        <time>2021-05-01T09:42:00.513Z</time>
      </trkpt>
      <trkpt lat="44.8805" lon="-0.0792">
        <ele>35</ele>
        <time>2021-05-01T09:42:04.513Z</time>
      </trkpt>
      <trkpt lat="44.88056" lon="-0.07886">
        <ele>33</ele>
        <time>2021-05-01T09:42:22.514Z</time>
      </trkpt>
      <trkpt lat="44.88065" lon="-0.07859">
        <ele>30</ele>
        <time>2021-05-01T09:42:34.514Z</time>
      </trkpt>
      <trkpt lat="44.88067" lon="-0.07852">
        <ele>30</ele>
        <time>2021-05-01T09:42:36.513Z</time>
      </trkpt>
      <trkpt lat="44.88071" lon="-0.07844">
        <ele>31</ele>
        <time>2021-05-01T09:42:40.513Z</time>
      </trkpt>
      <trkpt lat="44.88078" lon="-0.07815">
        <ele>30</ele>
        <time>2021-05-01T09:42:55.514Z</time>
      </trkpt>
      <trkpt lat="44.8808" lon="-0.07794">
        <ele>31</ele>
        <time>2021-05-01T09:43:05.514Z</time>
      </trkpt>
      <trkpt lat="44.8808" lon="-0.07787">
        <ele>32</ele>
        <time>2021-05-01T09:43:09.513Z</time>
      </trkpt>
      <trkpt lat="44.88083" lon="-0.07774">
        <ele>33</ele>
        <time>2021-05-01T09:43:15.514Z</time>
      </trkpt>
      <trkpt lat="44.88082" lon="-0.07768">
        <ele>31</ele>
        <time>2021-05-01T09:43:19.513Z</time>
      </trkpt>
      <trkpt lat="44.88083" lon="-0.07764">
        <ele>31</ele>
        <time>2021-05-01T09:43:20.514Z</time>
      </trkpt>
      <trkpt lat="44.88081" lon="-0.07758">
        <ele>31</ele>
        <time>2021-05-01T09:43:24.513Z</time>
      </trkpt>
      <trkpt lat="44.88081" lon="-0.07745">
        <ele>33</ele>
        <time>2021-05-01T09:43:30.514Z</time>
      </trkpt>
      <trkpt lat="44.88081" lon="-0.07742">
        <ele>34</ele>
        <time>2021-05-01T09:43:33.513Z</time>
      </trkpt>
      <trkpt lat="44.88078" lon="-0.07726">
        <ele>33</ele>
        <time>2021-05-01T09:43:44.513Z</time>
      </trkpt>
      <trkpt lat="44.8808" lon="-0.07721">
        <ele>31</ele>
        <time>2021-05-01T09:43:46.514Z</time>
      </trkpt>
      <trkpt lat="44.88084" lon="-0.07716">
        <ele>31</ele>
        <time>2021-05-01T09:43:50.513Z</time>
      </trkpt>
      <trkpt lat="44.88094" lon="-0.07709">
        <ele>31</ele>
        <time>2021-05-01T09:43:56.514Z</time>
      </trkpt>
      <trkpt lat="44.88111" lon="-0.07691">
        <ele>35</ele>
        <time>2021-05-01T09:44:12.513Z</time>
      </trkpt>
      <trkpt lat="44.88111" lon="-0.0769">
        <ele>34</ele>
        <time>2021-05-01T09:44:13.514Z</time>
      </trkpt>
      <trkpt lat="44.88114" lon="-0.07685">
        <ele>33</ele>
        <time>2021-05-01T09:44:16.514Z</time>
      </trkpt>
      <trkpt lat="44.88119" lon="-0.07682">
        <ele>32</ele>
        <time>2021-05-01T09:44:20.514Z</time>
      </trkpt>
      <trkpt lat="44.8813" lon="-0.0767">
        <ele>33</ele>
        <time>2021-05-01T09:44:31.514Z</time>
      </trkpt>
      <trkpt lat="44.88138" lon="-0.07666">
        <ele>35</ele>
        <time>2021-05-01T09:44:38.513Z</time>
      </trkpt>
      <trkpt lat="44.88144" lon="-0.07665">
        <ele>34</ele>
        <time>2021-05-01T09:44:43.514Z</time>
      </trkpt>
      <trkpt lat="44.8815" lon="-0.07666">
        <ele>34</ele>
        <time>2021-05-01T09:44:48.513Z</time>
      </trkpt>
      <trkpt lat="44.8817" lon="-0.07676">
        <ele>34</ele>
        <time>2021-05-01T09:45:04.514Z</time>
      </trkpt>
      <trkpt lat="44.88179" lon="-0.07678">
        <ele>36</ele>
        <time>2021-05-01T09:45:11.513Z</time>
      </trkpt>
      <trkpt lat="44.88188" lon="-0.07676">
        <ele>38</ele>
        <time>2021-05-01T09:45:18.514Z</time>
      </trkpt>
      <trkpt lat="44.88194" lon="-0.07673">
        <ele>39</ele>
        <time>2021-05-01T09:45:23.514Z</time>
      </trkpt>
      <trkpt lat="44.882" lon="-0.07667">
        <ele>39</ele>
        <time>2021-05-01T09:45:28.514Z</time>
      </trkpt>
      <trkpt lat="44.88243" lon="-0.07638">
        <ele>39</ele>
        <time>2021-05-01T09:46:04.514Z</time>
      </trkpt>
      <trkpt lat="44.88267" lon="-0.0763">
        <ele>40</ele>
        <time>2021-05-01T09:46:22.513Z</time>
      </trkpt>
      <trkpt lat="44.88294" lon="-0.07619">
        <ele>40</ele>
        <time>2021-05-01T09:46:42.513Z</time>
      </trkpt>
      <trkpt lat="44.88301" lon="-0.07614">
        <ele>39</ele>
        <time>2021-05-01T09:46:48.514Z</time>
      </trkpt>
      <trkpt lat="44.88314" lon="-0.07599">
        <ele>37</ele>
        <time>2021-05-01T09:47:00.513Z</time>
      </trkpt>
      <trkpt lat="44.88329" lon="-0.07587">
        <ele>36</ele>
        <time>2021-05-01T09:47:13.514Z</time>
      </trkpt>
      <trkpt lat="44.88356" lon="-0.07568">
        <ele>38</ele>
        <time>2021-05-01T09:47:35.514Z</time>
      </trkpt>
      <trkpt lat="44.88363" lon="-0.0756">
        <ele>38</ele>
        <time>2021-05-01T09:47:41.513Z</time>
      </trkpt>
      <trkpt lat="44.88374" lon="-0.07542">
        <ele>40</ele>
        <time>2021-05-01T09:47:53.514Z</time>
      </trkpt>
      <trkpt lat="44.8838" lon="-0.07535">
        <ele>41</ele>
        <time>2021-05-01T09:47:59.513Z</time>
      </trkpt>
      <trkpt lat="44.88384" lon="-0.07525">
        <ele>35</ele>
        <time>2021-05-01T09:48:05.514Z</time>
      </trkpt>
      <trkpt lat="44.88388" lon="-0.07522">
        <ele>36</ele>
        <time>2021-05-01T09:48:11.514Z</time>
      </trkpt>
      <trkpt lat="44.88392" lon="-0.07516">
        <ele>39</ele>
        <time>2021-05-01T09:48:16.513Z</time>
      </trkpt>
      <trkpt lat="44.88396" lon="-0.07515">
        <ele>41</ele>
        <time>2021-05-01T09:48:19.514Z</time>
      </trkpt>
      <trkpt lat="44.88399" lon="-0.07511">
        <ele>42</ele>
        <time>2021-05-01T09:48:22.514Z</time>
      </trkpt>
      <trkpt lat="44.88405" lon="-0.07489">
        <ele>41</ele>
        <time>2021-05-01T09:48:35.514Z</time>
      </trkpt>
      <trkpt lat="44.88407" lon="-0.07477">
        <ele>40</ele>
        <time>2021-05-01T09:48:40.514Z</time>
      </trkpt>
      <trkpt lat="44.88417" lon="-0.07447">
        <ele>39</ele>
        <time>2021-05-01T09:48:57.513Z</time>
      </trkpt>
      <trkpt lat="44.88429" lon="-0.0743">
        <ele>36</ele>
        <time>2021-05-01T09:49:08.513Z</time>
      </trkpt>
      <trkpt lat="44.8843" lon="-0.07427">
        <ele>35</ele>
        <time>2021-05-01T09:49:10.514Z</time>
      </trkpt>
      <trkpt lat="44.88432" lon="-0.07426">
        <ele>35</ele>
        <time>2021-05-01T09:49:11.513Z</time>
      </trkpt>
      <trkpt lat="44.8844" lon="-0.0741">
        <ele>37</ele>
        <time>2021-05-01T09:49:21.513Z</time>
      </trkpt>
      <trkpt lat="44.88456" lon="-0.07375">
        <ele>37</ele>
        <time>2021-05-01T09:49:42.513Z</time>
      </trkpt>
      <trkpt lat="44.88462" lon="-0.07367">
        <ele>35</ele>
        <time>2021-05-01T09:49:48.513Z</time>
      </trkpt>
      <trkpt lat="44.88463" lon="-0.07364">
        <ele>34</ele>
        <time>2021-05-01T09:49:50.514Z</time>
      </trkpt>
      <trkpt lat="44.88465" lon="-0.07361">
        <ele>34</ele>
        <time>2021-05-01T09:49:52.513Z</time>
      </trkpt>
      <trkpt lat="44.88467" lon="-0.07357">
        <ele>34</ele>
        <time>2021-05-01T09:49:55.514Z</time>
      </trkpt>
      <trkpt lat="44.88474" lon="-0.07352">
        <ele>38</ele>
        <time>2021-05-01T09:50:02.514Z</time>
      </trkpt>
      <trkpt lat="44.8848" lon="-0.07343">
        <ele>40</ele>
        <time>2021-05-01T09:50:08.513Z</time>
      </trkpt>
      <trkpt lat="44.88483" lon="-0.0734">
        <ele>41</ele>
        <time>2021-05-01T09:50:10.513Z</time>
      </trkpt>
      <trkpt lat="44.8849" lon="-0.07328">
        <ele>41</ele>
        <time>2021-05-01T09:50:17.514Z</time>
      </trkpt>
      <trkpt lat="44.88491" lon="-0.07324">
        <ele>39</ele>
        <time>2021-05-01T09:50:20.513Z</time>
      </trkpt>
      <trkpt lat="44.88497" lon="-0.07315">
        <ele>39</ele>
        <time>2021-05-01T09:50:26.513Z</time>
      </trkpt>
      <trkpt lat="44.88512" lon="-0.07279">
        <ele>41</ele>
        <time>2021-05-01T09:50:54.513Z</time>
      </trkpt>
      <trkpt lat="44.88516" lon="-0.07275">
        <ele>41</ele>
        <time>2021-05-01T09:50:57.514Z</time>
      </trkpt>
      <trkpt lat="44.88524" lon="-0.07269">
        <ele>40</ele>
        <time>2021-05-01T09:51:03.514Z</time>
      </trkpt>
      <trkpt lat="44.88531" lon="-0.07262">
        <ele>38</ele>
        <time>2021-05-01T09:51:09.513Z</time>
      </trkpt>
      <trkpt lat="44.88532" lon="-0.07259">
        <ele>37</ele>
        <time>2021-05-01T09:51:12.513Z</time>
      </trkpt>
      <trkpt lat="44.88559" lon="-0.07237">
        <ele>39</ele>
        <time>2021-05-01T09:52:53.028Z</time>
      </trkpt>
      <trkpt lat="44.88578" lon="-0.07216">
        <ele>42</ele>
        <time>2021-05-01T09:53:08.029Z</time>
      </trkpt>
      <trkpt lat="44.88582" lon="-0.07204">
        <ele>41</ele>
        <time>2021-05-01T09:53:14.028Z</time>
      </trkpt>
      <trkpt lat="44.88586" lon="-0.07201">
        <ele>41</ele>
        <time>2021-05-01T09:53:16.028Z</time>
      </trkpt>
      <trkpt lat="44.88589" lon="-0.07196">
        <ele>42</ele>
        <time>2021-05-01T09:53:19.029Z</time>
      </trkpt>
      <trkpt lat="44.88593" lon="-0.07178">
        <ele>42</ele>
        <time>2021-05-01T09:53:29.028Z</time>
      </trkpt>
      <trkpt lat="44.88595" lon="-0.0717">
        <ele>43</ele>
        <time>2021-05-01T09:53:33.028Z</time>
      </trkpt>
      <trkpt lat="44.88597" lon="-0.0716">
        <ele>43</ele>
        <time>2021-05-01T09:53:38.028Z</time>
      </trkpt>
      <trkpt lat="44.88594" lon="-0.0715">
        <ele>45</ele>
        <time>2021-05-01T09:53:45.028Z</time>
      </trkpt>
      <trkpt lat="44.88594" lon="-0.07144">
        <ele>46</ele>
        <time>2021-05-01T09:53:49.028Z</time>
      </trkpt>
      <trkpt lat="44.88595" lon="-0.0714">
        <ele>46</ele>
        <time>2021-05-01T09:53:52.028Z</time>
      </trkpt>
      <trkpt lat="44.88596" lon="-0.07126">
        <ele>47</ele>
        <time>2021-05-01T09:54:01.029Z</time>
      </trkpt>
      <trkpt lat="44.886" lon="-0.07115">
        <ele>49</ele>
        <time>2021-05-01T09:54:07.028Z</time>
      </trkpt>
      <trkpt lat="44.88599" lon="-0.07115">
        <ele>50</ele>
        <time>2021-05-01T09:54:09.028Z</time>
      </trkpt>
      <trkpt lat="44.88601" lon="-0.07106">
        <ele>46</ele>
        <time>2021-05-01T09:54:19.029Z</time>
      </trkpt>
      <trkpt lat="44.88608" lon="-0.07095">
        <ele>47</ele>
        <time>2021-05-01T09:54:27.028Z</time>
      </trkpt>
      <trkpt lat="44.88608" lon="-0.0709">
        <ele>48</ele>
        <time>2021-05-01T09:54:30.029Z</time>
      </trkpt>
      <trkpt lat="44.88613" lon="-0.07082">
        <ele>47</ele>
        <time>2021-05-01T09:54:35.028Z</time>
      </trkpt>
      <trkpt lat="44.88615" lon="-0.07078">
        <ele>47</ele>
        <time>2021-05-01T09:54:38.029Z</time>
      </trkpt>
      <trkpt lat="44.88622" lon="-0.07072">
        <ele>48</ele>
        <time>2021-05-01T09:54:45.029Z</time>
      </trkpt>
      <trkpt lat="44.88622" lon="-0.0707">
        <ele>48</ele>
        <time>2021-05-01T09:54:47.029Z</time>
      </trkpt>
      <trkpt lat="44.88628" lon="-0.07066">
        <ele>47</ele>
        <time>2021-05-01T09:54:55.028Z</time>
      </trkpt>
      <trkpt lat="44.88636" lon="-0.07066">
        <ele>48</ele>
        <time>2021-05-01T09:55:02.028Z</time>
      </trkpt>
      <trkpt lat="44.8864" lon="-0.07061">
        <ele>53</ele>
        <time>2021-05-01T09:55:09.028Z</time>
      </trkpt>
      <trkpt lat="44.88645" lon="-0.07062">
        <ele>52</ele>
        <time>2021-05-01T09:55:15.028Z</time>
      </trkpt>
      <trkpt lat="44.88654" lon="-0.07057">
        <ele>49</ele>
        <time>2021-05-01T09:55:23.029Z</time>
      </trkpt>
      <trkpt lat="44.8866" lon="-0.07057">
        <ele>49</ele>
        <time>2021-05-01T09:55:27.028Z</time>
      </trkpt>
      <trkpt lat="44.88668" lon="-0.07054">
        <ele>49</ele>
        <time>2021-05-01T09:55:33.028Z</time>
      </trkpt>
      <trkpt lat="44.88683" lon="-0.07046">
        <ele>50</ele>
        <time>2021-05-01T09:55:45.028Z</time>
      </trkpt>
      <trkpt lat="44.88689" lon="-0.07041">
        <ele>53</ele>
        <time>2021-05-01T09:57:23.797Z</time>
      </trkpt>
      <trkpt lat="44.88708" lon="-0.07034">
        <ele>57</ele>
        <time>2021-05-01T09:57:35.797Z</time>
      </trkpt>
      <trkpt lat="44.88724" lon="-0.07024">
        <ele>55</ele>
        <time>2021-05-01T09:57:51.797Z</time>
      </trkpt>
      <trkpt lat="44.88727" lon="-0.07025">
        <ele>59</ele>
        <time>2021-05-01T09:58:02.799Z</time>
      </trkpt>
      <trkpt lat="44.88732" lon="-0.07022">
        <ele>59</ele>
        <time>2021-05-01T09:58:06.799Z</time>
      </trkpt>
      <trkpt lat="44.88738" lon="-0.07016">
        <ele>58</ele>
        <time>2021-05-01T09:58:11.799Z</time>
      </trkpt>
      <trkpt lat="44.88747" lon="-0.07">
        <ele>59</ele>
        <time>2021-05-01T09:58:24.799Z</time>
      </trkpt>
      <trkpt lat="44.88754" lon="-0.06996">
        <ele>59</ele>
        <time>2021-05-01T09:58:31.798Z</time>
      </trkpt>
      <trkpt lat="44.88757" lon="-0.0699">
        <ele>57</ele>
        <time>2021-05-01T09:58:36.799Z</time>
      </trkpt>
      <trkpt lat="44.88761" lon="-0.06976">
        <ele>58</ele>
        <time>2021-05-01T09:58:47.798Z</time>
      </trkpt>
      <trkpt lat="44.8876" lon="-0.06966">
        <ele>59</ele>
        <time>2021-05-01T09:58:53.799Z</time>
      </trkpt>
      <trkpt lat="44.88762" lon="-0.06959">
        <ele>60</ele>
        <time>2021-05-01T09:58:57.799Z</time>
      </trkpt>
      <trkpt lat="44.88765" lon="-0.06956">
        <ele>61</ele>
        <time>2021-05-01T09:59:00.799Z</time>
      </trkpt>
      <trkpt lat="44.88768" lon="-0.06943">
        <ele>63</ele>
        <time>2021-05-01T09:59:06.799Z</time>
      </trkpt>
      <trkpt lat="44.8877" lon="-0.06942">
        <ele>62</ele>
        <time>2021-05-01T09:59:08.798Z</time>
      </trkpt>
      <trkpt lat="44.88772" lon="-0.06931">
        <ele>61</ele>
        <time>2021-05-01T09:59:16.799Z</time>
      </trkpt>
      <trkpt lat="44.88777" lon="-0.06922">
        <ele>60</ele>
        <time>2021-05-01T09:59:23.799Z</time>
      </trkpt>
      <trkpt lat="44.88779" lon="-0.06913">
        <ele>60</ele>
        <time>2021-05-01T09:59:29.799Z</time>
      </trkpt>
      <trkpt lat="44.88781" lon="-0.06912">
        <ele>60</ele>
        <time>2021-05-01T09:59:31.798Z</time>
      </trkpt>
      <trkpt lat="44.88784" lon="-0.06904">
        <ele>62</ele>
        <time>2021-05-01T09:59:36.798Z</time>
      </trkpt>
      <trkpt lat="44.88785" lon="-0.06892">
        <ele>63</ele>
        <time>2021-05-01T09:59:43.799Z</time>
      </trkpt>
      <trkpt lat="44.88789" lon="-0.06886">
        <ele>63</ele>
        <time>2021-05-01T09:59:49.799Z</time>
      </trkpt>
      <trkpt lat="44.88789" lon="-0.06883">
        <ele>63</ele>
        <time>2021-05-01T09:59:51.799Z</time>
      </trkpt>
      <trkpt lat="44.88792" lon="-0.0688">
        <ele>63</ele>
        <time>2021-05-01T09:59:54.798Z</time>
      </trkpt>
      <trkpt lat="44.88792" lon="-0.06873">
        <ele>64</ele>
        <time>2021-05-01T09:59:58.798Z</time>
      </trkpt>
      <trkpt lat="44.88796" lon="-0.06866">
        <ele>64</ele>
        <time>2021-05-01T10:00:03.798Z</time>
      </trkpt>
      <trkpt lat="44.88805" lon="-0.06861">
        <ele>67</ele>
        <time>2021-05-01T10:00:13.799Z</time>
      </trkpt>
      <trkpt lat="44.88807" lon="-0.06851">
        <ele>70</ele>
        <time>2021-05-01T10:00:19.799Z</time>
      </trkpt>
      <trkpt lat="44.88812" lon="-0.06844">
        <ele>68</ele>
        <time>2021-05-01T10:00:27.799Z</time>
      </trkpt>
      <trkpt lat="44.88816" lon="-0.06841">
        <ele>69</ele>
        <time>2021-05-01T10:00:31.799Z</time>
      </trkpt>
      <trkpt lat="44.88816" lon="-0.06839">
        <ele>69</ele>
        <time>2021-05-01T10:00:32.799Z</time>
      </trkpt>
      <trkpt lat="44.8883" lon="-0.06823">
        <ele>67</ele>
        <time>2021-05-01T10:00:49.799Z</time>
      </trkpt>
      <trkpt lat="44.88842" lon="-0.06815">
        <ele>68</ele>
        <time>2021-05-01T10:01:01.799Z</time>
      </trkpt>
      <trkpt lat="44.88847" lon="-0.06809">
        <ele>67</ele>
        <time>2021-05-01T10:01:07.798Z</time>
      </trkpt>
      <trkpt lat="44.8885" lon="-0.06807">
        <ele>67</ele>
        <time>2021-05-01T10:01:10.798Z</time>
      </trkpt>
      <trkpt lat="44.88858" lon="-0.068">
        <ele>66</ele>
        <time>2021-05-01T10:01:18.799Z</time>
      </trkpt>
      <trkpt lat="44.88863" lon="-0.0679">
        <ele>69</ele>
        <time>2021-05-01T10:01:26.799Z</time>
      </trkpt>
      <trkpt lat="44.88863" lon="-0.06788">
        <ele>69</ele>
        <time>2021-05-01T10:01:28.799Z</time>
      </trkpt>
      <trkpt lat="44.88866" lon="-0.0678">
        <ele>69</ele>
        <time>2021-05-01T10:01:35.799Z</time>
      </trkpt>
      <trkpt lat="44.88867" lon="-0.06772">
        <ele>71</ele>
        <time>2021-05-01T10:01:41.799Z</time>
      </trkpt>
      <trkpt lat="44.88864" lon="-0.06768">
        <ele>71</ele>
        <time>2021-05-01T10:01:44.799Z</time>
      </trkpt>
      <trkpt lat="44.88878" lon="-0.06767">
        <ele>72</ele>
        <time>2021-05-01T10:01:49.799Z</time>
      </trkpt>
      <trkpt lat="44.88879" lon="-0.06769">
        <ele>71</ele>
        <time>2021-05-01T10:01:52.799Z</time>
      </trkpt>
      <trkpt lat="44.88887" lon="-0.06773">
        <ele>69</ele>
        <time>2021-05-01T10:01:58.798Z</time>
      </trkpt>
      <trkpt lat="44.88893" lon="-0.06773">
        <ele>67</ele>
        <time>2021-05-01T10:02:01.799Z</time>
      </trkpt>
      <trkpt lat="44.88907" lon="-0.06781">
        <ele>66</ele>
        <time>2021-05-01T10:02:10.799Z</time>
      </trkpt>
      <trkpt lat="44.88912" lon="-0.06782">
        <ele>65</ele>
        <time>2021-05-01T10:02:13.799Z</time>
      </trkpt>
      <trkpt lat="44.88923" lon="-0.06786">
        <ele>65</ele>
        <time>2021-05-01T10:02:20.799Z</time>
      </trkpt>
      <trkpt lat="44.88924" lon="-0.06788">
        <ele>65</ele>
        <time>2021-05-01T10:02:22.798Z</time>
      </trkpt>
      <trkpt lat="44.88927" lon="-0.0679">
        <ele>66</ele>
        <time>2021-05-01T10:02:26.799Z</time>
      </trkpt>
      <trkpt lat="44.88939" lon="-0.06793">
        <ele>65</ele>
        <time>2021-05-01T10:02:37.799Z</time>
      </trkpt>
      <trkpt lat="44.88941" lon="-0.06792">
        <ele>65</ele>
        <time>2021-05-01T10:02:39.799Z</time>
      </trkpt>
      <trkpt lat="44.88948" lon="-0.06794">
        <ele>66</ele>
        <time>2021-05-01T10:02:45.798Z</time>
      </trkpt>
      <trkpt lat="44.88949" lon="-0.06793">
        <ele>64</ele>
        <time>2021-05-01T10:02:50.798Z</time>
      </trkpt>
      <trkpt lat="44.88949" lon="-0.06795">
        <ele>64</ele>
        <time>2021-05-01T10:02:53.799Z</time>
      </trkpt>
      <trkpt lat="44.88951" lon="-0.06799">
        <ele>64</ele>
        <time>2021-05-01T10:02:55.798Z</time>
      </trkpt>
      <trkpt lat="44.88952" lon="-0.06799">
        <ele>64</ele>
        <time>2021-05-01T10:02:56.799Z</time>
      </trkpt>
      <trkpt lat="44.8896" lon="-0.06809">
        <ele>64</ele>
        <time>2021-05-01T10:03:03.799Z</time>
      </trkpt>
      <trkpt lat="44.88963" lon="-0.0682">
        <ele>66</ele>
        <time>2021-05-01T10:03:08.799Z</time>
      </trkpt>
      <trkpt lat="44.88971" lon="-0.06826">
        <ele>67</ele>
        <time>2021-05-01T10:03:15.799Z</time>
      </trkpt>
      <trkpt lat="44.88976" lon="-0.06836">
        <ele>68</ele>
        <time>2021-05-01T10:03:22.798Z</time>
      </trkpt>
      <trkpt lat="44.88987" lon="-0.0685">
        <ele>68</ele>
        <time>2021-05-01T10:03:32.798Z</time>
      </trkpt>
      <trkpt lat="44.88991" lon="-0.06853">
        <ele>68</ele>
        <time>2021-05-01T10:03:35.799Z</time>
      </trkpt>
      <trkpt lat="44.88995" lon="-0.0686">
        <ele>69</ele>
        <time>2021-05-01T10:03:40.799Z</time>
      </trkpt>
      <trkpt lat="44.89011" lon="-0.06874">
        <ele>68</ele>
        <time>2021-05-01T10:03:55.798Z</time>
      </trkpt>
      <trkpt lat="44.89018" lon="-0.06884">
        <ele>68</ele>
        <time>2021-05-01T10:04:01.798Z</time>
      </trkpt>
      <trkpt lat="44.89019" lon="-0.06888">
        <ele>68</ele>
        <time>2021-05-01T10:04:03.799Z</time>
      </trkpt>
      <trkpt lat="44.89023" lon="-0.06892">
        <ele>69</ele>
        <time>2021-05-01T10:04:07.799Z</time>
      </trkpt>
      <trkpt lat="44.89025" lon="-0.06896">
        <ele>69</ele>
        <time>2021-05-01T10:04:09.799Z</time>
      </trkpt>
      <trkpt lat="44.89031" lon="-0.06902">
        <ele>69</ele>
        <time>2021-05-01T10:04:14.799Z</time>
      </trkpt>
      <trkpt lat="44.89034" lon="-0.06907">
        <ele>69</ele>
        <time>2021-05-01T10:04:16.799Z</time>
      </trkpt>
      <trkpt lat="44.89043" lon="-0.06913">
        <ele>69</ele>
        <time>2021-05-01T10:04:23.799Z</time>
      </trkpt>
      <trkpt lat="44.89048" lon="-0.0692">
        <ele>70</ele>
        <time>2021-05-01T10:04:28.799Z</time>
      </trkpt>
      <trkpt lat="44.89056" lon="-0.06922">
        <ele>69</ele>
        <time>2021-05-01T10:04:32.799Z</time>
      </trkpt>
      <trkpt lat="44.89061" lon="-0.06926">
        <ele>68</ele>
        <time>2021-05-01T10:04:36.799Z</time>
      </trkpt>
      <trkpt lat="44.89065" lon="-0.06933">
        <ele>68</ele>
        <time>2021-05-01T10:04:40.799Z</time>
      </trkpt>
      <trkpt lat="44.89073" lon="-0.0694">
        <ele>68</ele>
        <time>2021-05-01T10:04:47.799Z</time>
      </trkpt>
      <trkpt lat="44.89083" lon="-0.06952">
        <ele>69</ele>
        <time>2021-05-01T10:04:55.799Z</time>
      </trkpt>
      <trkpt lat="44.89103" lon="-0.0698">
        <ele>71</ele>
        <time>2021-05-01T10:05:14.799Z</time>
      </trkpt>
      <trkpt lat="44.89108" lon="-0.06984">
        <ele>71</ele>
        <time>2021-05-01T10:05:18.799Z</time>
      </trkpt>
      <trkpt lat="44.89127" lon="-0.07011">
        <ele>75</ele>
        <time>2021-05-01T10:05:37.799Z</time>
      </trkpt>
      <trkpt lat="44.89128" lon="-0.07014">
        <ele>75</ele>
        <time>2021-05-01T10:05:39.798Z</time>
      </trkpt>
      <trkpt lat="44.89134" lon="-0.0702">
        <ele>74</ele>
        <time>2021-05-01T10:05:46.799Z</time>
      </trkpt>
      <trkpt lat="44.89138" lon="-0.07031">
        <ele>74</ele>
        <time>2021-05-01T10:05:53.798Z</time>
      </trkpt>
      <trkpt lat="44.8914" lon="-0.07032">
        <ele>74</ele>
        <time>2021-05-01T10:05:55.799Z</time>
      </trkpt>
      <trkpt lat="44.89143" lon="-0.07037">
        <ele>72</ele>
        <time>2021-05-01T10:06:00.799Z</time>
      </trkpt>
      <trkpt lat="44.89143" lon="-0.07042">
        <ele>71</ele>
        <time>2021-05-01T10:06:03.798Z</time>
      </trkpt>
      <trkpt lat="44.89146" lon="-0.07046">
        <ele>71</ele>
        <time>2021-05-01T10:06:07.799Z</time>
      </trkpt>
      <trkpt lat="44.89147" lon="-0.07051">
        <ele>70</ele>
        <time>2021-05-01T10:06:10.798Z</time>
      </trkpt>
      <trkpt lat="44.89147" lon="-0.07057">
        <ele>72</ele>
        <time>2021-05-01T10:06:14.799Z</time>
      </trkpt>
      <trkpt lat="44.89145" lon="-0.07068">
        <ele>75</ele>
        <time>2021-05-01T10:06:22.798Z</time>
      </trkpt>
      <trkpt lat="44.89142" lon="-0.07074">
        <ele>75</ele>
        <time>2021-05-01T10:06:27.799Z</time>
      </trkpt>
      <trkpt lat="44.8913" lon="-0.07097">
        <ele>79</ele>
        <time>2021-05-01T10:06:44.799Z</time>
      </trkpt>
      <trkpt lat="44.89127" lon="-0.07108">
        <ele>80</ele>
        <time>2021-05-01T10:06:54.799Z</time>
      </trkpt>
      <trkpt lat="44.89128" lon="-0.0711">
        <ele>81</ele>
        <time>2021-05-01T10:06:59.799Z</time>
      </trkpt>
      <trkpt lat="44.89118" lon="-0.07121">
        <ele>88</ele>
        <time>2021-05-01T10:07:10.799Z</time>
      </trkpt>
      <trkpt lat="44.89117" lon="-0.07124">
        <ele>88</ele>
        <time>2021-05-01T10:07:12.798Z</time>
      </trkpt>
      <trkpt lat="44.89112" lon="-0.07139">
        <ele>85</ele>
        <time>2021-05-01T10:07:22.799Z</time>
      </trkpt>
      <trkpt lat="44.89109" lon="-0.07142">
        <ele>85</ele>
        <time>2021-05-01T10:07:24.799Z</time>
      </trkpt>
      <trkpt lat="44.89109" lon="-0.07145">
        <ele>85</ele>
        <time>2021-05-01T10:07:25.799Z</time>
      </trkpt>
      <trkpt lat="44.89106" lon="-0.07149">
        <ele>86</ele>
        <time>2021-05-01T10:07:29.799Z</time>
      </trkpt>
      <trkpt lat="44.89103" lon="-0.07159">
        <ele>88</ele>
        <time>2021-05-01T10:07:35.798Z</time>
      </trkpt>
      <trkpt lat="44.89103" lon="-0.07163">
        <ele>88</ele>
        <time>2021-05-01T10:07:37.798Z</time>
      </trkpt>
      <trkpt lat="44.89096" lon="-0.07185">
        <ele>87</ele>
        <time>2021-05-01T10:07:52.799Z</time>
      </trkpt>
      <trkpt lat="44.89091" lon="-0.07194">
        <ele>87</ele>
        <time>2021-05-01T10:07:57.799Z</time>
      </trkpt>
      <trkpt lat="44.89082" lon="-0.07204">
        <ele>88</ele>
        <time>2021-05-01T10:08:05.799Z</time>
      </trkpt>
      <trkpt lat="44.89079" lon="-0.07214">
        <ele>86</ele>
        <time>2021-05-01T10:08:12.799Z</time>
      </trkpt>
      <trkpt lat="44.89076" lon="-0.07234">
        <ele>81</ele>
        <time>2021-05-01T10:08:22.799Z</time>
      </trkpt>
      <trkpt lat="44.89073" lon="-0.07242">
        <ele>81</ele>
        <time>2021-05-01T10:08:27.799Z</time>
      </trkpt>
      <trkpt lat="44.8907" lon="-0.07276">
        <ele>82</ele>
        <time>2021-05-01T10:08:43.799Z</time>
      </trkpt>
      <trkpt lat="44.89068" lon="-0.07281">
        <ele>82</ele>
        <time>2021-05-01T10:08:45.798Z</time>
      </trkpt>
      <trkpt lat="44.89067" lon="-0.07305">
        <ele>83</ele>
        <time>2021-05-01T10:08:56.799Z</time>
      </trkpt>
      <trkpt lat="44.89068" lon="-0.07327">
        <ele>83</ele>
        <time>2021-05-01T10:09:06.798Z</time>
      </trkpt>
      <trkpt lat="44.89066" lon="-0.07334">
        <ele>84</ele>
        <time>2021-05-01T10:09:13.798Z</time>
      </trkpt>
      <trkpt lat="44.89066" lon="-0.07339">
        <ele>83</ele>
        <time>2021-05-01T10:09:16.799Z</time>
      </trkpt>
      <trkpt lat="44.89062" lon="-0.07356">
        <ele>86</ele>
        <time>2021-05-01T10:09:23.799Z</time>
      </trkpt>
      <trkpt lat="44.89063" lon="-0.0737">
        <ele>86</ele>
        <time>2021-05-01T10:09:30.799Z</time>
      </trkpt>
      <trkpt lat="44.89061" lon="-0.07381">
        <ele>86</ele>
        <time>2021-05-01T10:09:34.799Z</time>
      </trkpt>
      <trkpt lat="44.89061" lon="-0.07415">
        <ele>85</ele>
        <time>2021-05-01T10:09:49.799Z</time>
      </trkpt>
      <trkpt lat="44.89065" lon="-0.07428">
        <ele>84</ele>
        <time>2021-05-01T10:09:56.799Z</time>
      </trkpt>
      <trkpt lat="44.8908" lon="-0.07462">
        <ele>85</ele>
        <time>2021-05-01T10:10:17.799Z</time>
      </trkpt>
      <trkpt lat="44.89086" lon="-0.07491">
        <ele>83</ele>
        <time>2021-05-01T10:10:30.799Z</time>
      </trkpt>
      <trkpt lat="44.89089" lon="-0.07512">
        <ele>80</ele>
        <time>2021-05-01T10:10:41.798Z</time>
      </trkpt>
      <trkpt lat="44.89089" lon="-0.07531">
        <ele>80</ele>
        <time>2021-05-01T10:10:50.799Z</time>
      </trkpt>
      <trkpt lat="44.89088" lon="-0.07544">
        <ele>77</ele>
        <time>2021-05-01T10:10:58.799Z</time>
      </trkpt>
      <trkpt lat="44.89085" lon="-0.07586">
        <ele>77</ele>
        <time>2021-05-01T10:11:29.798Z</time>
      </trkpt>
      <trkpt lat="44.89082" lon="-0.07598">
        <ele>79</ele>
        <time>2021-05-01T10:11:37.799Z</time>
      </trkpt>
      <trkpt lat="44.89083" lon="-0.07617">
        <ele>78</ele>
        <time>2021-05-01T10:11:56.798Z</time>
      </trkpt>
      <trkpt lat="44.89082" lon="-0.07621">
        <ele>78</ele>
        <time>2021-05-01T10:11:58.799Z</time>
      </trkpt>
      <trkpt lat="44.89084" lon="-0.07627">
        <ele>77</ele>
        <time>2021-05-01T10:12:02.798Z</time>
      </trkpt>
      <trkpt lat="44.89083" lon="-0.07632">
        <ele>77</ele>
        <time>2021-05-01T10:12:04.799Z</time>
      </trkpt>
      <trkpt lat="44.89086" lon="-0.07659">
        <ele>75</ele>
        <time>2021-05-01T10:12:18.799Z</time>
      </trkpt>
      <trkpt lat="44.89087" lon="-0.07665">
        <ele>75</ele>
        <time>2021-05-01T10:12:22.799Z</time>
      </trkpt>
      <trkpt lat="44.89087" lon="-0.07675">
        <ele>75</ele>
        <time>2021-05-01T10:12:27.798Z</time>
      </trkpt>
      <trkpt lat="44.89089" lon="-0.0769">
        <ele>76</ele>
        <time>2021-05-01T10:12:33.798Z</time>
      </trkpt>
      <trkpt lat="44.89092" lon="-0.07699">
        <ele>75</ele>
        <time>2021-05-01T10:12:38.799Z</time>
      </trkpt>
      <trkpt lat="44.89095" lon="-0.07712">
        <ele>77</ele>
        <time>2021-05-01T10:12:44.799Z</time>
      </trkpt>
      <trkpt lat="44.89097" lon="-0.07716">
        <ele>77</ele>
        <time>2021-05-01T10:12:47.799Z</time>
      </trkpt>
      <trkpt lat="44.89098" lon="-0.07721">
        <ele>76</ele>
        <time>2021-05-01T10:12:49.799Z</time>
      </trkpt>
      <trkpt lat="44.89101" lon="-0.07727">
        <ele>76</ele>
        <time>2021-05-01T10:12:52.799Z</time>
      </trkpt>
      <trkpt lat="44.891" lon="-0.0773">
        <ele>75</ele>
        <time>2021-05-01T10:12:53.798Z</time>
      </trkpt>
      <trkpt lat="44.89102" lon="-0.07734">
        <ele>75</ele>
        <time>2021-05-01T10:12:55.799Z</time>
      </trkpt>
      <trkpt lat="44.89109" lon="-0.07745">
        <ele>75</ele>
        <time>2021-05-01T10:13:02.799Z</time>
      </trkpt>
      <trkpt lat="44.89121" lon="-0.07757">
        <ele>76</ele>
        <time>2021-05-01T10:13:11.799Z</time>
      </trkpt>
      <trkpt lat="44.89132" lon="-0.07764">
        <ele>76</ele>
        <time>2021-05-01T10:13:21.799Z</time>
      </trkpt>
      <trkpt lat="44.89137" lon="-0.07766">
        <ele>75</ele>
        <time>2021-05-01T10:13:24.798Z</time>
      </trkpt>
      <trkpt lat="44.89145" lon="-0.07774">
        <ele>76</ele>
        <time>2021-05-01T10:13:30.798Z</time>
      </trkpt>
      <trkpt lat="44.89162" lon="-0.07773">
        <ele>72</ele>
        <time>2021-05-01T10:13:40.799Z</time>
      </trkpt>
      <trkpt lat="44.89164" lon="-0.07775">
        <ele>71</ele>
        <time>2021-05-01T10:13:42.798Z</time>
      </trkpt>
      <trkpt lat="44.89174" lon="-0.07777">
        <ele>72</ele>
        <time>2021-05-01T10:13:48.799Z</time>
      </trkpt>
      <trkpt lat="44.89178" lon="-0.0778">
        <ele>72</ele>
        <time>2021-05-01T10:13:51.798Z</time>
      </trkpt>
      <trkpt lat="44.89186" lon="-0.0779">
        <ele>73</ele>
        <time>2021-05-01T10:13:59.799Z</time>
      </trkpt>
      <trkpt lat="44.89191" lon="-0.07799">
        <ele>72</ele>
        <time>2021-05-01T10:14:04.799Z</time>
      </trkpt>
      <trkpt lat="44.89196" lon="-0.07812">
        <ele>72</ele>
        <time>2021-05-01T10:14:11.799Z</time>
      </trkpt>
      <trkpt lat="44.89201" lon="-0.07818">
        <ele>71</ele>
        <time>2021-05-01T10:14:15.798Z</time>
      </trkpt>
      <trkpt lat="44.89203" lon="-0.07823">
        <ele>71</ele>
        <time>2021-05-01T10:14:18.799Z</time>
      </trkpt>
      <trkpt lat="44.89209" lon="-0.07833">
        <ele>70</ele>
        <time>2021-05-01T10:14:24.799Z</time>
      </trkpt>
      <trkpt lat="44.89214" lon="-0.07846">
        <ele>71</ele>
        <time>2021-05-01T10:14:30.799Z</time>
      </trkpt>
      <trkpt lat="44.89218" lon="-0.07853">
        <ele>73</ele>
        <time>2021-05-01T10:14:34.799Z</time>
      </trkpt>
      <trkpt lat="44.8923" lon="-0.07865">
        <ele>71</ele>
        <time>2021-05-01T10:14:44.798Z</time>
      </trkpt>
      <trkpt lat="44.89238" lon="-0.07881">
        <ele>69</ele>
        <time>2021-05-01T10:14:53.799Z</time>
      </trkpt>
      <trkpt lat="44.89246" lon="-0.0789">
        <ele>69</ele>
        <time>2021-05-01T10:15:00.799Z</time>
      </trkpt>
      <trkpt lat="44.89249" lon="-0.07902">
        <ele>69</ele>
        <time>2021-05-01T10:15:06.799Z</time>
      </trkpt>
      <trkpt lat="44.89256" lon="-0.07906">
        <ele>70</ele>
        <time>2021-05-01T10:15:11.799Z</time>
      </trkpt>
      <trkpt lat="44.89269" lon="-0.07923">
        <ele>68</ele>
        <time>2021-05-01T10:15:22.799Z</time>
      </trkpt>
      <trkpt lat="44.89273" lon="-0.07926">
        <ele>68</ele>
        <time>2021-05-01T10:15:25.799Z</time>
      </trkpt>
      <trkpt lat="44.89277" lon="-0.07933">
        <ele>68</ele>
        <time>2021-05-01T10:15:29.799Z</time>
      </trkpt>
      <trkpt lat="44.89284" lon="-0.07938">
        <ele>68</ele>
        <time>2021-05-01T10:15:34.799Z</time>
      </trkpt>
      <trkpt lat="44.89288" lon="-0.07944">
        <ele>69</ele>
        <time>2021-05-01T10:15:38.799Z</time>
      </trkpt>
      <trkpt lat="44.89298" lon="-0.07954">
        <ele>70</ele>
        <time>2021-05-01T10:15:46.798Z</time>
      </trkpt>
      <trkpt lat="44.89302" lon="-0.07956">
        <ele>69</ele>
        <time>2021-05-01T10:15:49.799Z</time>
      </trkpt>
      <trkpt lat="44.89309" lon="-0.07965">
        <ele>70</ele>
        <time>2021-05-01T10:15:55.799Z</time>
      </trkpt>
      <trkpt lat="44.89322" lon="-0.07976">
        <ele>70</ele>
        <time>2021-05-01T10:16:05.799Z</time>
      </trkpt>
      <trkpt lat="44.89323" lon="-0.07978">
        <ele>70</ele>
        <time>2021-05-01T10:16:06.798Z</time>
      </trkpt>
      <trkpt lat="44.89344" lon="-0.07993">
        <ele>71</ele>
        <time>2021-05-01T10:16:22.798Z</time>
      </trkpt>
      <trkpt lat="44.8935" lon="-0.07996">
        <ele>70</ele>
        <time>2021-05-01T10:16:26.798Z</time>
      </trkpt>
      <trkpt lat="44.89352" lon="-0.07998">
        <ele>71</ele>
        <time>2021-05-01T10:16:28.798Z</time>
      </trkpt>
      <trkpt lat="44.89352" lon="-0.08001">
        <ele>71</ele>
        <time>2021-05-01T10:16:29.798Z</time>
      </trkpt>
      <trkpt lat="44.89363" lon="-0.08011">
        <ele>72</ele>
        <time>2021-05-01T10:16:38.799Z</time>
      </trkpt>
      <trkpt lat="44.89366" lon="-0.08015">
        <ele>70</ele>
        <time>2021-05-01T10:16:41.799Z</time>
      </trkpt>
      <trkpt lat="44.8938" lon="-0.08022">
        <ele>67</ele>
        <time>2021-05-01T10:16:52.799Z</time>
      </trkpt>
      <trkpt lat="44.89392" lon="-0.08031">
        <ele>65</ele>
        <time>2021-05-01T10:17:03.799Z</time>
      </trkpt>
      <trkpt lat="44.89398" lon="-0.08039">
        <ele>65</ele>
        <time>2021-05-01T10:17:10.799Z</time>
      </trkpt>
      <trkpt lat="44.89407" lon="-0.08044">
        <ele>63</ele>
        <time>2021-05-01T10:17:17.798Z</time>
      </trkpt>
      <trkpt lat="44.89409" lon="-0.08049">
        <ele>63</ele>
        <time>2021-05-01T10:17:20.799Z</time>
      </trkpt>
      <trkpt lat="44.89412" lon="-0.0805">
        <ele>62</ele>
        <time>2021-05-01T10:17:23.799Z</time>
      </trkpt>
      <trkpt lat="44.89417" lon="-0.08056">
        <ele>61</ele>
        <time>2021-05-01T10:17:28.799Z</time>
      </trkpt>
      <trkpt lat="44.89426" lon="-0.08072">
        <ele>61</ele>
        <time>2021-05-01T10:17:37.799Z</time>
      </trkpt>
      <trkpt lat="44.89431" lon="-0.08077">
        <ele>61</ele>
        <time>2021-05-01T10:17:41.799Z</time>
      </trkpt>
      <trkpt lat="44.89436" lon="-0.08085">
        <ele>60</ele>
        <time>2021-05-01T10:17:46.799Z</time>
      </trkpt>
      <trkpt lat="44.89438" lon="-0.08093">
        <ele>60</ele>
        <time>2021-05-01T10:17:50.799Z</time>
      </trkpt>
      <trkpt lat="44.89441" lon="-0.08096">
        <ele>60</ele>
        <time>2021-05-01T10:17:52.799Z</time>
      </trkpt>
      <trkpt lat="44.89448" lon="-0.08109">
        <ele>59</ele>
        <time>2021-05-01T10:18:02.799Z</time>
      </trkpt>
      <trkpt lat="44.8945" lon="-0.08118">
        <ele>59</ele>
        <time>2021-05-01T10:18:09.799Z</time>
      </trkpt>
      <trkpt lat="44.89456" lon="-0.0813">
        <ele>58</ele>
        <time>2021-05-01T10:18:17.799Z</time>
      </trkpt>
      <trkpt lat="44.89459" lon="-0.08146">
        <ele>58</ele>
        <time>2021-05-01T10:18:27.799Z</time>
      </trkpt>
      <trkpt lat="44.89466" lon="-0.08161">
        <ele>55</ele>
        <time>2021-05-01T10:18:38.799Z</time>
      </trkpt>
      <trkpt lat="44.8947" lon="-0.08167">
        <ele>54</ele>
        <time>2021-05-01T10:18:48.799Z</time>
      </trkpt>
      <trkpt lat="44.89463" lon="-0.08174">
        <ele>52</ele>
        <time>2021-05-01T10:18:57.798Z</time>
      </trkpt>
      <trkpt lat="44.89457" lon="-0.08176">
        <ele>53</ele>
        <time>2021-05-01T10:19:02.799Z</time>
      </trkpt>
      <trkpt lat="44.89447" lon="-0.08176">
        <ele>54</ele>
        <time>2021-05-01T10:19:10.799Z</time>
      </trkpt>
      <trkpt lat="44.89445" lon="-0.08177">
        <ele>54</ele>
        <time>2021-05-01T10:19:12.799Z</time>
      </trkpt>
      <trkpt lat="44.89428" lon="-0.08174">
        <ele>58</ele>
        <time>2021-05-01T10:19:21.798Z</time>
      </trkpt>
      <trkpt lat="44.89398" lon="-0.08156">
        <ele>56</ele>
        <time>2021-05-01T10:19:42.799Z</time>
      </trkpt>
      <trkpt lat="44.89384" lon="-0.0815">
        <ele>55</ele>
        <time>2021-05-01T10:19:52.799Z</time>
      </trkpt>
      <trkpt lat="44.89377" lon="-0.08152">
        <ele>56</ele>
        <time>2021-05-01T10:19:57.799Z</time>
      </trkpt>
      <trkpt lat="44.89372" lon="-0.08151">
        <ele>56</ele>
        <time>2021-05-01T10:20:02.798Z</time>
      </trkpt>
      <trkpt lat="44.89355" lon="-0.08156">
        <ele>54</ele>
        <time>2021-05-01T10:20:16.799Z</time>
      </trkpt>
      <trkpt lat="44.89342" lon="-0.0817">
        <ele>51</ele>
        <time>2021-05-01T10:20:27.799Z</time>
      </trkpt>
      <trkpt lat="44.89319" lon="-0.08187">
        <ele>53</ele>
        <time>2021-05-01T10:26:52.760Z</time>
      </trkpt>
      <trkpt lat="44.89315" lon="-0.08192">
        <ele>51</ele>
        <time>2021-05-01T10:26:56.759Z</time>
      </trkpt>
      <trkpt lat="44.893" lon="-0.08203">
        <ele>49</ele>
        <time>2021-05-01T10:27:07.760Z</time>
      </trkpt>
      <trkpt lat="44.89295" lon="-0.0821">
        <ele>50</ele>
        <time>2021-05-01T10:27:11.760Z</time>
      </trkpt>
      <trkpt lat="44.8926" lon="-0.08242">
        <ele>53</ele>
        <time>2021-05-01T10:27:39.759Z</time>
      </trkpt>
      <trkpt lat="44.89253" lon="-0.08252">
        <ele>52</ele>
        <time>2021-05-01T10:27:45.760Z</time>
      </trkpt>
      <trkpt lat="44.89248" lon="-0.08261">
        <ele>47</ele>
        <time>2021-05-01T10:27:51.760Z</time>
      </trkpt>
      <trkpt lat="44.89228" lon="-0.08291">
        <ele>48</ele>
        <time>2021-05-01T10:28:10.760Z</time>
      </trkpt>
      <trkpt lat="44.89221" lon="-0.08302">
        <ele>49</ele>
        <time>2021-05-01T10:28:18.760Z</time>
      </trkpt>
      <trkpt lat="44.89215" lon="-0.08307">
        <ele>50</ele>
        <time>2021-05-01T10:28:25.760Z</time>
      </trkpt>
      <trkpt lat="44.89214" lon="-0.08311">
        <ele>51</ele>
        <time>2021-05-01T10:28:28.759Z</time>
      </trkpt>
      <trkpt lat="44.89213" lon="-0.08323">
        <ele>51</ele>
        <time>2021-05-01T10:28:35.760Z</time>
      </trkpt>
      <trkpt lat="44.89216" lon="-0.0833">
        <ele>50</ele>
        <time>2021-05-01T10:28:41.760Z</time>
      </trkpt>
      <trkpt lat="44.89215" lon="-0.08346">
        <ele>54</ele>
        <time>2021-05-01T10:28:51.760Z</time>
      </trkpt>
      <trkpt lat="44.89215" lon="-0.08358">
        <ele>57</ele>
        <time>2021-05-01T10:30:33.493Z</time>
      </trkpt>
      <trkpt lat="44.89218" lon="-0.08365">
        <ele>56</ele>
        <time>2021-05-01T10:30:37.493Z</time>
      </trkpt>
      <trkpt lat="44.89218" lon="-0.08372">
        <ele>54</ele>
        <time>2021-05-01T10:30:41.493Z</time>
      </trkpt>
      <trkpt lat="44.8925" lon="-0.08553">
        <ele>58</ele>
        <time>2021-05-01T10:30:49.494Z</time>
      </trkpt>
      <trkpt lat="44.8925" lon="-0.08552">
        <ele>59</ele>
        <time>2021-05-01T10:30:50.493Z</time>
      </trkpt>
      <trkpt lat="44.89252" lon="-0.08563">
        <ele>60</ele>
        <time>2021-05-01T10:30:58.494Z</time>
      </trkpt>
      <trkpt lat="44.89252" lon="-0.08571">
        <ele>60</ele>
        <time>2021-05-01T10:31:02.494Z</time>
      </trkpt>
      <trkpt lat="44.89253" lon="-0.08578">
        <ele>59</ele>
        <time>2021-05-01T10:31:06.494Z</time>
      </trkpt>
      <trkpt lat="44.89252" lon="-0.08602">
        <ele>65</ele>
        <time>2021-05-01T10:31:20.494Z</time>
      </trkpt>
      <trkpt lat="44.89255" lon="-0.08618">
        <ele>63</ele>
        <time>2021-05-01T10:31:28.494Z</time>
      </trkpt>
      <trkpt lat="44.89255" lon="-0.08623">
        <ele>63</ele>
        <time>2021-05-01T10:31:31.494Z</time>
      </trkpt>
      <trkpt lat="44.89256" lon="-0.08624">
        <ele>63</ele>
        <time>2021-05-01T10:31:32.494Z</time>
      </trkpt>
      <trkpt lat="44.89256" lon="-0.08632">
        <ele>62</ele>
        <time>2021-05-01T10:31:38.494Z</time>
      </trkpt>
      <trkpt lat="44.89256" lon="-0.08646">
        <ele>60</ele>
        <time>2021-05-01T10:31:45.493Z</time>
      </trkpt>
      <trkpt lat="44.89256" lon="-0.0866">
        <ele>60</ele>
        <time>2021-05-01T10:31:52.493Z</time>
      </trkpt>
      <trkpt lat="44.89255" lon="-0.08691">
        <ele>60</ele>
        <time>2021-05-01T10:32:07.494Z</time>
      </trkpt>
      <trkpt lat="44.89251" lon="-0.0872">
        <ele>61</ele>
        <time>2021-05-01T10:32:20.493Z</time>
      </trkpt>
      <trkpt lat="44.89244" lon="-0.08746">
        <ele>64</ele>
        <time>2021-05-01T10:32:33.494Z</time>
      </trkpt>
      <trkpt lat="44.89242" lon="-0.08761">
        <ele>65</ele>
        <time>2021-05-01T10:32:41.494Z</time>
      </trkpt>
      <trkpt lat="44.8924" lon="-0.08779">
        <ele>65</ele>
        <time>2021-05-01T10:32:50.494Z</time>
      </trkpt>
      <trkpt lat="44.89239" lon="-0.08782">
        <ele>66</ele>
        <time>2021-05-01T10:32:52.494Z</time>
      </trkpt>
      <trkpt lat="44.89236" lon="-0.08804">
        <ele>65</ele>
        <time>2021-05-01T10:33:03.494Z</time>
      </trkpt>
      <trkpt lat="44.89235" lon="-0.08823">
        <ele>63</ele>
        <time>2021-05-01T10:33:13.494Z</time>
      </trkpt>
      <trkpt lat="44.89232" lon="-0.08842">
        <ele>65</ele>
        <time>2021-05-01T10:33:23.494Z</time>
      </trkpt>
      <trkpt lat="44.89231" lon="-0.0885">
        <ele>62</ele>
        <time>2021-05-01T10:33:27.493Z</time>
      </trkpt>
      <trkpt lat="44.89226" lon="-0.08878">
        <ele>63</ele>
        <time>2021-05-01T10:33:40.494Z</time>
      </trkpt>
      <trkpt lat="44.89223" lon="-0.08903">
        <ele>63</ele>
        <time>2021-05-01T10:33:55.494Z</time>
      </trkpt>
      <trkpt lat="44.89223" lon="-0.08908">
        <ele>62</ele>
        <time>2021-05-01T10:33:59.494Z</time>
      </trkpt>
      <trkpt lat="44.89224" lon="-0.0891">
        <ele>62</ele>
        <time>2021-05-01T10:34:01.493Z</time>
      </trkpt>
      <trkpt lat="44.89223" lon="-0.08918">
        <ele>61</ele>
        <time>2021-05-01T10:34:06.494Z</time>
      </trkpt>
      <trkpt lat="44.89224" lon="-0.0893">
        <ele>60</ele>
        <time>2021-05-01T10:34:12.494Z</time>
      </trkpt>
      <trkpt lat="44.89225" lon="-0.08935">
        <ele>59</ele>
        <time>2021-05-01T10:34:15.493Z</time>
      </trkpt>
      <trkpt lat="44.89226" lon="-0.08946">
        <ele>59</ele>
        <time>2021-05-01T10:34:21.494Z</time>
      </trkpt>
      <trkpt lat="44.89225" lon="-0.08948">
        <ele>60</ele>
        <time>2021-05-01T10:34:23.493Z</time>
      </trkpt>
      <trkpt lat="44.8922" lon="-0.08955">
        <ele>61</ele>
        <time>2021-05-01T10:34:30.494Z</time>
      </trkpt>
      <trkpt lat="44.89216" lon="-0.08965">
        <ele>61</ele>
        <time>2021-05-01T10:34:38.494Z</time>
      </trkpt>
      <trkpt lat="44.89216" lon="-0.08969">
        <ele>61</ele>
        <time>2021-05-01T10:34:41.494Z</time>
      </trkpt>
      <trkpt lat="44.89215" lon="-0.08974">
        <ele>62</ele>
        <time>2021-05-01T10:34:45.493Z</time>
      </trkpt>
      <trkpt lat="44.89214" lon="-0.08985">
        <ele>63</ele>
        <time>2021-05-01T10:34:52.493Z</time>
      </trkpt>
      <trkpt lat="44.8921" lon="-0.09001">
        <ele>65</ele>
        <time>2021-05-01T10:34:59.493Z</time>
      </trkpt>
      <trkpt lat="44.89209" lon="-0.09014">
        <ele>63</ele>
        <time>2021-05-01T10:35:06.493Z</time>
      </trkpt>
      <trkpt lat="44.8921" lon="-0.09023">
        <ele>60</ele>
        <time>2021-05-01T10:35:11.494Z</time>
      </trkpt>
      <trkpt lat="44.8921" lon="-0.09031">
        <ele>61</ele>
        <time>2021-05-01T10:35:15.494Z</time>
      </trkpt>
      <trkpt lat="44.89208" lon="-0.09037">
        <ele>61</ele>
        <time>2021-05-01T10:35:18.494Z</time>
      </trkpt>
      <trkpt lat="44.89205" lon="-0.09051">
        <ele>61</ele>
        <time>2021-05-01T10:35:25.494Z</time>
      </trkpt>
      <trkpt lat="44.89199" lon="-0.09066">
        <ele>62</ele>
        <time>2021-05-01T10:35:33.494Z</time>
      </trkpt>
      <trkpt lat="44.89187" lon="-0.09087">
        <ele>65</ele>
        <time>2021-05-01T10:35:46.494Z</time>
      </trkpt>
      <trkpt lat="44.89169" lon="-0.09104">
        <ele>66</ele>
        <time>2021-05-01T10:36:01.494Z</time>
      </trkpt>
      <trkpt lat="44.89166" lon="-0.09106">
        <ele>66</ele>
        <time>2021-05-01T10:36:04.494Z</time>
      </trkpt>
      <trkpt lat="44.89152" lon="-0.09122">
        <ele>61</ele>
        <time>2021-05-01T10:36:19.494Z</time>
      </trkpt>
      <trkpt lat="44.89145" lon="-0.09132">
        <ele>60</ele>
        <time>2021-05-01T10:36:27.494Z</time>
      </trkpt>
      <trkpt lat="44.89138" lon="-0.09148">
        <ele>63</ele>
        <time>2021-05-01T10:36:37.494Z</time>
      </trkpt>
      <trkpt lat="44.89138" lon="-0.0915">
        <ele>63</ele>
        <time>2021-05-01T10:36:39.494Z</time>
      </trkpt>
      <trkpt lat="44.89134" lon="-0.09168">
        <ele>62</ele>
        <time>2021-05-01T10:36:51.494Z</time>
      </trkpt>
      <trkpt lat="44.89134" lon="-0.09176">
        <ele>61</ele>
        <time>2021-05-01T10:37:00.494Z</time>
      </trkpt>
      <trkpt lat="44.89135" lon="-0.09171">
        <ele>58</ele>
        <time>2021-05-01T10:37:05.493Z</time>
      </trkpt>
      <trkpt lat="44.89134" lon="-0.09172">
        <ele>58</ele>
        <time>2021-05-01T10:37:08.494Z</time>
      </trkpt>
      <trkpt lat="44.89134" lon="-0.09174">
        <ele>58</ele>
        <time>2021-05-01T10:37:10.494Z</time>
      </trkpt>
      <trkpt lat="44.89131" lon="-0.09187">
        <ele>59</ele>
        <time>2021-05-01T10:37:17.493Z</time>
      </trkpt>
      <trkpt lat="44.89131" lon="-0.09194">
        <ele>59</ele>
        <time>2021-05-01T10:37:21.493Z</time>
      </trkpt>
      <trkpt lat="44.89129" lon="-0.09208">
        <ele>62</ele>
        <time>2021-05-01T10:37:28.493Z</time>
      </trkpt>
      <trkpt lat="44.89131" lon="-0.09218">
        <ele>63</ele>
        <time>2021-05-01T10:37:35.494Z</time>
      </trkpt>
      <trkpt lat="44.89131" lon="-0.09237">
        <ele>65</ele>
        <time>2021-05-01T10:37:45.494Z</time>
      </trkpt>
      <trkpt lat="44.89126" lon="-0.09271">
        <ele>72</ele>
        <time>2021-05-01T10:38:09.494Z</time>
      </trkpt>
      <trkpt lat="44.89126" lon="-0.09272">
        <ele>72</ele>
        <time>2021-05-01T10:38:14.493Z</time>
      </trkpt>
      <trkpt lat="44.89125" lon="-0.09277">
        <ele>69</ele>
        <time>2021-05-01T10:38:20.494Z</time>
      </trkpt>
      <trkpt lat="44.89123" lon="-0.09296">
        <ele>68</ele>
        <time>2021-05-01T10:38:31.493Z</time>
      </trkpt>
      <trkpt lat="44.89123" lon="-0.09328">
        <ele>64</ele>
        <time>2021-05-01T10:38:47.494Z</time>
      </trkpt>
      <trkpt lat="44.8912" lon="-0.09348">
        <ele>67</ele>
        <time>2021-05-01T10:38:58.493Z</time>
      </trkpt>
      <trkpt lat="44.89121" lon="-0.09352">
        <ele>68</ele>
        <time>2021-05-01T10:39:01.494Z</time>
      </trkpt>
      <trkpt lat="44.8912" lon="-0.09356">
        <ele>68</ele>
        <time>2021-05-01T10:39:03.494Z</time>
      </trkpt>
      <trkpt lat="44.89119" lon="-0.09382">
        <ele>67</ele>
        <time>2021-05-01T10:39:18.494Z</time>
      </trkpt>
      <trkpt lat="44.89118" lon="-0.0939">
        <ele>67</ele>
        <time>2021-05-01T10:39:21.494Z</time>
      </trkpt>
      <trkpt lat="44.89118" lon="-0.094">
        <ele>68</ele>
        <time>2021-05-01T10:39:27.493Z</time>
      </trkpt>
      <trkpt lat="44.89115" lon="-0.09416">
        <ele>67</ele>
        <time>2021-05-01T10:39:35.494Z</time>
      </trkpt>
      <trkpt lat="44.89109" lon="-0.0943">
        <ele>66</ele>
        <time>2021-05-01T10:39:44.494Z</time>
      </trkpt>
      <trkpt lat="44.89099" lon="-0.09447">
        <ele>65</ele>
        <time>2021-05-01T10:39:56.494Z</time>
      </trkpt>
      <trkpt lat="44.89094" lon="-0.0946">
        <ele>64</ele>
        <time>2021-05-01T10:40:06.494Z</time>
      </trkpt>
      <trkpt lat="44.8909" lon="-0.09466">
        <ele>62</ele>
        <time>2021-05-01T10:40:10.494Z</time>
      </trkpt>
      <trkpt lat="44.89088" lon="-0.09473">
        <ele>62</ele>
        <time>2021-05-01T10:40:13.494Z</time>
      </trkpt>
      <trkpt lat="44.89084" lon="-0.09479">
        <ele>62</ele>
        <time>2021-05-01T10:40:18.494Z</time>
      </trkpt>
      <trkpt lat="44.89081" lon="-0.09485">
        <ele>61</ele>
        <time>2021-05-01T10:40:22.494Z</time>
      </trkpt>
      <trkpt lat="44.89075" lon="-0.09489">
        <ele>60</ele>
        <time>2021-05-01T10:40:31.494Z</time>
      </trkpt>
      <trkpt lat="44.89069" lon="-0.09499">
        <ele>61</ele>
        <time>2021-05-01T10:40:46.494Z</time>
      </trkpt>
      <trkpt lat="44.89067" lon="-0.09498">
        <ele>62</ele>
        <time>2021-05-01T10:40:49.494Z</time>
      </trkpt>
      <trkpt lat="44.89068" lon="-0.095">
        <ele>56</ele>
        <time>2021-05-01T10:41:00.494Z</time>
      </trkpt>
      <trkpt lat="44.8906" lon="-0.09521">
        <ele>54</ele>
        <time>2021-05-01T10:41:22.493Z</time>
      </trkpt>
      <trkpt lat="44.89059" lon="-0.09534">
        <ele>52</ele>
        <time>2021-05-01T10:41:31.493Z</time>
      </trkpt>
      <trkpt lat="44.89056" lon="-0.09546">
        <ele>52</ele>
        <time>2021-05-01T10:41:36.494Z</time>
      </trkpt>
      <trkpt lat="44.89056" lon="-0.09552">
        <ele>51</ele>
        <time>2021-05-01T10:41:39.494Z</time>
      </trkpt>
      <trkpt lat="44.89047" lon="-0.09578">
        <ele>58</ele>
        <time>2021-05-01T10:41:54.494Z</time>
      </trkpt>
      <trkpt lat="44.89047" lon="-0.09583">
        <ele>57</ele>
        <time>2021-05-01T10:41:56.493Z</time>
      </trkpt>
      <trkpt lat="44.89048" lon="-0.09584">
        <ele>56</ele>
        <time>2021-05-01T10:41:57.494Z</time>
      </trkpt>
      <trkpt lat="44.89046" lon="-0.096">
        <ele>57</ele>
        <time>2021-05-01T10:42:06.493Z</time>
      </trkpt>
      <trkpt lat="44.89047" lon="-0.09601">
        <ele>55</ele>
        <time>2021-05-01T10:42:08.493Z</time>
      </trkpt>
      <trkpt lat="44.89136" lon="-0.09574">
        <ele>56</ele>
        <time>2021-05-01T10:42:10.494Z</time>
      </trkpt>
      <trkpt lat="44.89139" lon="-0.09571">
        <ele>54</ele>
        <time>2021-05-01T10:42:15.494Z</time>
      </trkpt>
      <trkpt lat="44.89142" lon="-0.0957">
        <ele>55</ele>
        <time>2021-05-01T10:42:18.494Z</time>
      </trkpt>
      <trkpt lat="44.89161" lon="-0.09553">
        <ele>54</ele>
        <time>2021-05-01T10:42:41.442Z</time>
      </trkpt>
      <trkpt lat="44.89167" lon="-0.09549">
        <ele>54</ele>
        <time>2021-05-01T10:42:45.443Z</time>
      </trkpt>
      <trkpt lat="44.89174" lon="-0.09543">
        <ele>55</ele>
        <time>2021-05-01T10:42:52.443Z</time>
      </trkpt>
      <trkpt lat="44.89185" lon="-0.09538">
        <ele>56</ele>
        <time>2021-05-01T10:43:00.443Z</time>
      </trkpt>
      <trkpt lat="44.89197" lon="-0.09527">
        <ele>59</ele>
        <time>2021-05-01T10:43:15.443Z</time>
      </trkpt>
      <trkpt lat="44.89195" lon="-0.09528">
        <ele>57</ele>
        <time>2021-05-01T10:43:22.443Z</time>
      </trkpt>
      <trkpt lat="44.89195" lon="-0.09527">
        <ele>58</ele>
        <time>2021-05-01T10:43:25.442Z</time>
      </trkpt>
      <trkpt lat="44.89194" lon="-0.09528">
        <ele>59</ele>
        <time>2021-05-01T10:43:40.443Z</time>
      </trkpt>
      <trkpt lat="44.89195" lon="-0.09528">
        <ele>58</ele>
        <time>2021-05-01T10:44:05.443Z</time>
      </trkpt>
      <trkpt lat="44.89194" lon="-0.09528">
        <ele>58</ele>
        <time>2021-05-01T10:44:11.442Z</time>
      </trkpt>
      <trkpt lat="44.892" lon="-0.09545">
        <ele>59</ele>
        <time>2021-05-01T10:44:21.443Z</time>
      </trkpt>
      <trkpt lat="44.892" lon="-0.09549">
        <ele>59</ele>
        <time>2021-05-01T10:44:23.443Z</time>
      </trkpt>
      <trkpt lat="44.89202" lon="-0.09552">
        <ele>61</ele>
        <time>2021-05-01T10:44:26.443Z</time>
      </trkpt>
      <trkpt lat="44.89203" lon="-0.09557">
        <ele>61</ele>
        <time>2021-05-01T10:44:29.443Z</time>
      </trkpt>
      <trkpt lat="44.89208" lon="-0.09564">
        <ele>62</ele>
        <time>2021-05-01T10:44:34.443Z</time>
      </trkpt>
      <trkpt lat="44.89211" lon="-0.09566">
        <ele>61</ele>
        <time>2021-05-01T10:44:36.443Z</time>
      </trkpt>
      <trkpt lat="44.89214" lon="-0.09567">
        <ele>60</ele>
        <time>2021-05-01T10:44:38.443Z</time>
      </trkpt>
      <trkpt lat="44.89229" lon="-0.0956">
        <ele>56</ele>
        <time>2021-05-01T10:44:49.443Z</time>
      </trkpt>
      <trkpt lat="44.89233" lon="-0.09554">
        <ele>56</ele>
        <time>2021-05-01T10:44:55.443Z</time>
      </trkpt>
      <trkpt lat="44.89238" lon="-0.0955">
        <ele>56</ele>
        <time>2021-05-01T10:45:06.443Z</time>
      </trkpt>
      <trkpt lat="44.89238" lon="-0.09551">
        <ele>56</ele>
        <time>2021-05-01T10:45:08.443Z</time>
      </trkpt>
      <trkpt lat="44.8924" lon="-0.09548">
        <ele>55</ele>
        <time>2021-05-01T10:46:04.443Z</time>
      </trkpt>
      <trkpt lat="44.89239" lon="-0.09547">
        <ele>55</ele>
        <time>2021-05-01T10:46:31.443Z</time>
      </trkpt>
      <trkpt lat="44.89257" lon="-0.09521">
        <ele>55</ele>
        <time>2021-05-01T10:46:33.442Z</time>
      </trkpt>
      <trkpt lat="44.8927" lon="-0.09513">
        <ele>56</ele>
        <time>2021-05-01T10:46:42.443Z</time>
      </trkpt>
      <trkpt lat="44.89278" lon="-0.09502">
        <ele>55</ele>
        <time>2021-05-01T10:46:52.443Z</time>
      </trkpt>
      <trkpt lat="44.89284" lon="-0.09499">
        <ele>54</ele>
        <time>2021-05-01T10:46:56.443Z</time>
      </trkpt>
      <trkpt lat="44.89292" lon="-0.0949">
        <ele>54</ele>
        <time>2021-05-01T10:47:04.442Z</time>
      </trkpt>
      <trkpt lat="44.89296" lon="-0.09488">
        <ele>54</ele>
        <time>2021-05-01T10:47:07.443Z</time>
      </trkpt>
      <trkpt lat="44.89307" lon="-0.09476">
        <ele>55</ele>
        <time>2021-05-01T10:47:19.443Z</time>
      </trkpt>
      <trkpt lat="44.89312" lon="-0.09473">
        <ele>56</ele>
        <time>2021-05-01T10:47:24.442Z</time>
      </trkpt>
      <trkpt lat="44.89314" lon="-0.09475">
        <ele>58</ele>
        <time>2021-05-01T10:47:28.443Z</time>
      </trkpt>
      <trkpt lat="44.89313" lon="-0.0948">
        <ele>61</ele>
        <time>2021-05-01T10:47:33.443Z</time>
      </trkpt>
      <trkpt lat="44.89312" lon="-0.0948">
        <ele>62</ele>
        <time>2021-05-01T10:47:36.443Z</time>
      </trkpt>
      <trkpt lat="44.89313" lon="-0.0948">
        <ele>61</ele>
        <time>2021-05-01T10:47:47.442Z</time>
      </trkpt>
      <trkpt lat="44.89314" lon="-0.09496">
        <ele>59</ele>
        <time>2021-05-01T10:47:57.442Z</time>
      </trkpt>
      <trkpt lat="44.89313" lon="-0.09499">
        <ele>58</ele>
        <time>2021-05-01T10:48:00.443Z</time>
      </trkpt>
      <trkpt lat="44.89315" lon="-0.09506">
        <ele>55</ele>
        <time>2021-05-01T10:48:05.443Z</time>
      </trkpt>
      <trkpt lat="44.89315" lon="-0.09531">
        <ele>52</ele>
        <time>2021-05-01T10:48:18.442Z</time>
      </trkpt>
      <trkpt lat="44.8932" lon="-0.09556">
        <ele>53</ele>
        <time>2021-05-01T10:48:31.443Z</time>
      </trkpt>
      <trkpt lat="44.89321" lon="-0.09577">
        <ele>50</ele>
        <time>2021-05-01T10:48:40.443Z</time>
      </trkpt>
      <trkpt lat="44.89321" lon="-0.09597">
        <ele>45</ele>
        <time>2021-05-01T10:48:49.443Z</time>
      </trkpt>
      <trkpt lat="44.89324" lon="-0.09618">
        <ele>46</ele>
        <time>2021-05-01T10:49:00.442Z</time>
      </trkpt>
      <trkpt lat="44.89323" lon="-0.09626">
        <ele>44</ele>
        <time>2021-05-01T10:49:04.442Z</time>
      </trkpt>
      <trkpt lat="44.89324" lon="-0.09628">
        <ele>43</ele>
        <time>2021-05-01T10:49:05.443Z</time>
      </trkpt>
      <trkpt lat="44.89324" lon="-0.09647">
        <ele>42</ele>
        <time>2021-05-01T10:49:15.443Z</time>
      </trkpt>
      <trkpt lat="44.89325" lon="-0.0965">
        <ele>44</ele>
        <time>2021-05-01T10:49:18.443Z</time>
      </trkpt>
      <trkpt lat="44.89326" lon="-0.0965">
        <ele>47</ele>
        <time>2021-05-01T10:49:23.443Z</time>
      </trkpt>
      <trkpt lat="44.89325" lon="-0.09649">
        <ele>48</ele>
        <time>2021-05-01T10:49:27.443Z</time>
      </trkpt>
      <trkpt lat="44.89325" lon="-0.09673">
        <ele>47</ele>
        <time>2021-05-01T10:49:48.443Z</time>
      </trkpt>
      <trkpt lat="44.89324" lon="-0.0968">
        <ele>47</ele>
        <time>2021-05-01T10:49:52.443Z</time>
      </trkpt>
      <trkpt lat="44.89322" lon="-0.09712">
        <ele>48</ele>
        <time>2021-05-01T10:50:07.443Z</time>
      </trkpt>
      <trkpt lat="44.89322" lon="-0.09718">
        <ele>48</ele>
        <time>2021-05-01T10:50:10.443Z</time>
      </trkpt>
      <trkpt lat="44.89322" lon="-0.09723">
        <ele>50</ele>
        <time>2021-05-01T10:50:13.443Z</time>
      </trkpt>
      <trkpt lat="44.8932" lon="-0.09723">
        <ele>50</ele>
        <time>2021-05-01T10:50:19.442Z</time>
      </trkpt>
      <trkpt lat="44.89322" lon="-0.09737">
        <ele>43</ele>
        <time>2021-05-01T10:50:21.442Z</time>
      </trkpt>
      <trkpt lat="44.89322" lon="-0.09756">
        <ele>44</ele>
        <time>2021-05-01T10:50:35.443Z</time>
      </trkpt>
      <trkpt lat="44.89318" lon="-0.09779">
        <ele>46</ele>
        <time>2021-05-01T10:50:44.443Z</time>
      </trkpt>
      <trkpt lat="44.89315" lon="-0.09792">
        <ele>48</ele>
        <time>2021-05-01T10:50:51.443Z</time>
      </trkpt>
      <trkpt lat="44.89316" lon="-0.09798">
        <ele>51</ele>
        <time>2021-05-01T10:50:56.443Z</time>
      </trkpt>
      <trkpt lat="44.89313" lon="-0.09807">
        <ele>52</ele>
        <time>2021-05-01T10:51:00.443Z</time>
      </trkpt>
      <trkpt lat="44.89313" lon="-0.09818">
        <ele>49</ele>
        <time>2021-05-01T10:51:09.442Z</time>
      </trkpt>
      <trkpt lat="44.89312" lon="-0.09829">
        <ele>48</ele>
        <time>2021-05-01T10:51:16.443Z</time>
      </trkpt>
      <trkpt lat="44.89312" lon="-0.09833">
        <ele>48</ele>
        <time>2021-05-01T10:51:18.443Z</time>
      </trkpt>
      <trkpt lat="44.8931" lon="-0.09845">
        <ele>50</ele>
        <time>2021-05-01T10:51:25.443Z</time>
      </trkpt>
      <trkpt lat="44.89311" lon="-0.09854">
        <ele>54</ele>
        <time>2021-05-01T10:51:31.442Z</time>
      </trkpt>
      <trkpt lat="44.89309" lon="-0.09881">
        <ele>60</ele>
        <time>2021-05-01T10:51:47.443Z</time>
      </trkpt>
      <trkpt lat="44.89308" lon="-0.09915">
        <ele>56</ele>
        <time>2021-05-01T10:52:08.442Z</time>
      </trkpt>
      <trkpt lat="44.89306" lon="-0.0993">
        <ele>58</ele>
        <time>2021-05-01T10:52:16.443Z</time>
      </trkpt>
      <trkpt lat="44.89307" lon="-0.09943">
        <ele>63</ele>
        <time>2021-05-01T10:52:26.443Z</time>
      </trkpt>
      <trkpt lat="44.89306" lon="-0.09961">
        <ele>63</ele>
        <time>2021-05-01T10:52:39.442Z</time>
      </trkpt>
      <trkpt lat="44.89308" lon="-0.09971">
        <ele>65</ele>
        <time>2021-05-01T10:52:47.443Z</time>
      </trkpt>
      <trkpt lat="44.89313" lon="-0.09978">
        <ele>64</ele>
        <time>2021-05-01T10:52:55.443Z</time>
      </trkpt>
      <trkpt lat="44.89324" lon="-0.09983">
        <ele>63</ele>
        <time>2021-05-01T10:53:08.443Z</time>
      </trkpt>
      <trkpt lat="44.89325" lon="-0.09983">
        <ele>63</ele>
        <time>2021-05-01T10:53:10.443Z</time>
      </trkpt>
      <trkpt lat="44.89325" lon="-0.09984">
        <ele>63</ele>
        <time>2021-05-01T10:53:11.443Z</time>
      </trkpt>
      <trkpt lat="44.89332" lon="-0.09987">
        <ele>64</ele>
        <time>2021-05-01T10:53:19.442Z</time>
      </trkpt>
      <trkpt lat="44.89336" lon="-0.09987">
        <ele>66</ele>
        <time>2021-05-01T10:53:23.443Z</time>
      </trkpt>
      <trkpt lat="44.89333" lon="-0.09987">
        <ele>66</ele>
        <time>2021-05-01T10:53:32.443Z</time>
      </trkpt>
      <trkpt lat="44.89337" lon="-0.09987">
        <ele>67</ele>
        <time>2021-05-01T10:54:08.443Z</time>
      </trkpt>
      <trkpt lat="44.89331" lon="-0.10159">
        <ele>76</ele>
        <time>2021-05-01T10:54:19.442Z</time>
      </trkpt>
      <trkpt lat="44.89328" lon="-0.10174">
        <ele>76</ele>
        <time>2021-05-01T10:54:29.443Z</time>
      </trkpt>
      <trkpt lat="44.89324" lon="-0.10186">
        <ele>74</ele>
        <time>2021-05-01T10:54:38.442Z</time>
      </trkpt>
      <trkpt lat="44.89319" lon="-0.10208">
        <ele>74</ele>
        <time>2021-05-01T10:54:50.443Z</time>
      </trkpt>
      <trkpt lat="44.89312" lon="-0.10231">
        <ele>71</ele>
        <time>2021-05-01T10:55:03.442Z</time>
      </trkpt>
      <trkpt lat="44.89312" lon="-0.10242">
        <ele>66</ele>
        <time>2021-05-01T10:55:17.443Z</time>
      </trkpt>
      <trkpt lat="44.89312" lon="-0.10241">
        <ele>65</ele>
        <time>2021-05-01T10:55:21.443Z</time>
      </trkpt>
      <trkpt lat="44.89309" lon="-0.10243">
        <ele>65</ele>
        <time>2021-05-01T10:55:25.443Z</time>
      </trkpt>
      <trkpt lat="44.89304" lon="-0.10268">
        <ele>68</ele>
        <time>2021-05-01T11:09:34.322Z</time>
      </trkpt>
      <trkpt lat="44.89296" lon="-0.10288">
        <ele>68</ele>
        <time>2021-05-01T11:09:47.322Z</time>
      </trkpt>
      <trkpt lat="44.89297" lon="-0.10291">
        <ele>68</ele>
        <time>2021-05-01T11:09:53.321Z</time>
      </trkpt>
      <trkpt lat="44.89299" lon="-0.1029">
        <ele>71</ele>
        <time>2021-05-01T11:09:55.323Z</time>
      </trkpt>
      <trkpt lat="44.89283" lon="-0.10293">
        <ele>71</ele>
        <time>2021-05-01T11:10:08.323Z</time>
      </trkpt>
      <trkpt lat="44.89271" lon="-0.10288">
        <ele>71</ele>
        <time>2021-05-01T11:10:16.322Z</time>
      </trkpt>
      <trkpt lat="44.89255" lon="-0.10288">
        <ele>69</ele>
        <time>2021-05-01T11:11:52.216Z</time>
      </trkpt>
      <trkpt lat="44.89245" lon="-0.10292">
        <ele>70</ele>
        <time>2021-05-01T11:12:00.217Z</time>
      </trkpt>
      <trkpt lat="44.8924" lon="-0.10292">
        <ele>71</ele>
        <time>2021-05-01T11:12:03.217Z</time>
      </trkpt>
      <trkpt lat="44.89235" lon="-0.10296">
        <ele>73</ele>
        <time>2021-05-01T11:12:08.216Z</time>
      </trkpt>
      <trkpt lat="44.89232" lon="-0.10296">
        <ele>73</ele>
        <time>2021-05-01T11:12:10.217Z</time>
      </trkpt>
      <trkpt lat="44.89226" lon="-0.10299">
        <ele>74</ele>
        <time>2021-05-01T11:12:14.217Z</time>
      </trkpt>
      <trkpt lat="44.89217" lon="-0.10311">
        <ele>72</ele>
        <time>2021-05-01T11:12:25.216Z</time>
      </trkpt>
      <trkpt lat="44.89213" lon="-0.10314">
        <ele>72</ele>
        <time>2021-05-01T11:12:31.217Z</time>
      </trkpt>
      <trkpt lat="44.89202" lon="-0.1033">
        <ele>74</ele>
        <time>2021-05-01T11:12:41.216Z</time>
      </trkpt>
      <trkpt lat="44.89195" lon="-0.10338">
        <ele>76</ele>
        <time>2021-05-01T11:12:48.217Z</time>
      </trkpt>
      <trkpt lat="44.89184" lon="-0.10354">
        <ele>77</ele>
        <time>2021-05-01T11:13:00.217Z</time>
      </trkpt>
      <trkpt lat="44.89178" lon="-0.10362">
        <ele>77</ele>
        <time>2021-05-01T11:13:06.217Z</time>
      </trkpt>
      <trkpt lat="44.89168" lon="-0.10378">
        <ele>78</ele>
        <time>2021-05-01T11:13:18.216Z</time>
      </trkpt>
      <trkpt lat="44.89156" lon="-0.10394">
        <ele>78</ele>
        <time>2021-05-01T11:13:30.216Z</time>
      </trkpt>
      <trkpt lat="44.89148" lon="-0.10402">
        <ele>79</ele>
        <time>2021-05-01T11:13:36.217Z</time>
      </trkpt>
      <trkpt lat="44.89139" lon="-0.10416">
        <ele>78</ele>
        <time>2021-05-01T11:13:45.217Z</time>
      </trkpt>
      <trkpt lat="44.89136" lon="-0.10419">
        <ele>77</ele>
        <time>2021-05-01T11:13:48.217Z</time>
      </trkpt>
      <trkpt lat="44.89132" lon="-0.10427">
        <ele>78</ele>
        <time>2021-05-01T11:13:53.217Z</time>
      </trkpt>
      <trkpt lat="44.8913" lon="-0.10428">
        <ele>79</ele>
        <time>2021-05-01T11:13:56.217Z</time>
      </trkpt>
      <trkpt lat="44.89112" lon="-0.10446">
        <ele>84</ele>
        <time>2021-05-01T11:14:13.216Z</time>
      </trkpt>
      <trkpt lat="44.89106" lon="-0.1045">
        <ele>86</ele>
        <time>2021-05-01T11:14:18.217Z</time>
      </trkpt>
      <trkpt lat="44.89093" lon="-0.10454">
        <ele>88</ele>
        <time>2021-05-01T11:14:27.217Z</time>
      </trkpt>
      <trkpt lat="44.89088" lon="-0.10458">
        <ele>90</ele>
        <time>2021-05-01T11:14:31.217Z</time>
      </trkpt>
      <trkpt lat="44.89087" lon="-0.10457">
        <ele>90</ele>
        <time>2021-05-01T11:14:32.216Z</time>
      </trkpt>
      <trkpt lat="44.89069" lon="-0.10468">
        <ele>86</ele>
        <time>2021-05-01T11:14:46.217Z</time>
      </trkpt>
      <trkpt lat="44.89057" lon="-0.1048">
        <ele>84</ele>
        <time>2021-05-01T11:14:58.217Z</time>
      </trkpt>
      <trkpt lat="44.89045" lon="-0.10483">
        <ele>84</ele>
        <time>2021-05-01T11:15:08.217Z</time>
      </trkpt>
      <trkpt lat="44.89026" lon="-0.10498">
        <ele>85</ele>
        <time>2021-05-01T11:15:23.217Z</time>
      </trkpt>
      <trkpt lat="44.89022" lon="-0.105">
        <ele>85</ele>
        <time>2021-05-01T11:15:26.217Z</time>
      </trkpt>
      <trkpt lat="44.89011" lon="-0.10508">
        <ele>83</ele>
        <time>2021-05-01T11:15:34.217Z</time>
      </trkpt>
      <trkpt lat="44.89004" lon="-0.10511">
        <ele>83</ele>
        <time>2021-05-01T11:15:39.217Z</time>
      </trkpt>
      <trkpt lat="44.88996" lon="-0.10517">
        <ele>80</ele>
        <time>2021-05-01T11:15:45.217Z</time>
      </trkpt>
      <trkpt lat="44.88995" lon="-0.10519">
        <ele>79</ele>
        <time>2021-05-01T11:15:46.217Z</time>
      </trkpt>
      <trkpt lat="44.88983" lon="-0.10518">
        <ele>80</ele>
        <time>2021-05-01T11:15:54.217Z</time>
      </trkpt>
      <trkpt lat="44.88961" lon="-0.10521">
        <ele>83</ele>
        <time>2021-05-01T11:16:07.217Z</time>
      </trkpt>
      <trkpt lat="44.88956" lon="-0.1052">
        <ele>85</ele>
        <time>2021-05-01T11:16:10.217Z</time>
      </trkpt>
      <trkpt lat="44.88934" lon="-0.10522">
        <ele>87</ele>
        <time>2021-05-01T11:16:25.216Z</time>
      </trkpt>
      <trkpt lat="44.88909" lon="-0.10527">
        <ele>89</ele>
        <time>2021-05-01T11:16:43.217Z</time>
      </trkpt>
      <trkpt lat="44.88903" lon="-0.10526">
        <ele>88</ele>
        <time>2021-05-01T11:16:48.217Z</time>
      </trkpt>
      <trkpt lat="44.88902" lon="-0.10528">
        <ele>86</ele>
        <time>2021-05-01T11:16:50.216Z</time>
      </trkpt>
      <trkpt lat="44.88895" lon="-0.10531">
        <ele>84</ele>
        <time>2021-05-01T11:16:55.216Z</time>
      </trkpt>
      <trkpt lat="44.88889" lon="-0.1053">
        <ele>85</ele>
        <time>2021-05-01T11:16:59.216Z</time>
      </trkpt>
      <trkpt lat="44.88871" lon="-0.10535">
        <ele>88</ele>
        <time>2021-05-01T11:17:11.216Z</time>
      </trkpt>
      <trkpt lat="44.88866" lon="-0.10535">
        <ele>88</ele>
        <time>2021-05-01T11:17:17.217Z</time>
      </trkpt>
      <trkpt lat="44.88864" lon="-0.10536">
        <ele>87</ele>
        <time>2021-05-01T11:17:19.216Z</time>
      </trkpt>
      <trkpt lat="44.88857" lon="-0.10536">
        <ele>86</ele>
        <time>2021-05-01T11:17:23.216Z</time>
      </trkpt>
      <trkpt lat="44.88845" lon="-0.10544">
        <ele>83</ele>
        <time>2021-05-01T11:17:33.217Z</time>
      </trkpt>
      <trkpt lat="44.88825" lon="-0.10531">
        <ele>81</ele>
        <time>2021-05-01T11:17:34.216Z</time>
      </trkpt>
      <trkpt lat="44.88806" lon="-0.10541">
        <ele>81</ele>
        <time>2021-05-01T11:17:46.216Z</time>
      </trkpt>
      <trkpt lat="44.88801" lon="-0.10545">
        <ele>81</ele>
        <time>2021-05-01T11:17:51.216Z</time>
      </trkpt>
      <trkpt lat="44.88792" lon="-0.10547">
        <ele>82</ele>
        <time>2021-05-01T11:17:58.216Z</time>
      </trkpt>
      <trkpt lat="44.88786" lon="-0.10552">
        <ele>83</ele>
        <time>2021-05-01T11:18:03.216Z</time>
      </trkpt>
      <trkpt lat="44.88784" lon="-0.1055">
        <ele>84</ele>
        <time>2021-05-01T11:18:05.216Z</time>
      </trkpt>
      <trkpt lat="44.88774" lon="-0.10554">
        <ele>85</ele>
        <time>2021-05-01T11:18:12.216Z</time>
      </trkpt>
      <trkpt lat="44.88767" lon="-0.10559">
        <ele>84</ele>
        <time>2021-05-01T11:18:17.216Z</time>
      </trkpt>
      <trkpt lat="44.88764" lon="-0.1056">
        <ele>84</ele>
        <time>2021-05-01T11:18:19.216Z</time>
      </trkpt>
      <trkpt lat="44.88748" lon="-0.10566">
        <ele>86</ele>
        <time>2021-05-01T11:18:30.216Z</time>
      </trkpt>
      <trkpt lat="44.88733" lon="-0.10575">
        <ele>82</ele>
        <time>2021-05-01T11:18:41.216Z</time>
      </trkpt>
      <trkpt lat="44.88711" lon="-0.10598">
        <ele>83</ele>
        <time>2021-05-01T11:18:59.216Z</time>
      </trkpt>
      <trkpt lat="44.88684" lon="-0.10632">
        <ele>79</ele>
        <time>2021-05-01T11:19:23.216Z</time>
      </trkpt>
      <trkpt lat="44.88679" lon="-0.1064">
        <ele>80</ele>
        <time>2021-05-01T11:19:29.216Z</time>
      </trkpt>
      <trkpt lat="44.88678" lon="-0.10643">
        <ele>81</ele>
        <time>2021-05-01T11:19:32.216Z</time>
      </trkpt>
      <trkpt lat="44.88675" lon="-0.10646">
        <ele>81</ele>
        <time>2021-05-01T11:19:36.216Z</time>
      </trkpt>
      <trkpt lat="44.88671" lon="-0.10651">
        <ele>81</ele>
        <time>2021-05-01T11:19:40.216Z</time>
      </trkpt>
      <trkpt lat="44.88665" lon="-0.10658">
        <ele>80</ele>
        <time>2021-05-01T11:19:45.216Z</time>
      </trkpt>
      <trkpt lat="44.88659" lon="-0.10667">
        <ele>79</ele>
        <time>2021-05-01T11:19:53.216Z</time>
      </trkpt>
      <trkpt lat="44.8866" lon="-0.10666">
        <ele>79</ele>
        <time>2021-05-01T11:20:00.216Z</time>
      </trkpt>
      <trkpt lat="44.88659" lon="-0.10666">
        <ele>79</ele>
        <time>2021-05-01T11:20:22.216Z</time>
      </trkpt>
      <trkpt lat="44.88669" lon="-0.10696">
        <ele>77</ele>
        <time>2021-05-01T11:20:51.216Z</time>
      </trkpt>
      <trkpt lat="44.8867" lon="-0.10696">
        <ele>78</ele>
        <time>2021-05-01T11:20:56.216Z</time>
      </trkpt>
      <trkpt lat="44.8867" lon="-0.10698">
        <ele>78</ele>
        <time>2021-05-01T11:21:02.216Z</time>
      </trkpt>
      <trkpt lat="44.88671" lon="-0.10697">
        <ele>82</ele>
        <time>2021-05-01T11:22:00.216Z</time>
      </trkpt>
      <trkpt lat="44.88674" lon="-0.1071">
        <ele>79</ele>
        <time>2021-05-01T11:22:31.216Z</time>
      </trkpt>
      <trkpt lat="44.88676" lon="-0.10712">
        <ele>79</ele>
        <time>2021-05-01T11:22:33.216Z</time>
      </trkpt>
      <trkpt lat="44.88676" lon="-0.10716">
        <ele>74</ele>
        <time>2021-05-01T11:22:55.216Z</time>
      </trkpt>
      <trkpt lat="44.88684" lon="-0.10735">
        <ele>78</ele>
        <time>2021-05-01T11:23:05.216Z</time>
      </trkpt>
      <trkpt lat="44.88693" lon="-0.10751">
        <ele>81</ele>
        <time>2021-05-01T11:23:15.216Z</time>
      </trkpt>
      <trkpt lat="44.88695" lon="-0.10753">
        <ele>82</ele>
        <time>2021-05-01T11:23:18.216Z</time>
      </trkpt>
      <trkpt lat="44.88695" lon="-0.10757">
        <ele>83</ele>
        <time>2021-05-01T11:23:28.216Z</time>
      </trkpt>
      <trkpt lat="44.88695" lon="-0.10756">
        <ele>87</ele>
        <time>2021-05-01T11:23:47.216Z</time>
      </trkpt>
      <trkpt lat="44.88703" lon="-0.1078">
        <ele>86</ele>
        <time>2021-05-01T11:24:00.216Z</time>
      </trkpt>
      <trkpt lat="44.88708" lon="-0.10787">
        <ele>85</ele>
        <time>2021-05-01T11:24:14.957Z</time>
      </trkpt>
      <trkpt lat="44.88708" lon="-0.1079">
        <ele>85</ele>
        <time>2021-05-01T11:24:16.957Z</time>
      </trkpt>
      <trkpt lat="44.88717" lon="-0.1081">
        <ele>87</ele>
        <time>2021-05-01T11:24:29.957Z</time>
      </trkpt>
      <trkpt lat="44.8872" lon="-0.10818">
        <ele>88</ele>
        <time>2021-05-01T11:24:37.595Z</time>
      </trkpt>
      <trkpt lat="44.88727" lon="-0.10831">
        <ele>90</ele>
        <time>2021-05-01T11:24:46.595Z</time>
      </trkpt>
      <trkpt lat="44.8873" lon="-0.10842">
        <ele>90</ele>
        <time>2021-05-01T11:24:52.595Z</time>
      </trkpt>
      <trkpt lat="44.88732" lon="-0.10844">
        <ele>90</ele>
        <time>2021-05-01T11:24:54.595Z</time>
      </trkpt>
      <trkpt lat="44.88733" lon="-0.10851">
        <ele>91</ele>
        <time>2021-05-01T11:24:57.595Z</time>
      </trkpt>
      <trkpt lat="44.88737" lon="-0.10859">
        <ele>93</ele>
        <time>2021-05-01T11:25:02.595Z</time>
      </trkpt>
      <trkpt lat="44.88738" lon="-0.10861">
        <ele>93</ele>
        <time>2021-05-01T11:25:03.595Z</time>
      </trkpt>
      <trkpt lat="44.88751" lon="-0.10887">
        <ele>90</ele>
        <time>2021-05-01T11:25:19.595Z</time>
      </trkpt>
      <trkpt lat="44.88761" lon="-0.10904">
        <ele>92</ele>
        <time>2021-05-01T11:25:30.595Z</time>
      </trkpt>
      <trkpt lat="44.88765" lon="-0.10912">
        <ele>93</ele>
        <time>2021-05-01T11:25:35.595Z</time>
      </trkpt>
      <trkpt lat="44.88788" lon="-0.10954">
        <ele>88</ele>
        <time>2021-05-01T11:26:02.595Z</time>
      </trkpt>
      <trkpt lat="44.8879" lon="-0.10956">
        <ele>88</ele>
        <time>2021-05-01T11:26:04.595Z</time>
      </trkpt>
      <trkpt lat="44.88795" lon="-0.10966">
        <ele>88</ele>
        <time>2021-05-01T11:26:10.595Z</time>
      </trkpt>
      <trkpt lat="44.88803" lon="-0.10978">
        <ele>86</ele>
        <time>2021-05-01T11:26:18.595Z</time>
      </trkpt>
      <trkpt lat="44.88813" lon="-0.11">
        <ele>84</ele>
        <time>2021-05-01T11:26:31.595Z</time>
      </trkpt>
      <trkpt lat="44.8882" lon="-0.11009">
        <ele>84</ele>
        <time>2021-05-01T11:26:38.595Z</time>
      </trkpt>
      <trkpt lat="44.88822" lon="-0.11014">
        <ele>84</ele>
        <time>2021-05-01T11:26:41.595Z</time>
      </trkpt>
      <trkpt lat="44.88828" lon="-0.1102">
        <ele>85</ele>
        <time>2021-05-01T11:26:46.595Z</time>
      </trkpt>
      <trkpt lat="44.88833" lon="-0.11028">
        <ele>86</ele>
        <time>2021-05-01T11:26:51.595Z</time>
      </trkpt>
      <trkpt lat="44.88834" lon="-0.11032">
        <ele>86</ele>
        <time>2021-05-01T11:26:53.595Z</time>
      </trkpt>
      <trkpt lat="44.88843" lon="-0.11047">
        <ele>84</ele>
        <time>2021-05-01T11:27:02.595Z</time>
      </trkpt>
      <trkpt lat="44.88844" lon="-0.11053">
        <ele>84</ele>
        <time>2021-05-01T11:27:04.595Z</time>
      </trkpt>
      <trkpt lat="44.88852" lon="-0.11066">
        <ele>85</ele>
        <time>2021-05-01T11:27:12.595Z</time>
      </trkpt>
      <trkpt lat="44.88856" lon="-0.1107">
        <ele>86</ele>
        <time>2021-05-01T11:27:15.595Z</time>
      </trkpt>
      <trkpt lat="44.88877" lon="-0.11108">
        <ele>82</ele>
        <time>2021-05-01T11:28:12.168Z</time>
      </trkpt>
      <trkpt lat="44.88882" lon="-0.11119">
        <ele>80</ele>
        <time>2021-05-01T11:28:18.168Z</time>
      </trkpt>
      <trkpt lat="44.88887" lon="-0.11128">
        <ele>79</ele>
        <time>2021-05-01T11:28:24.168Z</time>
      </trkpt>
      <trkpt lat="44.88889" lon="-0.11134">
        <ele>79</ele>
        <time>2021-05-01T11:28:27.168Z</time>
      </trkpt>
      <trkpt lat="44.88897" lon="-0.11146">
        <ele>78</ele>
        <time>2021-05-01T11:28:34.168Z</time>
      </trkpt>
      <trkpt lat="44.88906" lon="-0.11168">
        <ele>79</ele>
        <time>2021-05-01T11:28:44.168Z</time>
      </trkpt>
      <trkpt lat="44.8891" lon="-0.11173">
        <ele>78</ele>
        <time>2021-05-01T11:28:48.168Z</time>
      </trkpt>
      <trkpt lat="44.88917" lon="-0.11192">
        <ele>76</ele>
        <time>2021-05-01T11:28:57.168Z</time>
      </trkpt>
      <trkpt lat="44.88929" lon="-0.11212">
        <ele>75</ele>
        <time>2021-05-01T11:29:08.168Z</time>
      </trkpt>
      <trkpt lat="44.88932" lon="-0.11215">
        <ele>76</ele>
        <time>2021-05-01T11:29:11.168Z</time>
      </trkpt>
      <trkpt lat="44.88936" lon="-0.11222">
        <ele>76</ele>
        <time>2021-05-01T11:29:15.168Z</time>
      </trkpt>
      <trkpt lat="44.88941" lon="-0.11229">
        <ele>76</ele>
        <time>2021-05-01T11:29:20.168Z</time>
      </trkpt>
      <trkpt lat="44.88947" lon="-0.11239">
        <ele>77</ele>
        <time>2021-05-01T11:29:26.168Z</time>
      </trkpt>
      <trkpt lat="44.8895" lon="-0.11243">
        <ele>76</ele>
        <time>2021-05-01T11:29:29.168Z</time>
      </trkpt>
      <trkpt lat="44.88964" lon="-0.11271">
        <ele>76</ele>
        <time>2021-05-01T11:29:46.168Z</time>
      </trkpt>
      <trkpt lat="44.88969" lon="-0.11278">
        <ele>75</ele>
        <time>2021-05-01T11:29:51.168Z</time>
      </trkpt>
      <trkpt lat="44.88974" lon="-0.11291">
        <ele>76</ele>
        <time>2021-05-01T11:30:02.168Z</time>
      </trkpt>
      <trkpt lat="44.88973" lon="-0.11291">
        <ele>76</ele>
        <time>2021-05-01T11:30:04.168Z</time>
      </trkpt>
      <trkpt lat="44.88972" lon="-0.1129">
        <ele>78</ele>
        <time>2021-05-01T11:30:07.168Z</time>
      </trkpt>
      <trkpt lat="44.88957" lon="-0.113">
        <ele>78</ele>
        <time>2021-05-01T11:30:22.168Z</time>
      </trkpt>
      <trkpt lat="44.88945" lon="-0.11307">
        <ele>77</ele>
        <time>2021-05-01T11:30:31.168Z</time>
      </trkpt>
      <trkpt lat="44.88926" lon="-0.11314">
        <ele>77</ele>
        <time>2021-05-01T11:30:44.168Z</time>
      </trkpt>
      <trkpt lat="44.88909" lon="-0.11324">
        <ele>79</ele>
        <time>2021-05-01T11:30:56.168Z</time>
      </trkpt>
      <trkpt lat="44.88896" lon="-0.11328">
        <ele>77</ele>
        <time>2021-05-01T11:31:06.168Z</time>
      </trkpt>
      <trkpt lat="44.88893" lon="-0.11331">
        <ele>77</ele>
        <time>2021-05-01T11:31:09.168Z</time>
      </trkpt>
      <trkpt lat="44.8888" lon="-0.11337">
        <ele>76</ele>
        <time>2021-05-01T11:31:19.168Z</time>
      </trkpt>
      <trkpt lat="44.8887" lon="-0.11345">
        <ele>76</ele>
        <time>2021-05-01T11:31:28.168Z</time>
      </trkpt>
      <trkpt lat="44.8885" lon="-0.11355">
        <ele>79</ele>
        <time>2021-05-01T11:31:44.168Z</time>
      </trkpt>
      <trkpt lat="44.88844" lon="-0.11363">
        <ele>78</ele>
        <time>2021-05-01T11:31:52.168Z</time>
      </trkpt>
      <trkpt lat="44.88833" lon="-0.1137">
        <ele>77</ele>
        <time>2021-05-01T11:32:01.168Z</time>
      </trkpt>
      <trkpt lat="44.88824" lon="-0.11371">
        <ele>78</ele>
        <time>2021-05-01T11:32:08.168Z</time>
      </trkpt>
      <trkpt lat="44.88802" lon="-0.11383">
        <ele>81</ele>
        <time>2021-05-01T11:32:23.168Z</time>
      </trkpt>
      <trkpt lat="44.88793" lon="-0.11385">
        <ele>80</ele>
        <time>2021-05-01T11:32:29.168Z</time>
      </trkpt>
      <trkpt lat="44.88783" lon="-0.11384">
        <ele>81</ele>
        <time>2021-05-01T11:32:36.168Z</time>
      </trkpt>
      <trkpt lat="44.8876" lon="-0.11389">
        <ele>83</ele>
        <time>2021-05-01T11:32:51.168Z</time>
      </trkpt>
      <trkpt lat="44.8872" lon="-0.11412">
        <ele>73</ele>
        <time>2021-05-01T11:33:22.168Z</time>
      </trkpt>
      <trkpt lat="44.88717" lon="-0.11416">
        <ele>73</ele>
        <time>2021-05-01T11:33:25.168Z</time>
      </trkpt>
      <trkpt lat="44.88706" lon="-0.11421">
        <ele>74</ele>
        <time>2021-05-01T11:33:37.168Z</time>
      </trkpt>
      <trkpt lat="44.88705" lon="-0.11423">
        <ele>75</ele>
        <time>2021-05-01T11:33:42.168Z</time>
      </trkpt>
      <trkpt lat="44.88703" lon="-0.11422">
        <ele>75</ele>
        <time>2021-05-01T11:33:46.168Z</time>
      </trkpt>
      <trkpt lat="44.88698" lon="-0.11423">
        <ele>76</ele>
        <time>2021-05-01T11:33:51.168Z</time>
      </trkpt>
      <trkpt lat="44.88697" lon="-0.11424">
        <ele>76</ele>
        <time>2021-05-01T11:33:54.168Z</time>
      </trkpt>
      <trkpt lat="44.88701" lon="-0.11427">
        <ele>75</ele>
        <time>2021-05-01T11:33:56.169Z</time>
      </trkpt>
      <trkpt lat="44.88697" lon="-0.11417">
        <ele>74</ele>
        <time>2021-05-01T11:34:02.170Z</time>
      </trkpt>
      <trkpt lat="44.88694" lon="-0.11415">
        <ele>75</ele>
        <time>2021-05-01T11:34:05.170Z</time>
      </trkpt>
      <trkpt lat="44.88689" lon="-0.11416">
        <ele>75</ele>
        <time>2021-05-01T11:34:09.170Z</time>
      </trkpt>
      <trkpt lat="44.88684" lon="-0.11419">
        <ele>77</ele>
        <time>2021-05-01T11:34:14.170Z</time>
      </trkpt>
      <trkpt lat="44.88676" lon="-0.11429">
        <ele>75</ele>
        <time>2021-05-01T11:34:23.169Z</time>
      </trkpt>
      <trkpt lat="44.8868" lon="-0.11428">
        <ele>75</ele>
        <time>2021-05-01T11:34:29.170Z</time>
      </trkpt>
      <trkpt lat="44.88679" lon="-0.11427">
        <ele>72</ele>
        <time>2021-05-01T11:34:34.170Z</time>
      </trkpt>
      <trkpt lat="44.88663" lon="-0.1144">
        <ele>73</ele>
        <time>2021-05-01T11:34:59.169Z</time>
      </trkpt>
      <trkpt lat="44.88648" lon="-0.11466">
        <ele>79</ele>
        <time>2021-05-01T11:35:17.170Z</time>
      </trkpt>
      <trkpt lat="44.88639" lon="-0.11479">
        <ele>84</ele>
        <time>2021-05-01T11:35:27.170Z</time>
      </trkpt>
      <trkpt lat="44.88626" lon="-0.11506">
        <ele>81</ele>
        <time>2021-05-01T11:35:44.170Z</time>
      </trkpt>
      <trkpt lat="44.88619" lon="-0.11515">
        <ele>82</ele>
        <time>2021-05-01T11:35:54.170Z</time>
      </trkpt>
      <trkpt lat="44.88619" lon="-0.1152">
        <ele>83</ele>
        <time>2021-05-01T11:36:00.169Z</time>
      </trkpt>
      <trkpt lat="44.88618" lon="-0.11519">
        <ele>84</ele>
        <time>2021-05-01T11:36:08.170Z</time>
      </trkpt>
      <trkpt lat="44.8862" lon="-0.11519">
        <ele>80</ele>
        <time>2021-05-01T11:36:13.170Z</time>
      </trkpt>
      <trkpt lat="44.886" lon="-0.11558">
        <ele>82</ele>
        <time>2021-05-01T11:36:44.169Z</time>
      </trkpt>
      <trkpt lat="44.88596" lon="-0.11562">
        <ele>82</ele>
        <time>2021-05-01T11:36:47.170Z</time>
      </trkpt>
      <trkpt lat="44.88577" lon="-0.11594">
        <ele>84</ele>
        <time>2021-05-01T11:37:07.170Z</time>
      </trkpt>
      <trkpt lat="44.88554" lon="-0.11637">
        <ele>83</ele>
        <time>2021-05-01T11:37:34.169Z</time>
      </trkpt>
      <trkpt lat="44.8855" lon="-0.11643">
        <ele>84</ele>
        <time>2021-05-01T11:37:38.170Z</time>
      </trkpt>
      <trkpt lat="44.88534" lon="-0.11673">
        <ele>82</ele>
        <time>2021-05-01T11:37:57.170Z</time>
      </trkpt>
      <trkpt lat="44.88528" lon="-0.11683">
        <ele>84</ele>
        <time>2021-05-01T11:38:04.169Z</time>
      </trkpt>
      <trkpt lat="44.88522" lon="-0.11697">
        <ele>85</ele>
        <time>2021-05-01T11:38:13.170Z</time>
      </trkpt>
      <trkpt lat="44.88523" lon="-0.11706">
        <ele>86</ele>
        <time>2021-05-01T11:38:20.169Z</time>
      </trkpt>
      <trkpt lat="44.88552" lon="-0.11731">
        <ele>81</ele>
        <time>2021-05-01T11:38:24.171Z</time>
      </trkpt>
      <trkpt lat="44.88555" lon="-0.11732">
        <ele>82</ele>
        <time>2021-05-01T11:38:29.170Z</time>
      </trkpt>
      <trkpt lat="44.88556" lon="-0.11731">
        <ele>83</ele>
        <time>2021-05-01T11:38:32.171Z</time>
      </trkpt>
      <trkpt lat="44.88572" lon="-0.11746">
        <ele>82</ele>
        <time>2021-05-01T11:38:48.171Z</time>
      </trkpt>
      <trkpt lat="44.88575" lon="-0.11751">
        <ele>82</ele>
        <time>2021-05-01T11:38:51.171Z</time>
      </trkpt>
      <trkpt lat="44.88586" lon="-0.11761">
        <ele>82</ele>
        <time>2021-05-01T11:38:59.171Z</time>
      </trkpt>
      <trkpt lat="44.88604" lon="-0.11773">
        <ele>79</ele>
        <time>2021-05-01T11:39:12.171Z</time>
      </trkpt>
      <trkpt lat="44.88629" lon="-0.11798">
        <ele>78</ele>
        <time>2021-05-01T11:39:33.171Z</time>
      </trkpt>
      <trkpt lat="44.88645" lon="-0.11809">
        <ele>74</ele>
        <time>2021-05-01T11:39:45.171Z</time>
      </trkpt>
      <trkpt lat="44.88646" lon="-0.11811">
        <ele>75</ele>
        <time>2021-05-01T11:39:47.171Z</time>
      </trkpt>
      <trkpt lat="44.88652" lon="-0.11815">
        <ele>78</ele>
        <time>2021-05-01T11:39:55.171Z</time>
      </trkpt>
      <trkpt lat="44.88652" lon="-0.11813">
        <ele>78</ele>
        <time>2021-05-01T11:39:59.171Z</time>
      </trkpt>
      <trkpt lat="44.88653" lon="-0.11813">
        <ele>78</ele>
        <time>2021-05-01T11:40:01.171Z</time>
      </trkpt>
      <trkpt lat="44.88653" lon="-0.11816">
        <ele>76</ele>
        <time>2021-05-01T11:40:06.170Z</time>
      </trkpt>
      <trkpt lat="44.88664" lon="-0.11823">
        <ele>74</ele>
        <time>2021-05-01T11:40:08.171Z</time>
      </trkpt>
      <trkpt lat="44.88657" lon="-0.11819">
        <ele>74</ele>
        <time>2021-05-01T11:40:12.171Z</time>
      </trkpt>
      <trkpt lat="44.88638" lon="-0.11837">
        <ele>74</ele>
        <time>2021-05-01T11:40:27.171Z</time>
      </trkpt>
      <trkpt lat="44.8863" lon="-0.1185">
        <ele>75</ele>
        <time>2021-05-01T11:40:36.172Z</time>
      </trkpt>
      <trkpt lat="44.88621" lon="-0.11861">
        <ele>76</ele>
        <time>2021-05-01T11:40:44.171Z</time>
      </trkpt>
      <trkpt lat="44.88617" lon="-0.11867">
        <ele>76</ele>
        <time>2021-05-01T11:40:48.171Z</time>
      </trkpt>
      <trkpt lat="44.88612" lon="-0.11873">
        <ele>76</ele>
        <time>2021-05-01T11:40:52.172Z</time>
      </trkpt>
      <trkpt lat="44.8861" lon="-0.11878">
        <ele>76</ele>
        <time>2021-05-01T11:40:55.172Z</time>
      </trkpt>
      <trkpt lat="44.88606" lon="-0.11883">
        <ele>75</ele>
        <time>2021-05-01T11:40:59.172Z</time>
      </trkpt>
      <trkpt lat="44.88602" lon="-0.1189">
        <ele>75</ele>
        <time>2021-05-01T11:41:03.172Z</time>
      </trkpt>
      <trkpt lat="44.88598" lon="-0.11902">
        <ele>74</ele>
        <time>2021-05-01T11:41:09.171Z</time>
      </trkpt>
      <trkpt lat="44.88593" lon="-0.11912">
        <ele>72</ele>
        <time>2021-05-01T11:41:15.172Z</time>
      </trkpt>
      <trkpt lat="44.88588" lon="-0.11917">
        <ele>73</ele>
        <time>2021-05-01T11:41:19.172Z</time>
      </trkpt>
      <trkpt lat="44.88585" lon="-0.11923">
        <ele>74</ele>
        <time>2021-05-01T11:41:22.172Z</time>
      </trkpt>
      <trkpt lat="44.88583" lon="-0.11926">
        <ele>74</ele>
        <time>2021-05-01T11:41:24.172Z</time>
      </trkpt>
      <trkpt lat="44.88575" lon="-0.11941">
        <ele>73</ele>
        <time>2021-05-01T11:41:34.171Z</time>
      </trkpt>
      <trkpt lat="44.88571" lon="-0.11945">
        <ele>73</ele>
        <time>2021-05-01T11:41:38.171Z</time>
      </trkpt>
      <trkpt lat="44.88569" lon="-0.11955">
        <ele>73</ele>
        <time>2021-05-01T11:41:43.171Z</time>
      </trkpt>
      <trkpt lat="44.88561" lon="-0.11966">
        <ele>76</ele>
        <time>2021-05-01T11:41:51.172Z</time>
      </trkpt>
      <trkpt lat="44.88559" lon="-0.1197">
        <ele>77</ele>
        <time>2021-05-01T11:41:54.172Z</time>
      </trkpt>
      <trkpt lat="44.88551" lon="-0.11981">
        <ele>77</ele>
        <time>2021-05-01T11:42:01.171Z</time>
      </trkpt>
      <trkpt lat="44.88549" lon="-0.1199">
        <ele>77</ele>
        <time>2021-05-01T11:42:06.172Z</time>
      </trkpt>
      <trkpt lat="44.88546" lon="-0.11995">
        <ele>76</ele>
        <time>2021-05-01T11:42:09.172Z</time>
      </trkpt>
      <trkpt lat="44.88543" lon="-0.11996">
        <ele>76</ele>
        <time>2021-05-01T11:42:11.172Z</time>
      </trkpt>
      <trkpt lat="44.88538" lon="-0.12003">
        <ele>77</ele>
        <time>2021-05-01T11:42:16.171Z</time>
      </trkpt>
      <trkpt lat="44.88534" lon="-0.12015">
        <ele>77</ele>
        <time>2021-05-01T11:42:23.172Z</time>
      </trkpt>
      <trkpt lat="44.88515" lon="-0.12051">
        <ele>77</ele>
        <time>2021-05-01T11:42:46.172Z</time>
      </trkpt>
      <trkpt lat="44.88506" lon="-0.12059">
        <ele>77</ele>
        <time>2021-05-01T11:42:54.172Z</time>
      </trkpt>
      <trkpt lat="44.88501" lon="-0.12061">
        <ele>78</ele>
        <time>2021-05-01T11:42:58.172Z</time>
      </trkpt>
      <trkpt lat="44.88493" lon="-0.12062">
        <ele>76</ele>
        <time>2021-05-01T11:43:05.171Z</time>
      </trkpt>
      <trkpt lat="44.88491" lon="-0.12063">
        <ele>75</ele>
        <time>2021-05-01T11:43:07.171Z</time>
      </trkpt>
      <trkpt lat="44.88482" lon="-0.12063">
        <ele>74</ele>
        <time>2021-05-01T11:43:14.172Z</time>
      </trkpt>
      <trkpt lat="44.88458" lon="-0.12069">
        <ele>75</ele>
        <time>2021-05-01T11:43:33.172Z</time>
      </trkpt>
      <trkpt lat="44.88456" lon="-0.12071">
        <ele>75</ele>
        <time>2021-05-01T11:43:35.171Z</time>
      </trkpt>
      <trkpt lat="44.88448" lon="-0.12072">
        <ele>75</ele>
        <time>2021-05-01T11:43:41.171Z</time>
      </trkpt>
      <trkpt lat="44.88445" lon="-0.12075">
        <ele>75</ele>
        <time>2021-05-01T11:47:55.835Z</time>
      </trkpt>
      <trkpt lat="44.88438" lon="-0.12077">
        <ele>75</ele>
        <time>2021-05-01T11:48:00.835Z</time>
      </trkpt>
      <trkpt lat="44.88429" lon="-0.12082">
        <ele>76</ele>
        <time>2021-05-01T11:48:08.835Z</time>
      </trkpt>
      <trkpt lat="44.88422" lon="-0.12083">
        <ele>75</ele>
        <time>2021-05-01T11:48:13.835Z</time>
      </trkpt>
      <trkpt lat="44.88412" lon="-0.1209">
        <ele>77</ele>
        <time>2021-05-01T11:48:22.835Z</time>
      </trkpt>
      <trkpt lat="44.88397" lon="-0.12097">
        <ele>84</ele>
        <time>2021-05-01T11:48:37.835Z</time>
      </trkpt>
      <trkpt lat="44.88397" lon="-0.12104">
        <ele>85</ele>
        <time>2021-05-01T11:48:50.834Z</time>
      </trkpt>
      <trkpt lat="44.88402" lon="-0.12123">
        <ele>83</ele>
        <time>2021-05-01T11:49:01.835Z</time>
      </trkpt>
      <trkpt lat="44.88409" lon="-0.12136">
        <ele>80</ele>
        <time>2021-05-01T11:49:09.834Z</time>
      </trkpt>
      <trkpt lat="44.8841" lon="-0.12142">
        <ele>80</ele>
        <time>2021-05-01T11:49:12.835Z</time>
      </trkpt>
      <trkpt lat="44.88424" lon="-0.12177">
        <ele>82</ele>
        <time>2021-05-01T11:49:31.835Z</time>
      </trkpt>
      <trkpt lat="44.88429" lon="-0.12196">
        <ele>81</ele>
        <time>2021-05-01T11:49:42.835Z</time>
      </trkpt>
      <trkpt lat="44.88428" lon="-0.12203">
        <ele>80</ele>
        <time>2021-05-01T11:49:47.834Z</time>
      </trkpt>
      <trkpt lat="44.88424" lon="-0.12206">
        <ele>77</ele>
        <time>2021-05-01T11:49:57.834Z</time>
      </trkpt>
      <trkpt lat="44.8842" lon="-0.12204">
        <ele>78</ele>
        <time>2021-05-01T11:50:01.835Z</time>
      </trkpt>
      <trkpt lat="44.88416" lon="-0.12205">
        <ele>78</ele>
        <time>2021-05-01T11:50:05.834Z</time>
      </trkpt>
      <trkpt lat="44.88412" lon="-0.12205">
        <ele>78</ele>
        <time>2021-05-01T11:50:08.835Z</time>
      </trkpt>
      <trkpt lat="44.88406" lon="-0.12206">
        <ele>80</ele>
        <time>2021-05-01T11:50:13.835Z</time>
      </trkpt>
      <trkpt lat="44.88403" lon="-0.12208">
        <ele>79</ele>
        <time>2021-05-01T11:50:16.835Z</time>
      </trkpt>
      <trkpt lat="44.8839" lon="-0.12211">
        <ele>78</ele>
        <time>2021-05-01T11:50:27.835Z</time>
      </trkpt>
      <trkpt lat="44.88382" lon="-0.1221">
        <ele>78</ele>
        <time>2021-05-01T11:50:33.835Z</time>
      </trkpt>
      <trkpt lat="44.88371" lon="-0.12204">
        <ele>82</ele>
        <time>2021-05-01T11:50:42.835Z</time>
      </trkpt>
      <trkpt lat="44.88365" lon="-0.12203">
        <ele>81</ele>
        <time>2021-05-01T11:50:47.835Z</time>
      </trkpt>
      <trkpt lat="44.88359" lon="-0.12204">
        <ele>79</ele>
        <time>2021-05-01T11:50:52.834Z</time>
      </trkpt>
      <trkpt lat="44.88356" lon="-0.12205">
        <ele>78</ele>
        <time>2021-05-01T11:50:54.834Z</time>
      </trkpt>
      <trkpt lat="44.88353" lon="-0.12211">
        <ele>77</ele>
        <time>2021-05-01T11:50:58.834Z</time>
      </trkpt>
      <trkpt lat="44.88357" lon="-0.12208">
        <ele>81</ele>
        <time>2021-05-01T11:51:00.834Z</time>
      </trkpt>
      <trkpt lat="44.88353" lon="-0.12208">
        <ele>81</ele>
        <time>2021-05-01T11:51:07.835Z</time>
      </trkpt>
      <trkpt lat="44.88332" lon="-0.12215">
        <ele>81</ele>
        <time>2021-05-01T11:51:19.834Z</time>
      </trkpt>
      <trkpt lat="44.8833" lon="-0.1222">
        <ele>81</ele>
        <time>2021-05-01T11:51:22.834Z</time>
      </trkpt>
      <trkpt lat="44.88326" lon="-0.12223">
        <ele>79</ele>
        <time>2021-05-01T11:51:26.835Z</time>
      </trkpt>
      <trkpt lat="44.88319" lon="-0.12227">
        <ele>79</ele>
        <time>2021-05-01T11:51:31.835Z</time>
      </trkpt>
      <trkpt lat="44.88298" lon="-0.12244">
        <ele>82</ele>
        <time>2021-05-01T11:51:49.835Z</time>
      </trkpt>
      <trkpt lat="44.88285" lon="-0.12259">
        <ele>83</ele>
        <time>2021-05-01T11:52:01.834Z</time>
      </trkpt>
      <trkpt lat="44.88284" lon="-0.12263">
        <ele>83</ele>
        <time>2021-05-01T11:52:03.835Z</time>
      </trkpt>
      <trkpt lat="44.88284" lon="-0.12274">
        <ele>83</ele>
        <time>2021-05-01T11:52:09.835Z</time>
      </trkpt>
      <trkpt lat="44.88293" lon="-0.12314">
        <ele>84</ele>
        <time>2021-05-01T11:52:29.834Z</time>
      </trkpt>
      <trkpt lat="44.88295" lon="-0.12317">
        <ele>85</ele>
        <time>2021-05-01T11:52:31.834Z</time>
      </trkpt>
      <trkpt lat="44.88295" lon="-0.1233">
        <ele>88</ele>
        <time>2021-05-01T11:52:37.835Z</time>
      </trkpt>
      <trkpt lat="44.88293" lon="-0.12337">
        <ele>87</ele>
        <time>2021-05-01T11:52:41.835Z</time>
      </trkpt>
      <trkpt lat="44.88288" lon="-0.12349">
        <ele>86</ele>
        <time>2021-05-01T11:52:48.835Z</time>
      </trkpt>
      <trkpt lat="44.88287" lon="-0.12353">
        <ele>86</ele>
        <time>2021-05-01T11:52:51.835Z</time>
      </trkpt>
      <trkpt lat="44.88283" lon="-0.12361">
        <ele>85</ele>
        <time>2021-05-01T11:52:58.835Z</time>
      </trkpt>
      <trkpt lat="44.8828" lon="-0.12372">
        <ele>81</ele>
        <time>2021-05-01T11:53:06.835Z</time>
      </trkpt>
      <trkpt lat="44.88271" lon="-0.12384">
        <ele>79</ele>
        <time>2021-05-01T11:53:16.835Z</time>
      </trkpt>
      <trkpt lat="44.88256" lon="-0.12397">
        <ele>77</ele>
        <time>2021-05-01T11:53:29.835Z</time>
      </trkpt>
      <trkpt lat="44.8824" lon="-0.12407">
        <ele>81</ele>
        <time>2021-05-01T11:53:42.834Z</time>
      </trkpt>
      <trkpt lat="44.88234" lon="-0.12409">
        <ele>80</ele>
        <time>2021-05-01T11:53:46.835Z</time>
      </trkpt>
      <trkpt lat="44.88232" lon="-0.12412">
        <ele>79</ele>
        <time>2021-05-01T11:53:48.835Z</time>
      </trkpt>
      <trkpt lat="44.88224" lon="-0.12415">
        <ele>78</ele>
        <time>2021-05-01T11:53:54.835Z</time>
      </trkpt>
      <trkpt lat="44.88221" lon="-0.12415">
        <ele>78</ele>
        <time>2021-05-01T11:53:56.835Z</time>
      </trkpt>
      <trkpt lat="44.88215" lon="-0.12416">
        <ele>78</ele>
        <time>2021-05-01T11:54:00.835Z</time>
      </trkpt>
      <trkpt lat="44.88207" lon="-0.12424">
        <ele>76</ele>
        <time>2021-05-01T11:54:08.835Z</time>
      </trkpt>
      <trkpt lat="44.88204" lon="-0.12424">
        <ele>77</ele>
        <time>2021-05-01T11:54:10.835Z</time>
      </trkpt>
      <trkpt lat="44.88199" lon="-0.12419">
        <ele>78</ele>
        <time>2021-05-01T11:54:16.834Z</time>
      </trkpt>
      <trkpt lat="44.88191" lon="-0.12406">
        <ele>77</ele>
        <time>2021-05-01T11:54:26.835Z</time>
      </trkpt>
      <trkpt lat="44.88189" lon="-0.12397">
        <ele>75</ele>
        <time>2021-05-01T11:54:32.835Z</time>
      </trkpt>
      <trkpt lat="44.88187" lon="-0.12395">
        <ele>75</ele>
        <time>2021-05-01T11:54:35.834Z</time>
      </trkpt>
      <trkpt lat="44.88186" lon="-0.12396">
        <ele>76</ele>
        <time>2021-05-01T11:54:39.835Z</time>
      </trkpt>
      <trkpt lat="44.88185" lon="-0.12396">
        <ele>78</ele>
        <time>2021-05-01T11:54:42.835Z</time>
      </trkpt>
      <trkpt lat="44.88181" lon="-0.12399">
        <ele>81</ele>
        <time>2021-05-01T11:54:51.835Z</time>
      </trkpt>
      <trkpt lat="44.88181" lon="-0.12401">
        <ele>81</ele>
        <time>2021-05-01T11:54:54.834Z</time>
      </trkpt>
      <trkpt lat="44.88182" lon="-0.12398">
        <ele>83</ele>
        <time>2021-05-01T11:54:58.835Z</time>
      </trkpt>
      <trkpt lat="44.88181" lon="-0.124">
        <ele>79</ele>
        <time>2021-05-01T11:55:15.835Z</time>
      </trkpt>
      <trkpt lat="44.8818" lon="-0.12399">
        <ele>79</ele>
        <time>2021-05-01T11:55:20.835Z</time>
      </trkpt>
      <trkpt lat="44.88181" lon="-0.12397">
        <ele>78</ele>
        <time>2021-05-01T11:55:22.835Z</time>
      </trkpt>
      <trkpt lat="44.8818" lon="-0.12395">
        <ele>77</ele>
        <time>2021-05-01T11:55:25.835Z</time>
      </trkpt>
      <trkpt lat="44.88177" lon="-0.12393">
        <ele>75</ele>
        <time>2021-05-01T11:55:30.835Z</time>
      </trkpt>
      <trkpt lat="44.88176" lon="-0.12392">
        <ele>74</ele>
        <time>2021-05-01T11:55:32.834Z</time>
      </trkpt>
      <trkpt lat="44.88172" lon="-0.12392">
        <ele>73</ele>
        <time>2021-05-01T11:55:37.835Z</time>
      </trkpt>
      <trkpt lat="44.88173" lon="-0.12395">
        <ele>73</ele>
        <time>2021-05-01T11:55:39.834Z</time>
      </trkpt>
      <trkpt lat="44.88171" lon="-0.12394">
        <ele>74</ele>
        <time>2021-05-01T11:55:43.835Z</time>
      </trkpt>
      <trkpt lat="44.88171" lon="-0.12396">
        <ele>74</ele>
        <time>2021-05-01T11:55:47.834Z</time>
      </trkpt>
      <trkpt lat="44.88173" lon="-0.12397">
        <ele>77</ele>
        <time>2021-05-01T11:55:53.835Z</time>
      </trkpt>
      <trkpt lat="44.8817" lon="-0.12401">
        <ele>79</ele>
        <time>2021-05-01T11:56:00.834Z</time>
      </trkpt>
      <trkpt lat="44.8817" lon="-0.12404">
        <ele>81</ele>
        <time>2021-05-01T11:56:04.835Z</time>
      </trkpt>
      <trkpt lat="44.88174" lon="-0.12409">
        <ele>82</ele>
        <time>2021-05-01T11:56:12.835Z</time>
      </trkpt>
      <trkpt lat="44.88176" lon="-0.12415">
        <ele>82</ele>
        <time>2021-05-01T11:56:20.835Z</time>
      </trkpt>
      <trkpt lat="44.88176" lon="-0.12415">
        <ele>82</ele>
        <time>2021-05-01T11:56:22.835Z</time>
      </trkpt>
      <trkpt lat="44.88175" lon="-0.12412">
        <ele>82</ele>
        <time>2021-05-01T11:56:25.834Z</time>
      </trkpt>
      <trkpt lat="44.88176" lon="-0.12407">
        <ele>73</ele>
        <time>2021-05-01T11:56:26.834Z</time>
      </trkpt>
      <trkpt lat="44.88183" lon="-0.12423">
        <ele>73</ele>
        <time>2021-05-01T11:56:37.834Z</time>
      </trkpt>
      <trkpt lat="44.88182" lon="-0.12425">
        <ele>73</ele>
        <time>2021-05-01T11:56:38.834Z</time>
      </trkpt>
      <trkpt lat="44.88188" lon="-0.12437">
        <ele>77</ele>
        <time>2021-05-01T11:56:49.834Z</time>
      </trkpt>
      <trkpt lat="44.8819" lon="-0.12444">
        <ele>76</ele>
        <time>2021-05-01T11:56:56.834Z</time>
      </trkpt>
      <trkpt lat="44.88187" lon="-0.12443">
        <ele>77</ele>
        <time>2021-05-01T11:57:00.835Z</time>
      </trkpt>
      <trkpt lat="44.88187" lon="-0.12444">
        <ele>78</ele>
        <time>2021-05-01T11:57:03.834Z</time>
      </trkpt>
      <trkpt lat="44.88187" lon="-0.12443">
        <ele>78</ele>
        <time>2021-05-01T11:57:04.834Z</time>
      </trkpt>
      <trkpt lat="44.88186" lon="-0.12445">
        <ele>79</ele>
        <time>2021-05-01T11:57:08.834Z</time>
      </trkpt>
      <trkpt lat="44.88185" lon="-0.12445">
        <ele>80</ele>
        <time>2021-05-01T11:57:12.834Z</time>
      </trkpt>
      <trkpt lat="44.88185" lon="-0.12446">
        <ele>80</ele>
        <time>2021-05-01T11:57:19.834Z</time>
      </trkpt>
      <trkpt lat="44.88184" lon="-0.12445">
        <ele>79</ele>
        <time>2021-05-01T11:57:22.834Z</time>
      </trkpt>
      <trkpt lat="44.88186" lon="-0.12444">
        <ele>79</ele>
        <time>2021-05-01T11:57:25.834Z</time>
      </trkpt>
      <trkpt lat="44.88184" lon="-0.12441">
        <ele>78</ele>
        <time>2021-05-01T11:57:28.834Z</time>
      </trkpt>
      <trkpt lat="44.88183" lon="-0.12442">
        <ele>77</ele>
        <time>2021-05-01T11:57:33.834Z</time>
      </trkpt>
      <trkpt lat="44.88183" lon="-0.12441">
        <ele>77</ele>
        <time>2021-05-01T11:57:34.835Z</time>
      </trkpt>
      <trkpt lat="44.88176" lon="-0.12438">
        <ele>75</ele>
        <time>2021-05-01T11:57:43.834Z</time>
      </trkpt>
      <trkpt lat="44.88166" lon="-0.12412">
        <ele>73</ele>
        <time>2021-05-01T11:58:07.835Z</time>
      </trkpt>
      <trkpt lat="44.88159" lon="-0.12403">
        <ele>71</ele>
        <time>2021-05-01T11:58:19.834Z</time>
      </trkpt>
      <trkpt lat="44.88157" lon="-0.12401">
        <ele>69</ele>
        <time>2021-05-01T11:58:24.835Z</time>
      </trkpt>
      <trkpt lat="44.88154" lon="-0.12393">
        <ele>71</ele>
        <time>2021-05-01T11:58:34.834Z</time>
      </trkpt>
      <trkpt lat="44.88148" lon="-0.12382">
        <ele>70</ele>
        <time>2021-05-01T11:58:45.834Z</time>
      </trkpt>
      <trkpt lat="44.88133" lon="-0.12365">
        <ele>71</ele>
        <time>2021-05-01T11:59:02.834Z</time>
      </trkpt>
      <trkpt lat="44.88128" lon="-0.12356">
        <ele>70</ele>
        <time>2021-05-01T11:59:10.834Z</time>
      </trkpt>
      <trkpt lat="44.88122" lon="-0.12352">
        <ele>69</ele>
        <time>2021-05-01T11:59:16.835Z</time>
      </trkpt>
      <trkpt lat="44.8812" lon="-0.12348">
        <ele>71</ele>
        <time>2021-05-01T11:59:19.835Z</time>
      </trkpt>
      <trkpt lat="44.88112" lon="-0.12341">
        <ele>70</ele>
        <time>2021-05-01T11:59:25.834Z</time>
      </trkpt>
      <trkpt lat="44.88108" lon="-0.12344">
        <ele>69</ele>
        <time>2021-05-01T11:59:31.835Z</time>
      </trkpt>
      <trkpt lat="44.88108" lon="-0.12345">
        <ele>69</ele>
        <time>2021-05-01T11:59:33.834Z</time>
      </trkpt>
      <trkpt lat="44.88099" lon="-0.12347">
        <ele>67</ele>
        <time>2021-05-01T11:59:43.834Z</time>
      </trkpt>
      <trkpt lat="44.88105" lon="-0.12372">
        <ele>64</ele>
        <time>2021-05-01T11:59:59.834Z</time>
      </trkpt>
      <trkpt lat="44.88108" lon="-0.12382">
        <ele>67</ele>
        <time>2021-05-01T12:00:06.834Z</time>
      </trkpt>
      <trkpt lat="44.88112" lon="-0.12387">
        <ele>66</ele>
        <time>2021-05-01T12:00:11.835Z</time>
      </trkpt>
      <trkpt lat="44.88113" lon="-0.1239">
        <ele>66</ele>
        <time>2021-05-01T12:00:13.834Z</time>
      </trkpt>
      <trkpt lat="44.88112" lon="-0.12392">
        <ele>65</ele>
        <time>2021-05-01T12:00:15.835Z</time>
      </trkpt>
      <trkpt lat="44.88101" lon="-0.12395">
        <ele>63</ele>
        <time>2021-05-01T12:00:24.834Z</time>
      </trkpt>
      <trkpt lat="44.881" lon="-0.12397">
        <ele>62</ele>
        <time>2021-05-01T12:00:26.834Z</time>
      </trkpt>
      <trkpt lat="44.88066" lon="-0.12405">
        <ele>60</ele>
        <time>2021-05-01T12:00:51.834Z</time>
      </trkpt>
      <trkpt lat="44.88062" lon="-0.12404">
        <ele>60</ele>
        <time>2021-05-01T12:00:54.835Z</time>
      </trkpt>
      <trkpt lat="44.88061" lon="-0.12406">
        <ele>58</ele>
        <time>2021-05-01T12:00:56.834Z</time>
      </trkpt>
      <trkpt lat="44.88056" lon="-0.12408">
        <ele>58</ele>
        <time>2021-05-01T12:00:59.835Z</time>
      </trkpt>
      <trkpt lat="44.88055" lon="-0.1241">
        <ele>58</ele>
        <time>2021-05-01T12:01:01.835Z</time>
      </trkpt>
      <trkpt lat="44.88055" lon="-0.12417">
        <ele>58</ele>
        <time>2021-05-01T12:01:04.834Z</time>
      </trkpt>
      <trkpt lat="44.88059" lon="-0.12427">
        <ele>58</ele>
        <time>2021-05-01T12:01:11.834Z</time>
      </trkpt>
      <trkpt lat="44.88061" lon="-0.1243">
        <ele>56</ele>
        <time>2021-05-01T12:01:14.834Z</time>
      </trkpt>
      <trkpt lat="44.8806" lon="-0.12433">
        <ele>56</ele>
        <time>2021-05-01T12:01:17.834Z</time>
      </trkpt>
      <trkpt lat="44.88062" lon="-0.12434">
        <ele>56</ele>
        <time>2021-05-01T12:01:22.834Z</time>
      </trkpt>
      <trkpt lat="44.88077" lon="-0.12466">
        <ele>53</ele>
        <time>2021-05-01T12:01:47.834Z</time>
      </trkpt>
      <trkpt lat="44.88084" lon="-0.12474">
        <ele>51</ele>
        <time>2021-05-01T12:01:54.834Z</time>
      </trkpt>
      <trkpt lat="44.88089" lon="-0.12484">
        <ele>49</ele>
        <time>2021-05-01T12:02:00.834Z</time>
      </trkpt>
      <trkpt lat="44.88091" lon="-0.12491">
        <ele>49</ele>
        <time>2021-05-01T12:02:04.834Z</time>
      </trkpt>
      <trkpt lat="44.88094" lon="-0.12496">
        <ele>50</ele>
        <time>2021-05-01T12:02:07.834Z</time>
      </trkpt>
      <trkpt lat="44.88099" lon="-0.12512">
        <ele>50</ele>
        <time>2021-05-01T12:02:17.834Z</time>
      </trkpt>
      <trkpt lat="44.88108" lon="-0.12528">
        <ele>49</ele>
        <time>2021-05-01T12:02:29.835Z</time>
      </trkpt>
      <trkpt lat="44.88116" lon="-0.12553">
        <ele>45</ele>
        <time>2021-05-01T12:02:44.835Z</time>
      </trkpt>
      <trkpt lat="44.88118" lon="-0.12568">
        <ele>45</ele>
        <time>2021-05-01T12:02:53.834Z</time>
      </trkpt>
      <trkpt lat="44.88117" lon="-0.12584">
        <ele>43</ele>
        <time>2021-05-01T12:03:02.835Z</time>
      </trkpt>
      <trkpt lat="44.88118" lon="-0.12593">
        <ele>40</ele>
        <time>2021-05-01T12:03:07.834Z</time>
      </trkpt>
      <trkpt lat="44.88117" lon="-0.12627">
        <ele>34</ele>
        <time>2021-05-01T12:03:27.834Z</time>
      </trkpt>
      <trkpt lat="44.88119" lon="-0.12648">
        <ele>34</ele>
        <time>2021-05-01T12:03:39.834Z</time>
      </trkpt>
      <trkpt lat="44.88122" lon="-0.12659">
        <ele>32</ele>
        <time>2021-05-01T12:03:45.835Z</time>
      </trkpt>
      <trkpt lat="44.88124" lon="-0.1268">
        <ele>32</ele>
        <time>2021-05-01T12:03:56.835Z</time>
      </trkpt>
      <trkpt lat="44.88127" lon="-0.12696">
        <ele>31</ele>
        <time>2021-05-01T12:04:05.834Z</time>
      </trkpt>
      <trkpt lat="44.88143" lon="-0.12746">
        <ele>33</ele>
        <time>2021-05-01T12:04:34.834Z</time>
      </trkpt>
      <trkpt lat="44.88148" lon="-0.12756">
        <ele>32</ele>
        <time>2021-05-01T12:04:41.835Z</time>
      </trkpt>
      <trkpt lat="44.88153" lon="-0.12768">
        <ele>35</ele>
        <time>2021-05-01T12:04:49.834Z</time>
      </trkpt>
      <trkpt lat="44.8816" lon="-0.12779">
        <ele>36</ele>
        <time>2021-05-01T12:04:57.835Z</time>
      </trkpt>
      <trkpt lat="44.88162" lon="-0.128">
        <ele>39</ele>
        <time>2021-05-01T12:05:11.834Z</time>
      </trkpt>
      <trkpt lat="44.88163" lon="-0.128">
        <ele>35</ele>
        <time>2021-05-01T12:05:19.834Z</time>
      </trkpt>
      <trkpt lat="44.88163" lon="-0.12804">
        <ele>33</ele>
        <time>2021-05-01T12:05:24.834Z</time>
      </trkpt>
      <trkpt lat="44.88168" lon="-0.12808">
        <ele>32</ele>
        <time>2021-05-01T12:05:29.834Z</time>
      </trkpt>
      <trkpt lat="44.88174" lon="-0.12806">
        <ele>31</ele>
        <time>2021-05-01T12:05:33.834Z</time>
      </trkpt>
      <trkpt lat="44.88178" lon="-0.12803">
        <ele>30</ele>
        <time>2021-05-01T12:05:36.835Z</time>
      </trkpt>
      <trkpt lat="44.88182" lon="-0.12798">
        <ele>30</ele>
        <time>2021-05-01T12:05:40.834Z</time>
      </trkpt>
      <trkpt lat="44.88186" lon="-0.12796">
        <ele>30</ele>
        <time>2021-05-01T12:05:45.834Z</time>
      </trkpt>
      <trkpt lat="44.88184" lon="-0.12794">
        <ele>30</ele>
        <time>2021-05-01T12:05:51.835Z</time>
      </trkpt>
      <trkpt lat="44.88185" lon="-0.12795">
        <ele>31</ele>
        <time>2021-05-01T12:05:54.834Z</time>
      </trkpt>
      <trkpt lat="44.88173" lon="-0.12802">
        <ele>29</ele>
        <time>2021-05-01T12:05:57.835Z</time>
      </trkpt>
      <trkpt lat="44.88158" lon="-0.12821">
        <ele>27</ele>
        <time>2021-05-01T12:06:12.836Z</time>
      </trkpt>
      <trkpt lat="44.88154" lon="-0.12824">
        <ele>27</ele>
        <time>2021-05-01T12:06:16.836Z</time>
      </trkpt>
      <trkpt lat="44.88149" lon="-0.12831">
        <ele>28</ele>
        <time>2021-05-01T12:06:21.836Z</time>
      </trkpt>
      <trkpt lat="44.88146" lon="-0.12833">
        <ele>29</ele>
        <time>2021-05-01T12:06:24.836Z</time>
      </trkpt>
      <trkpt lat="44.88147" lon="-0.12839">
        <ele>31</ele>
        <time>2021-05-01T12:06:29.836Z</time>
      </trkpt>
      <trkpt lat="44.88155" lon="-0.12851">
        <ele>30</ele>
        <time>2021-05-01T12:06:38.836Z</time>
      </trkpt>
      <trkpt lat="44.88159" lon="-0.12862">
        <ele>32</ele>
        <time>2021-05-01T12:06:45.835Z</time>
      </trkpt>
      <trkpt lat="44.88162" lon="-0.12872">
        <ele>31</ele>
        <time>2021-05-01T12:06:53.836Z</time>
      </trkpt>
      <trkpt lat="44.88161" lon="-0.12872">
        <ele>26</ele>
        <time>2021-05-01T12:06:54.836Z</time>
      </trkpt>
      <trkpt lat="44.88172" lon="-0.12888">
        <ele>28</ele>
        <time>2021-05-01T12:07:04.837Z</time>
      </trkpt>
      <trkpt lat="44.88181" lon="-0.12891">
        <ele>28</ele>
        <time>2021-05-01T12:07:10.837Z</time>
      </trkpt>
      <trkpt lat="44.88185" lon="-0.1289">
        <ele>27</ele>
        <time>2021-05-01T12:07:13.837Z</time>
      </trkpt>
      <trkpt lat="44.88196" lon="-0.12891">
        <ele>28</ele>
        <time>2021-05-01T12:07:20.837Z</time>
      </trkpt>
      <trkpt lat="44.88204" lon="-0.12896">
        <ele>33</ele>
        <time>2021-05-01T12:07:31.837Z</time>
      </trkpt>
      <trkpt lat="44.88236" lon="-0.12898">
        <ele>30</ele>
        <time>2021-05-01T12:07:57.837Z</time>
      </trkpt>
      <trkpt lat="44.88246" lon="-0.12901">
        <ele>30</ele>
        <time>2021-05-01T12:08:04.836Z</time>
      </trkpt>
      <trkpt lat="44.88259" lon="-0.12903">
        <ele>34</ele>
        <time>2021-05-01T12:08:16.836Z</time>
      </trkpt>
      <trkpt lat="44.88265" lon="-0.12901">
        <ele>34</ele>
        <time>2021-05-01T12:08:22.836Z</time>
      </trkpt>
      <trkpt lat="44.88275" lon="-0.12901">
        <ele>34</ele>
        <time>2021-05-01T12:08:31.837Z</time>
      </trkpt>
      <trkpt lat="44.88292" lon="-0.12898">
        <ele>37</ele>
        <time>2021-05-01T12:08:44.837Z</time>
      </trkpt>
      <trkpt lat="44.88293" lon="-0.12899">
        <ele>37</ele>
        <time>2021-05-01T12:08:45.837Z</time>
      </trkpt>
      <trkpt lat="44.88321" lon="-0.12893">
        <ele>35</ele>
        <time>2021-05-01T12:09:05.837Z</time>
      </trkpt>
      <trkpt lat="44.88343" lon="-0.12889">
        <ele>37</ele>
        <time>2021-05-01T12:09:55.882Z</time>
      </trkpt>
      <trkpt lat="44.88352" lon="-0.12891">
        <ele>36</ele>
        <time>2021-05-01T12:10:02.883Z</time>
      </trkpt>
      <trkpt lat="44.88361" lon="-0.12895">
        <ele>37</ele>
        <time>2021-05-01T12:10:09.883Z</time>
      </trkpt>
      <trkpt lat="44.88367" lon="-0.12894">
        <ele>36</ele>
        <time>2021-05-01T12:10:13.883Z</time>
      </trkpt>
      <trkpt lat="44.88393" lon="-0.12902">
        <ele>37</ele>
        <time>2021-05-01T12:10:34.883Z</time>
      </trkpt>
      <trkpt lat="44.88402" lon="-0.12907">
        <ele>35</ele>
        <time>2021-05-01T12:10:42.883Z</time>
      </trkpt>
      <trkpt lat="44.88408" lon="-0.12916">
        <ele>36</ele>
        <time>2021-05-01T12:10:49.883Z</time>
      </trkpt>
      <trkpt lat="44.8842" lon="-0.12945">
        <ele>36</ele>
        <time>2021-05-01T12:11:07.883Z</time>
      </trkpt>
      <trkpt lat="44.88429" lon="-0.1296">
        <ele>35</ele>
        <time>2021-05-01T12:11:20.882Z</time>
      </trkpt>
      <trkpt lat="44.88429" lon="-0.12963">
        <ele>36</ele>
        <time>2021-05-01T12:11:24.883Z</time>
      </trkpt>
      <trkpt lat="44.88418" lon="-0.12976">
        <ele>34</ele>
        <time>2021-05-01T12:11:41.883Z</time>
      </trkpt>
      <trkpt lat="44.88406" lon="-0.12984">
        <ele>38</ele>
        <time>2021-05-01T12:11:56.883Z</time>
      </trkpt>
      <trkpt lat="44.88406" lon="-0.12987">
        <ele>40</ele>
        <time>2021-05-01T12:12:00.883Z</time>
      </trkpt>
      <trkpt lat="44.88401" lon="-0.12988">
        <ele>44</ele>
        <time>2021-05-01T12:12:10.883Z</time>
      </trkpt>
      <trkpt lat="44.88392" lon="-0.12997">
        <ele>45</ele>
        <time>2021-05-01T12:12:25.882Z</time>
      </trkpt>
      <trkpt lat="44.88389" lon="-0.12999">
        <ele>45</ele>
        <time>2021-05-01T12:12:30.883Z</time>
      </trkpt>
      <trkpt lat="44.88384" lon="-0.13005">
        <ele>46</ele>
        <time>2021-05-01T12:12:40.883Z</time>
      </trkpt>
      <trkpt lat="44.88381" lon="-0.13006">
        <ele>47</ele>
        <time>2021-05-01T12:12:43.883Z</time>
      </trkpt>
      <trkpt lat="44.88378" lon="-0.13009">
        <ele>47</ele>
        <time>2021-05-01T12:12:48.883Z</time>
      </trkpt>
      <trkpt lat="44.88374" lon="-0.13011">
        <ele>49</ele>
        <time>2021-05-01T12:12:52.883Z</time>
      </trkpt>
      <trkpt lat="44.88369" lon="-0.13016">
        <ele>52</ele>
        <time>2021-05-01T12:13:00.883Z</time>
      </trkpt>
      <trkpt lat="44.88368" lon="-0.13019">
        <ele>52</ele>
        <time>2021-05-01T12:13:01.883Z</time>
      </trkpt>
      <trkpt lat="44.88365" lon="-0.1302">
        <ele>53</ele>
        <time>2021-05-01T12:13:05.883Z</time>
      </trkpt>
      <trkpt lat="44.88362" lon="-0.13024">
        <ele>54</ele>
        <time>2021-05-01T12:13:10.883Z</time>
      </trkpt>
      <trkpt lat="44.88359" lon="-0.1303">
        <ele>53</ele>
        <time>2021-05-01T12:13:16.883Z</time>
      </trkpt>
      <trkpt lat="44.88353" lon="-0.13036">
        <ele>52</ele>
        <time>2021-05-01T12:13:24.883Z</time>
      </trkpt>
      <trkpt lat="44.8835" lon="-0.13035">
        <ele>52</ele>
        <time>2021-05-01T12:13:32.256Z</time>
      </trkpt>
      <trkpt lat="44.88347" lon="-0.13042">
        <ele>52</ele>
        <time>2021-05-01T12:13:42.256Z</time>
      </trkpt>
      <trkpt lat="44.88346" lon="-0.13042">
        <ele>53</ele>
        <time>2021-05-01T12:13:47.256Z</time>
      </trkpt>
      <trkpt lat="44.88355" lon="-0.1303">
        <ele>60</ele>
        <time>2021-05-01T12:13:54.257Z</time>
      </trkpt>
      <trkpt lat="44.88352" lon="-0.13032">
        <ele>58</ele>
        <time>2021-05-01T12:13:56.256Z</time>
      </trkpt>
      <trkpt lat="44.88348" lon="-0.13039">
        <ele>54</ele>
        <time>2021-05-01T12:14:02.257Z</time>
      </trkpt>
      <trkpt lat="44.88344" lon="-0.13062">
        <ele>54</ele>
        <time>2021-05-01T12:14:15.257Z</time>
      </trkpt>
      <trkpt lat="44.88343" lon="-0.13077">
        <ele>54</ele>
        <time>2021-05-01T12:14:23.257Z</time>
      </trkpt>
      <trkpt lat="44.88344" lon="-0.13088">
        <ele>53</ele>
        <time>2021-05-01T12:14:29.257Z</time>
      </trkpt>
      <trkpt lat="44.88343" lon="-0.13096">
        <ele>52</ele>
        <time>2021-05-01T12:14:33.257Z</time>
      </trkpt>
      <trkpt lat="44.88345" lon="-0.13099">
        <ele>53</ele>
        <time>2021-05-01T12:14:35.256Z</time>
      </trkpt>
      <trkpt lat="44.88345" lon="-0.13119">
        <ele>52</ele>
        <time>2021-05-01T12:14:45.257Z</time>
      </trkpt>
      <trkpt lat="44.88342" lon="-0.13145">
        <ele>57</ele>
        <time>2021-05-01T12:14:58.256Z</time>
      </trkpt>
      <trkpt lat="44.88341" lon="-0.13151">
        <ele>58</ele>
        <time>2021-05-01T12:15:02.256Z</time>
      </trkpt>
      <trkpt lat="44.88336" lon="-0.13157">
        <ele>58</ele>
        <time>2021-05-01T12:15:11.256Z</time>
      </trkpt>
      <trkpt lat="44.88335" lon="-0.13162">
        <ele>58</ele>
        <time>2021-05-01T12:15:13.256Z</time>
      </trkpt>
      <trkpt lat="44.88333" lon="-0.13165">
        <ele>59</ele>
        <time>2021-05-01T12:15:15.256Z</time>
      </trkpt>
      <trkpt lat="44.88331" lon="-0.13172">
        <ele>58</ele>
        <time>2021-05-01T12:15:19.257Z</time>
      </trkpt>
      <trkpt lat="44.88329" lon="-0.13179">
        <ele>58</ele>
        <time>2021-05-01T12:15:23.256Z</time>
      </trkpt>
      <trkpt lat="44.88329" lon="-0.13181">
        <ele>58</ele>
        <time>2021-05-01T12:15:25.257Z</time>
      </trkpt>
      <trkpt lat="44.88327" lon="-0.13186">
        <ele>58</ele>
        <time>2021-05-01T12:15:28.256Z</time>
      </trkpt>
      <trkpt lat="44.8832" lon="-0.13201">
        <ele>60</ele>
        <time>2021-05-01T12:15:40.257Z</time>
      </trkpt>
      <trkpt lat="44.88319" lon="-0.13207">
        <ele>63</ele>
        <time>2021-05-01T12:15:50.257Z</time>
      </trkpt>
      <trkpt lat="44.88314" lon="-0.13203">
        <ele>63</ele>
        <time>2021-05-01T12:15:54.257Z</time>
      </trkpt>
      <trkpt lat="44.88308" lon="-0.132">
        <ele>61</ele>
        <time>2021-05-01T12:15:58.257Z</time>
      </trkpt>
      <trkpt lat="44.88305" lon="-0.13197">
        <ele>58</ele>
        <time>2021-05-01T12:16:04.257Z</time>
      </trkpt>
      <trkpt lat="44.88304" lon="-0.13201">
        <ele>52</ele>
        <time>2021-05-01T12:16:14.257Z</time>
      </trkpt>
      <trkpt lat="44.88303" lon="-0.13201">
        <ele>51</ele>
        <time>2021-05-01T12:16:16.257Z</time>
      </trkpt>
      <trkpt lat="44.88287" lon="-0.13194">
        <ele>53</ele>
        <time>2021-05-01T12:16:17.257Z</time>
      </trkpt>
      <trkpt lat="44.88279" lon="-0.13194">
        <ele>50</ele>
        <time>2021-05-01T12:16:24.257Z</time>
      </trkpt>
      <trkpt lat="44.8826" lon="-0.13189">
        <ele>49</ele>
        <time>2021-05-01T12:16:37.257Z</time>
      </trkpt>
      <trkpt lat="44.88258" lon="-0.1319">
        <ele>48</ele>
        <time>2021-05-01T12:16:39.258Z</time>
      </trkpt>
      <trkpt lat="44.88232" lon="-0.13186">
        <ele>47</ele>
        <time>2021-05-01T12:16:57.258Z</time>
      </trkpt>
      <trkpt lat="44.88231" lon="-0.13187">
        <ele>46</ele>
        <time>2021-05-01T12:17:00.257Z</time>
      </trkpt>
      <trkpt lat="44.88214" lon="-0.13185">
        <ele>45</ele>
        <time>2021-05-01T12:17:19.258Z</time>
      </trkpt>
      <trkpt lat="44.88204" lon="-0.13181">
        <ele>46</ele>
        <time>2021-05-01T12:17:26.258Z</time>
      </trkpt>
      <trkpt lat="44.88188" lon="-0.13179">
        <ele>42</ele>
        <time>2021-05-01T12:17:38.258Z</time>
      </trkpt>
      <trkpt lat="44.88175" lon="-0.13174">
        <ele>43</ele>
        <time>2021-05-01T12:17:50.258Z</time>
      </trkpt>
      <trkpt lat="44.88161" lon="-0.13171">
        <ele>42</ele>
        <time>2021-05-01T12:18:01.258Z</time>
      </trkpt>
      <trkpt lat="44.88148" lon="-0.13171">
        <ele>39</ele>
        <time>2021-05-01T12:18:09.258Z</time>
      </trkpt>
      <trkpt lat="44.8813" lon="-0.13173">
        <ele>39</ele>
        <time>2021-05-01T12:18:21.258Z</time>
      </trkpt>
      <trkpt lat="44.88114" lon="-0.13176">
        <ele>38</ele>
        <time>2021-05-01T12:18:31.258Z</time>
      </trkpt>
      <trkpt lat="44.881" lon="-0.13177">
        <ele>36</ele>
        <time>2021-05-01T12:18:46.258Z</time>
      </trkpt>
      <trkpt lat="44.88099" lon="-0.13178">
        <ele>38</ele>
        <time>2021-05-01T12:18:49.257Z</time>
      </trkpt>
      <trkpt lat="44.88089" lon="-0.13177">
        <ele>41</ele>
        <time>2021-05-01T12:18:56.258Z</time>
      </trkpt>
      <trkpt lat="44.88064" lon="-0.13178">
        <ele>36</ele>
        <time>2021-05-01T12:19:12.258Z</time>
      </trkpt>
      <trkpt lat="44.88042" lon="-0.13177">
        <ele>36</ele>
        <time>2021-05-01T12:19:27.258Z</time>
      </trkpt>
      <trkpt lat="44.88035" lon="-0.13179">
        <ele>32</ele>
        <time>2021-05-01T12:19:32.258Z</time>
      </trkpt>
      <trkpt lat="44.88025" lon="-0.13178">
        <ele>32</ele>
        <time>2021-05-01T12:19:38.258Z</time>
      </trkpt>
      <trkpt lat="44.88006" lon="-0.13179">
        <ele>33</ele>
        <time>2021-05-01T12:19:51.258Z</time>
      </trkpt>
      <trkpt lat="44.88003" lon="-0.13178">
        <ele>33</ele>
        <time>2021-05-01T12:19:54.258Z</time>
      </trkpt>
      <trkpt lat="44.87975" lon="-0.1318">
        <ele>30</ele>
        <time>2021-05-01T12:20:13.258Z</time>
      </trkpt>
      <trkpt lat="44.87974" lon="-0.13181">
        <ele>30</ele>
        <time>2021-05-01T12:20:16.258Z</time>
      </trkpt>
      <trkpt lat="44.87975" lon="-0.13181">
        <ele>30</ele>
        <time>2021-05-01T12:20:21.258Z</time>
      </trkpt>
      <trkpt lat="44.87968" lon="-0.13179">
        <ele>29</ele>
        <time>2021-05-01T12:20:26.258Z</time>
      </trkpt>
      <trkpt lat="44.87948" lon="-0.13184">
        <ele>26</ele>
        <time>2021-05-01T12:20:40.257Z</time>
      </trkpt>
      <trkpt lat="44.87935" lon="-0.13185">
        <ele>26</ele>
        <time>2021-05-01T12:20:49.258Z</time>
      </trkpt>
      <trkpt lat="44.87907" lon="-0.13191">
        <ele>27</ele>
        <time>2021-05-01T12:21:07.258Z</time>
      </trkpt>
      <trkpt lat="44.87904" lon="-0.13192">
        <ele>28</ele>
        <time>2021-05-01T12:21:09.257Z</time>
      </trkpt>
      <trkpt lat="44.87901" lon="-0.13196">
        <ele>28</ele>
        <time>2021-05-01T12:21:12.258Z</time>
      </trkpt>
      <trkpt lat="44.87899" lon="-0.13195">
        <ele>28</ele>
        <time>2021-05-01T12:21:14.257Z</time>
      </trkpt>
      <trkpt lat="44.87894" lon="-0.13186">
        <ele>29</ele>
        <time>2021-05-01T12:21:20.258Z</time>
      </trkpt>
      <trkpt lat="44.87883" lon="-0.13175">
        <ele>28</ele>
        <time>2021-05-01T12:21:31.258Z</time>
      </trkpt>
      <trkpt lat="44.87882" lon="-0.13175">
        <ele>27</ele>
        <time>2021-05-01T12:21:33.258Z</time>
      </trkpt>
      <trkpt lat="44.87875" lon="-0.13167">
        <ele>26</ele>
        <time>2021-05-01T12:21:40.258Z</time>
      </trkpt>
      <trkpt lat="44.87867" lon="-0.13151">
        <ele>26</ele>
        <time>2021-05-01T12:21:49.258Z</time>
      </trkpt>
      <trkpt lat="44.87851" lon="-0.13126">
        <ele>24</ele>
        <time>2021-05-01T12:22:05.258Z</time>
      </trkpt>
      <trkpt lat="44.87843" lon="-0.1311">
        <ele>21</ele>
        <time>2021-05-01T12:22:14.258Z</time>
      </trkpt>
      <trkpt lat="44.8784" lon="-0.13105">
        <ele>22</ele>
        <time>2021-05-01T12:22:18.258Z</time>
      </trkpt>
      <trkpt lat="44.87839" lon="-0.13103">
        <ele>22</ele>
        <time>2021-05-01T12:22:19.258Z</time>
      </trkpt>
      <trkpt lat="44.87834" lon="-0.13093">
        <ele>24</ele>
        <time>2021-05-01T12:22:25.258Z</time>
      </trkpt>
      <trkpt lat="44.87816" lon="-0.13065">
        <ele>27</ele>
        <time>2021-05-01T12:22:43.258Z</time>
      </trkpt>
      <trkpt lat="44.87807" lon="-0.13056">
        <ele>25</ele>
        <time>2021-05-01T12:22:51.258Z</time>
      </trkpt>
      <trkpt lat="44.87802" lon="-0.13055">
        <ele>24</ele>
        <time>2021-05-01T12:22:57.258Z</time>
      </trkpt>
      <trkpt lat="44.87792" lon="-0.13059">
        <ele>23</ele>
        <time>2021-05-01T12:23:05.258Z</time>
      </trkpt>
      <trkpt lat="44.87773" lon="-0.13074">
        <ele>20</ele>
        <time>2021-05-01T12:23:19.257Z</time>
      </trkpt>
      <trkpt lat="44.87762" lon="-0.13078">
        <ele>21</ele>
        <time>2021-05-01T12:23:26.258Z</time>
      </trkpt>
      <trkpt lat="44.87746" lon="-0.1309">
        <ele>19</ele>
        <time>2021-05-01T12:23:38.258Z</time>
      </trkpt>
      <trkpt lat="44.87737" lon="-0.13094">
        <ele>20</ele>
        <time>2021-05-01T12:23:44.258Z</time>
      </trkpt>
      <trkpt lat="44.87734" lon="-0.13098">
        <ele>20</ele>
        <time>2021-05-01T12:23:47.257Z</time>
      </trkpt>
      <trkpt lat="44.87711" lon="-0.13109">
        <ele>18</ele>
        <time>2021-05-01T12:24:04.257Z</time>
      </trkpt>
      <trkpt lat="44.87666" lon="-0.13142">
        <ele>20</ele>
        <time>2021-05-01T12:24:39.257Z</time>
      </trkpt>
      <trkpt lat="44.87664" lon="-0.13145">
        <ele>20</ele>
        <time>2021-05-01T12:24:41.258Z</time>
      </trkpt>
      <trkpt lat="44.87647" lon="-0.13161">
        <ele>18</ele>
        <time>2021-05-01T12:24:56.258Z</time>
      </trkpt>
      <trkpt lat="44.87632" lon="-0.13179">
        <ele>17</ele>
        <time>2021-05-01T12:25:09.258Z</time>
      </trkpt>
      <trkpt lat="44.87611" lon="-0.1319">
        <ele>22</ele>
        <time>2021-05-01T12:25:24.257Z</time>
      </trkpt>
      <trkpt lat="44.87594" lon="-0.13204">
        <ele>21</ele>
        <time>2021-05-01T12:25:38.257Z</time>
      </trkpt>
      <trkpt lat="44.87589" lon="-0.13205">
        <ele>19</ele>
        <time>2021-05-01T12:25:41.257Z</time>
      </trkpt>
      <trkpt lat="44.8758" lon="-0.13214">
        <ele>18</ele>
        <time>2021-05-01T12:25:48.258Z</time>
      </trkpt>
      <trkpt lat="44.87554" lon="-0.13232">
        <ele>17</ele>
        <time>2021-05-01T12:26:07.257Z</time>
      </trkpt>
      <trkpt lat="44.87534" lon="-0.13252">
        <ele>15</ele>
        <time>2021-05-01T12:26:25.257Z</time>
      </trkpt>
      <trkpt lat="44.87533" lon="-0.13256">
        <ele>15</ele>
        <time>2021-05-01T12:26:27.258Z</time>
      </trkpt>
      <trkpt lat="44.8754" lon="-0.13295">
        <ele>20</ele>
        <time>2021-05-01T12:27:11.202Z</time>
      </trkpt>
      <trkpt lat="44.87544" lon="-0.13311">
        <ele>20</ele>
        <time>2021-05-01T12:27:20.202Z</time>
      </trkpt>
      <trkpt lat="44.87548" lon="-0.13337">
        <ele>22</ele>
        <time>2021-05-01T12:27:33.202Z</time>
      </trkpt>
      <trkpt lat="44.87554" lon="-0.13352">
        <ele>21</ele>
        <time>2021-05-01T12:27:41.202Z</time>
      </trkpt>
      <trkpt lat="44.87554" lon="-0.13358">
        <ele>21</ele>
        <time>2021-05-01T12:27:44.202Z</time>
      </trkpt>
      <trkpt lat="44.87557" lon="-0.13366">
        <ele>21</ele>
        <time>2021-05-01T12:27:48.201Z</time>
      </trkpt>
      <trkpt lat="44.87558" lon="-0.13379">
        <ele>20</ele>
        <time>2021-05-01T12:27:55.201Z</time>
      </trkpt>
      <trkpt lat="44.87559" lon="-0.1338">
        <ele>21</ele>
        <time>2021-05-01T12:27:56.201Z</time>
      </trkpt>
    </trkseg>
  </trk>
</gpx>